[[{"header":{"parameterUnit":"m.s-1","parameterCategory":1,"la1":30.6,"la2":28.766,"lo1":-90.7593,"lo2":-88.6598,"dy":0.0162,"dx":0.0183,"nx":116,"ny":114,"refTime":"2023-07-04T06:00:00:Z","depth":0,"parameterNumber":2,"parameterNumberName":"U-component_of_WINDS"},"data":[0.0,0.0,0.0,0.0,0.0,0.0,0.0,0.0,0.0,0.0,0.0,0.0,0.0,0.0,0.0,0.0,0.0,0.0,0.0,0.0,0.0,0.0,0.0,0.0,0.0,0.0,0.0,0.0,0.0,0.0,0.0,0.0,0.0,0.0,0.0,0.0,0.0,0.0,0.0,0.0,0.0,0.0,0.0,0.0,0.0,0.0,0.0,0.0,0.0,0.0,0.0,0.0,0.0,0.0,0.0,0.0,0.0,0.0,0.0,0.0,0.0,0.0,0.0,0.0,0.0,0.0,0.0,0.0,0.0,0.0,0.0,0.0,0.0,0.0,0.0,0.0,0.0,0.0,0.0,0.0,0.0,0.0,0.0,0.0,0.0,0.0,0.0,0.0,0.0,0.0,0.0,0.0,0.0,0.0,0.0,0.0,0.0,0.0,0.0,0.0,0.0,0.0,0.0,0.0,0.0,0.0,0.0,0.0,0.0,0.0,0.0,0.0,0.0,0.0,0.0,0.0,0.0,0.0,0.0,0.0,0.0,0.0,0.0,0.0,0.0,0.0,0.0,0.0,0.0,0.0,0.0,0.0,0.0,0.0,0.0,0.0,0.0,0.0,0.0,0.0,0.0,0.0,0.0,0.0,0.0,0.0,0.0,0.0,0.0,0.0,0.0,0.0,0.0,0.0,0.0,0.0,0.0,0.0,0.0,0.0,0.0,0.0,0.0,0.0,0.0,0.0,0.0,0.0,0.0,0.0,0.0,0.0,0.0,0.0,0.0,0.0,0.0,0.0,0.0,0.0,0.0,0.0,0.0,0.0,0.0,0.0,0.0,0.0,0.0,0.0,0.0,0.0,0.0,0.0,0.0,0.0,0.0,0.0,0.0,0.0,0.0,0.0,0.0,0.0,0.0,0.0,0.0,0.0,0.0,0.0,0.0,0.0,0.0,0.0,0.0,0.0,0.0,0.0,0.0,0.0,0.0,0.0,0.0,0.0,0.0,0.0,0.0,0.0,0.0,0.0,0.0,0.0,0.0,0.0,0.0,0.0,0.0,0.0,0.0,0.0,0.0,0.0,0.0,0.0,0.0,0.0,0.0,0.0,0.0,0.0,0.0,0.0,0.0,0.0,0.0,0.0,0.0,0.0,0.0,0.0,0.0,0.0,0.0,0.0,0.0,0.0,0.0,0.0,0.0,0.0,0.0,0.0,0.0,0.0,0.0,0.0,0.0,0.0,0.0,0.0,0.0,0.0,0.0,0.0,0.0,0.0,0.0,0.0,0.0,0.0,0.0,0.0,0.0,0.0,0.0,0.0,0.0,0.0,0.0,0.0,0.0,0.0,0.0,0.0,0.0,0.0,0.0,0.0,0.0,0.0,0.0,0.0,0.0,0.0,0.0,0.0,0.0,0.0,0.0,0.0,0.0,0.0,0.0,0.0,0.0,0.0,0.0,0.0,0.0,0.0,0.0,0.0,0.0,0.0,0.0,0.0,0.0,0.0,0.0,0.0,0.0,0.0,0.0,0.0,0.0,0.0,0.0,0.0,0.0,0.0,0.0,0.0,0.0,0.0,0.0,0.0,0.0,0.0,0.0,0.0,0.0,0.0,0.0,0.0,0.0,0.0,0.0,0.0,0.0,0.0,0.0,0.0,0.0,0.0,0.0,0.0,0.0,0.0,0.0,0.0,0.0,0.0,0.0,0.0,0.0,0.0,0.0,0.0,0.0,0.0,0.0,0.0,0.0,0.0,0.0,0.0,0.0,0.0,0.0,0.0,0.0,0.0,0.0,0.0,0.0,0.0,0.0,0.0,0.0,0.0,0.0,0.0,0.0,0.0,0.0,0.0,0.0,0.0,0.0,0.0,0.0,0.0,0.0,0.0,0.0,0.0,0.0,0.0,0.0,0.0,0.0,0.0,0.0,0.0,0.0,0.0,0.0,0.0,0.0,0.0,0.0,0.0,0.0,0.0,0.0,0.0,0.0,0.0,0.0,0.0,0.0,0.0,0.0,0.0,0.0,0.0,0.0,0.0,0.0,0.0,0.0,0.0,0.0,0.0,0.0,0.0,0.0,0.0,0.0,0.0,0.0,0.0,0.0,0.0,0.0,0.0,0.0,0.0,0.0,0.0,0.0,0.0,0.0,0.0,0.0,0.0,0.0,0.0,0.0,0.0,0.0,0.0,0.0,0.0,0.0,0.0,0.0,0.0,0.0,0.0,0.0,0.0,0.0,0.0,0.0,0.0,0.0,0.0,0.0,0.0,0.0,0.0,0.0,0.0,0.0,0.0,0.0,0.0,0.0,0.0,0.0,0.0,0.0,0.0,0.0,0.0,0.0,0.0,0.0,0.0,0.0,0.0,0.0,0.0,0.0,0.0,0.0,0.0,0.0,0.0,0.0,0.0,0.0,0.0,0.0,0.0,0.0,0.0,0.0,0.0,0.0,0.0,0.0,0.0,0.0,0.0,0.0,0.0,0.0,0.0,0.0,0.0,0.0,0.0,0.0,0.0,0.0,0.0,0.0,0.0,0.0,0.0,0.0,0.0,0.0,0.0,0.0,0.0,0.0,0.0,0.0,0.0,0.0,0.0,0.0,0.0,0.0,0.0,0.0,0.0,0.0,0.0,0.0,0.0,0.0,0.0,0.0,0.0,0.0,0.0,0.0,0.0,0.0,0.0,0.0,0.0,0.0,0.0,0.0,0.0,0.0,0.0,0.0,0.0,0.0,0.0,0.0,0.0,0.0,0.0,0.0,0.0,0.0,0.0,0.0,0.0,0.0,0.0,0.0,0.0,0.0,0.0,0.0,0.0,0.0,0.0,0.0,0.0,0.0,0.0,0.0,0.0,0.0,0.0,0.0,0.0,0.0,0.0,0.0,0.0,0.0,0.0,0.0,0.0,0.0,0.0,0.0,0.0,0.0,0.0,0.0,0.0,0.0,0.0,0.0,0.0,0.0,0.0,0.0,0.0,0.0,0.0,0.0,0.0,0.0,0.0,0.0,0.0,0.0,0.0,0.0,0.0,0.0,0.0,0.0,0.0,0.0,0.0,0.0,0.0,0.0,0.0,0.0,0.0,0.0,0.0,0.0,0.0,0.0,0.0,0.0,0.0,0.0,0.0,0.0,0.0,0.0,0.0,0.0,0.0,0.0,0.0,0.0,0.0,0.0,0.0,0.0,0.0,0.0,0.0,0.0,0.0,0.0,0.0,0.0,0.0,0.0,0.0,0.0,0.0,0.0,0.0,0.0,0.0,0.0,0.0,0.0,0.0,0.0,0.0,0.0,0.0,0.0,0.0,0.0,0.0,0.0,0.0,0.0,0.0,0.0,0.0,0.0,0.0,0.0,0.0,0.0,0.0,0.0,0.0,0.0,0.0,0.0,0.0,0.0,0.0,0.0,0.0,0.0,0.0,0.0,0.0,0.0,0.0,0.0,0.0,0.0,0.0,0.0,0.0,0.0,0.0,0.0,0.0,0.0,0.0,0.0,0.0,0.0,0.0,0.0,0.0,0.0,0.0,0.0,0.0,0.0,0.0,0.0,0.0,0.0,0.0,0.0,0.0,0.0,0.0,0.0,0.0,0.0,0.0,0.0,0.0,0.0,0.0,0.0,0.0,0.0,0.0,0.0,0.0,0.0,0.0,0.0,0.0,0.0,0.0,0.0,0.0,0.0,0.0,0.0,0.0,0.0,0.0,0.0,0.0,0.0,0.0,0.0,0.0,0.0,0.0,0.0,0.0,0.0,0.0,0.0,0.0,0.0,0.0,0.0,0.0,0.0,0.0,0.0,0.0,0.0,0.0,0.0,0.0,0.0,0.0,0.0,0.0,0.0,0.0,0.0,0.0,0.0,0.0,0.0,0.0,0.0,0.0,0.0,0.0,0.0,0.0,0.0,0.0,0.0,0.0,0.0,0.0,0.0,0.0,0.0,0.0,0.0,0.0,0.0,0.0,0.0,0.0,0.0,0.0,0.0,0.0,0.0,0.0,0.0,0.0,0.0,0.0,0.0,0.0,0.0,0.0,0.0,0.0,0.0,0.0,0.0,0.0,0.0,0.0,0.0,0.0,0.0,0.0,0.0,0.0,0.0,0.0,0.0,0.0,0.0,0.0,0.0,0.0,0.0,0.0,0.0,0.0,0.0,0.0,0.0,0.0,0.0,0.0,0.0,0.0,0.0,0.0,0.0,0.0,0.0,0.0,0.0,0.0,0.0,0.0,0.0,0.0,0.0,0.0,0.0,0.0,0.0,0.0,0.0,0.0,0.0,0.0,0.0,0.0,0.0,0.0,0.0,0.0,0.0,0.0,0.0,0.0,0.0,0.0,0.0,0.0,0.0,0.0,0.0,0.0,0.0,0.0,0.0,0.0,0.0,0.0,0.0,0.0,0.0,0.0,0.0,0.0,0.0,0.0,0.0,0.0,0.0,0.0,0.0,0.0,0.0,0.0,0.0,0.0,0.0,0.0,0.0,0.0,0.0,0.0,0.0,0.0,0.0,0.0,0.0,0.0,0.0,0.0,0.0,0.0,0.0,0.0,0.0,0.0,0.0,0.0,0.0,0.0,0.0,0.0,0.0,0.0,0.0,0.0,0.0,0.0,0.0,0.0,0.0,0.0,0.0,0.0,0.0,0.0,0.0,0.0,0.0,0.0,0.0,0.0,0.0,0.0,0.0,0.0,0.0,0.0,0.0,0.0,0.0,0.0,0.0,0.0,0.0,0.0,0.0,0.0,0.0,0.0,0.0,0.0,0.0,0.0,0.0,0.0,0.0,0.0,0.0,0.0,0.0,0.0,0.0,0.0,0.0,0.0,0.0,0.0,0.0,0.0,0.0,0.0,0.0,0.0,0.0,0.0,0.0,0.0,0.0,0.0,0.0,0.0,0.0,0.0,0.0,0.0,0.0,0.0,0.0,0.0,0.0,0.0,0.0,0.0,0.0,0.0,0.0,0.0,0.0,0.0,0.0,0.0,0.0,0.0,0.0,0.0,0.0,0.0,0.0,0.0,0.0,0.0,0.0,0.0,0.0,0.0,0.0,0.0,0.0,0.0,0.0,0.0,0.0,0.0,0.0,0.0,0.0,0.0,0.0,0.0,0.0,0.0,0.0,0.0,0.0,0.0,0.0,0.0,0.0,0.0,0.0,0.0,0.0,0.0,0.0,0.0,0.0,0.0,0.0,0.0,0.0,0.0,0.0,0.0,0.0,0.0,0.0,0.0,0.0,0.0,0.0,0.0,0.0,0.0,0.0,0.0,0.0,0.0,0.0,0.0,0.0,0.0,0.0,0.0,0.0,0.0,0.0,0.0,0.0,0.0,0.0,0.0,0.0,0.0,0.0,0.0,0.0,0.0,0.0,0.0,0.0,0.0,0.0,0.0,0.0,0.0,0.0,0.0,0.0,0.0,0.0,0.0,0.0,0.0,0.0,0.0,0.0,0.0,0.0,0.0,0.0,0.0,0.0,0.0,0.0,0.0,0.0,0.0,0.0,0.0,0.0,0.0,0.0,0.0,0.0,0.0,0.0,0.0,0.0,0.0,0.0,0.0,0.0,0.0,0.0,0.0,0.0,0.0,0.0,0.0,0.0,0.0,0.0,0.0,0.0,0.0,0.0,0.0,0.0,0.0,0.0,0.0,0.0,0.0,0.0,0.0,0.0,0.0,0.0,0.0,0.0,0.0,0.0,0.0,0.0,0.0,0.0,0.0,0.0,0.0,0.0,0.0,0.0,0.0,0.0,0.0,0.0,0.0,0.0,0.0,0.0,0.0,0.0,0.0,0.0,0.0,0.0,0.0,0.0,0.0,0.0,0.0,0.0,0.0,0.0,0.0,0.0,0.0,0.0,0.0,0.0,0.0,0.0,0.0,0.0,0.0,0.0,0.0,0.0,0.0,0.0,0.0,0.0,0.0,0.0,0.0,0.0,0.0,0.0,0.0,0.0,0.0,0.0,0.0,0.0,0.0,0.0,0.0,0.0,0.0,0.0,0.0,0.0,0.0,0.0,0.0,0.0,0.0,0.0,0.0,0.0,0.0,0.0,0.0,0.0,0.0,0.0,0.0,0.0,0.0,0.0,0.0,0.0,0.0,0.0,0.0,0.0,0.0,0.0,0.0,-2.5216,-2.6044,0.0,0.0,0.0,0.0,0.0,0.0,0.0,0.0,0.0,0.0,0.0,0.0,0.0,0.0,0.0,0.0,0.0,0.0,0.0,0.0,0.0,0.0,0.0,0.0,0.0,0.0,0.0,0.0,0.0,0.0,0.0,0.0,0.0,0.0,0.0,0.0,0.0,0.0,0.0,0.0,0.0,0.0,0.0,0.0,0.0,0.0,0.0,0.0,0.0,0.0,0.0,0.0,0.0,0.0,0.0,0.0,0.0,0.0,0.0,0.0,0.0,0.0,0.0,0.0,0.0,0.0,0.0,0.0,0.0,0.0,0.0,0.0,0.0,0.0,0.0,0.0,0.0,0.0,0.0,0.0,0.0,0.0,0.0,0.0,0.0,0.0,0.0,0.0,0.0,0.0,0.0,0.0,0.0,0.0,0.0,0.0,0.0,0.0,0.0,0.0,0.0,0.0,0.0,0.0,0.0,0.0,0.0,0.0,0.0,0.0,0.0,0.0,0.0,0.0,-2.4638,-2.4527,0.0,0.0,0.0,0.0,0.0,0.0,0.0,0.0,0.0,0.0,0.0,0.0,0.0,0.0,0.0,0.0,0.0,0.0,0.0,0.0,0.0,0.0,0.0,0.0,0.0,0.0,0.0,0.0,0.0,0.0,0.0,0.0,0.0,0.0,0.0,0.0,0.0,0.0,0.0,0.0,0.0,0.0,0.0,0.0,0.0,0.0,0.0,0.0,0.0,0.0,0.0,0.0,0.0,0.0,0.0,0.0,0.0,0.0,0.0,0.0,0.0,0.0,0.0,0.0,0.0,0.0,0.0,0.0,0.0,0.0,0.0,0.0,0.0,0.0,0.0,0.0,0.0,0.0,0.0,0.0,0.0,0.0,0.0,0.0,0.0,0.0,0.0,0.0,0.0,0.0,0.0,0.0,0.0,0.0,0.0,0.0,0.0,0.0,0.0,0.0,0.0,0.0,0.0,0.0,0.0,0.0,0.0,0.0,-2.7451,-2.7395,-2.7395,-2.709,-2.6126,-2.4606,-2.3813,-2.2802,-2.1857,-2.2902,0.0,0.0,0.0,0.0,0.0,0.0,0.0,0.0,0.0,0.0,0.0,0.0,0.0,0.0,0.0,0.0,0.0,0.0,0.0,0.0,0.0,0.0,0.0,0.0,0.0,0.0,0.0,0.0,0.0,0.0,0.0,0.0,0.0,0.0,0.0,0.0,0.0,0.0,0.0,0.0,0.0,0.0,0.0,0.0,0.0,0.0,0.0,0.0,0.0,0.0,0.0,0.0,0.0,0.0,0.0,0.0,0.0,0.0,0.0,0.0,0.0,0.0,0.0,0.0,0.0,0.0,0.0,0.0,0.0,0.0,0.0,0.0,0.0,0.0,0.0,0.0,0.0,0.0,0.0,0.0,0.0,0.0,0.0,0.0,0.0,0.0,-2.4164,-2.4546,0.0,0.0,0.0,0.0,0.0,0.0,0.0,0.0,0.0,0.0,0.0,0.0,0.0,-2.786,-2.7776,-2.7214,-2.6933,-2.6933,-2.6133,-2.5785,-2.5729,-2.4328,-2.3564,-2.3258,-2.1318,0.0,-2.2596,-2.073,0.0,0.0,0.0,0.0,0.0,0.0,0.0,0.0,0.0,0.0,0.0,0.0,0.0,0.0,0.0,0.0,0.0,0.0,0.0,0.0,0.0,0.0,0.0,0.0,0.0,0.0,0.0,0.0,0.0,0.0,0.0,0.0,0.0,0.0,0.0,0.0,0.0,0.0,0.0,0.0,0.0,0.0,0.0,0.0,0.0,0.0,0.0,0.0,0.0,0.0,0.0,0.0,0.0,0.0,0.0,0.0,0.0,0.0,0.0,0.0,0.0,0.0,0.0,0.0,0.0,0.0,0.0,0.0,0.0,0.0,0.0,0.0,0.0,0.0,0.0,0.0,0.0,0.0,0.0,0.0,0.0,0.0,0.0,0.0,0.0,-2.5004,-2.589,-2.6173,-2.6817,-2.728,0.0,0.0,0.0,0.0,0.0,0.0,0.0,0.0,0.0,-2.7141,-2.7171,-2.7074,-2.6722,-2.6288,-2.605,-2.6036,-2.5549,-2.5131,-2.4778,-2.4163,-2.3433,-2.2591,-2.0995,-2.076,-2.1415,-2.0286,-2.0109,-2.0569,0.0,0.0,0.0,0.0,-1.9987,-1.9655,0.0,0.0,0.0,0.0,0.0,0.0,0.0,0.0,0.0,0.0,0.0,0.0,0.0,0.0,0.0,0.0,0.0,0.0,0.0,0.0,0.0,0.0,0.0,0.0,0.0,0.0,0.0,0.0,0.0,0.0,0.0,0.0,0.0,0.0,0.0,0.0,0.0,0.0,0.0,0.0,0.0,0.0,0.0,0.0,0.0,0.0,0.0,0.0,0.0,0.0,0.0,0.0,0.0,0.0,0.0,0.0,0.0,0.0,0.0,0.0,0.0,0.0,0.0,0.0,0.0,0.0,0.0,0.0,0.0,0.0,0.0,0.0,0.0,0.0,0.0,0.0,0.0,-2.5671,-2.6582,-2.6997,-2.6878,-2.6934,0.0,0.0,0.0,0.0,0.0,0.0,-2.7086,-2.7335,-2.7127,-2.6328,-2.6357,-2.612,-2.5674,-2.5481,-2.5383,-2.5425,-2.5188,-2.4765,-2.4176,-2.4034,-2.3242,-2.198,-2.0748,-2.0182,-2.0125,-1.9805,-1.9543,-1.9332,-2.0181,-2.0016,-1.9335,-1.9399,-1.9224,-1.8711,0.0,0.0,0.0,0.0,0.0,0.0,0.0,0.0,0.0,0.0,0.0,0.0,0.0,0.0,0.0,0.0,0.0,0.0,0.0,0.0,0.0,0.0,0.0,0.0,0.0,0.0,0.0,0.0,0.0,0.0,0.0,0.0,0.0,0.0,0.0,0.0,0.0,0.0,0.0,0.0,0.0,0.0,0.0,0.0,0.0,0.0,0.0,0.0,0.0,0.0,0.0,0.0,0.0,0.0,0.0,0.0,0.0,0.0,0.0,0.0,0.0,0.0,0.0,0.0,0.0,0.0,0.0,0.0,0.0,0.0,0.0,0.0,0.0,0.0,0.0,0.0,0.0,0.0,0.0,-2.5636,-2.481,0.0,0.0,0.0,0.0,-2.6518,-2.7023,-2.6941,-2.6027,-2.6277,-2.6187,-2.5564,-2.5229,-2.5102,-2.5061,-2.5005,-2.5061,-2.523,-2.4948,-2.4478,-2.38,-2.2822,-2.2039,-2.1393,-1.9826,-1.9287,-1.9361,-1.8407,-1.8691,-1.9608,-1.9172,-1.8986,-1.8933,-1.8478,-1.793,-1.7259,0.0,0.0,0.0,0.0,0.0,0.0,0.0,0.0,0.0,0.0,0.0,0.0,0.0,0.0,0.0,0.0,0.0,0.0,0.0,0.0,0.0,0.0,0.0,0.0,0.0,0.0,0.0,0.0,0.0,0.0,0.0,0.0,0.0,0.0,0.0,0.0,0.0,0.0,0.0,0.0,0.0,0.0,0.0,0.0,0.0,0.0,0.0,0.0,0.0,0.0,0.0,0.0,0.0,0.0,0.0,0.0,0.0,0.0,0.0,0.0,0.0,0.0,0.0,0.0,0.0,0.0,0.0,0.0,0.0,0.0,0.0,0.0,0.0,0.0,0.0,0.0,0.0,0.0,0.0,-2.5279,-2.4985,0.0,-2.5932,-2.6035,-2.6061,-2.6121,-2.612,-2.5962,-2.5445,-2.5685,-2.5645,-2.5313,-2.5313,-2.5313,-2.5313,-2.5018,-2.4892,-2.4948,-2.4292,-2.3695,-2.3015,-2.2408,-2.1625,-2.0692,-1.9798,-1.933,-1.9114,-1.7947,-1.7935,-1.8611,-1.8003,-1.7878,-1.7966,-1.7266,-1.6916,-1.6723,0.0,0.0,0.0,0.0,0.0,0.0,0.0,0.0,0.0,0.0,0.0,0.0,0.0,0.0,0.0,0.0,0.0,0.0,0.0,0.0,0.0,0.0,0.0,0.0,0.0,0.0,0.0,0.0,0.0,0.0,0.0,0.0,0.0,0.0,0.0,0.0,0.0,0.0,0.0,0.0,0.0,0.0,-0.9982,0.0,0.0,0.0,0.0,0.0,0.0,0.0,0.0,0.0,0.0,0.0,0.0,0.0,0.0,0.0,0.0,0.0,0.0,0.0,0.0,0.0,0.0,0.0,0.0,0.0,0.0,0.0,0.0,0.0,0.0,0.0,0.0,0.0,0.0,-2.5373,-2.5103,-2.537,-2.4935,-2.5004,-2.59,-2.5673,-2.5513,-2.5571,-2.5433,-2.5244,-2.5118,-2.5244,-2.5257,-2.5061,-2.5131,-2.5145,-2.5075,-2.4848,-2.4778,-2.4778,-2.4047,-2.3327,-2.2652,-2.2237,-2.1407,-2.0327,-1.9801,-1.9228,-1.8692,-1.7645,-1.728,-1.7388,-1.7036,-1.6877,-1.6786,-1.6265,-1.6036,-1.5884,0.0,0.0,0.0,0.0,0.0,0.0,0.0,0.0,0.0,0.0,0.0,0.0,0.0,0.0,0.0,0.0,0.0,0.0,0.0,0.0,0.0,0.0,0.0,0.0,0.0,0.0,0.0,0.0,0.0,0.0,0.0,0.0,0.0,0.0,0.0,0.0,0.0,0.0,0.0,0.0,0.0,0.0,-0.9121,0.0,0.0,0.0,0.0,0.0,0.0,0.0,0.0,0.0,0.0,0.0,0.0,0.0,0.0,0.0,0.0,0.0,0.0,0.0,0.0,0.0,0.0,0.0,0.0,0.0,0.0,0.0,0.0,0.0,0.0,0.0,0.0,0.0,-2.4534,-2.4719,-2.5001,-2.5808,-2.4559,-2.4223,-2.5729,-2.5083,-2.4734,-2.4948,-2.5005,-2.5005,-2.5005,-2.5005,-2.4948,-2.4778,-2.4677,-2.4549,-2.435,-2.4492,-2.4677,-2.4778,-2.4105,-2.3433,-2.2761,-2.2175,-2.1233,-2.0143,-1.9621,-1.8935,-1.8143,-1.7455,-1.6753,-1.6126,-1.6248,-1.5968,-1.5575,-1.5594,-1.5177,-1.4656,0.0,0.0,0.0,0.0,0.0,0.0,0.0,0.0,0.0,0.0,0.0,0.0,0.0,0.0,0.0,0.0,0.0,0.0,0.0,0.0,0.0,0.0,0.0,0.0,0.0,0.0,0.0,0.0,0.0,0.0,0.0,0.0,0.0,0.0,0.0,0.0,0.0,0.0,0.0,0.0,0.0,0.0,-0.8583,0.0,0.0,0.0,0.0,0.0,0.0,0.0,0.0,0.0,0.0,0.0,0.0,0.0,0.0,0.0,0.0,0.0,0.0,0.0,0.0,0.0,0.0,0.0,0.0,0.0,0.0,0.0,0.0,0.0,0.0,0.0,-2.3379,-2.3773,-2.4489,-2.3827,-2.3478,-2.4172,-2.4315,-2.4429,-2.4704,-2.4815,-2.4892,-2.4835,-2.4948,-2.5005,-2.5005,-2.5005,-2.5005,-2.4948,-2.4892,-2.4835,-2.4821,-2.4778,-2.4734,-2.4664,-2.3636,-2.2907,-2.2482,-2.1702,-2.0862,-1.9897,-1.983,-1.9091,-1.7901,-1.6841,-1.6216,-1.592,-1.5708,-1.5501,-1.5263,-1.4906,-1.4784,-1.4715,0.0,0.0,0.0,0.0,0.0,0.0,0.0,0.0,0.0,0.0,0.0,0.0,0.0,0.0,0.0,0.0,0.0,0.0,0.0,0.0,0.0,0.0,0.0,0.0,0.0,0.0,0.0,0.0,0.0,0.0,0.0,0.0,0.0,0.0,0.0,0.0,0.0,0.0,0.0,0.0,0.0,0.0,-0.7343,-0.7324,-0.744,-0.7622,-0.7898,-0.8004,-0.8045,-0.8053,0.0,0.0,0.0,0.0,0.0,0.0,0.0,0.0,0.0,0.0,0.0,0.0,0.0,0.0,0.0,0.0,0.0,0.0,0.0,0.0,0.0,0.0,0.0,0.0,-2.25,-2.2922,-2.3475,-2.3428,-2.3446,-2.3872,-2.4363,-2.4664,-2.4593,-2.4593,-2.4593,-2.4593,-2.435,-2.4221,-2.4221,-2.4221,-2.4176,-2.4105,-2.4163,-2.4176,-2.4105,-2.4118,-2.3989,-2.3813,-2.2919,-2.231,-2.2051,-2.1336,-2.0359,-1.9276,-1.9287,-1.848,-1.6968,-1.6035,-1.5517,-1.5318,0.0,0.0,0.0,0.0,-1.4606,-1.4715,0.0,0.0,0.0,0.0,0.0,0.0,0.0,0.0,0.0,0.0,0.0,0.0,0.0,0.0,0.0,0.0,0.0,0.0,0.0,0.0,0.0,0.0,0.0,0.0,0.0,0.0,0.0,0.0,0.0,0.0,0.0,0.0,0.0,0.0,0.0,0.0,0.0,0.0,0.0,0.0,0.0,0.0,-0.5836,-0.6396,-0.6668,-0.6854,-0.7037,-0.7318,-0.7594,-0.753,0.0,0.0,0.0,0.0,0.0,0.0,0.0,0.0,0.0,0.0,0.0,0.0,0.0,0.0,0.0,0.0,0.0,0.0,0.0,0.0,0.0,0.0,0.0,0.0,-2.1426,-2.1463,-2.199,-2.3267,-2.4118,-2.4118,-2.4421,-2.4593,-2.4708,-2.4292,-2.4002,-2.4105,-2.3505,-2.3088,-2.3088,-2.3088,0.0,0.0,0.0,-2.3027,-2.2919,-2.3027,-2.3015,-2.2822,-2.2237,-2.1815,-2.1553,-2.0892,-1.9857,-1.8544,-1.8423,-1.741,-1.5833,-1.5219,-1.4743,-1.4494,-1.4204,-1.4361,-1.4656,-1.4715,-1.4715,-1.4775,0.0,0.0,0.0,0.0,0.0,0.0,0.0,0.0,0.0,0.0,0.0,0.0,0.0,0.0,0.0,0.0,0.0,0.0,0.0,0.0,0.0,0.0,0.0,0.0,0.0,0.0,0.0,0.0,0.0,0.0,0.0,0.0,0.0,0.0,0.0,0.0,0.0,0.0,0.0,0.0,0.0,0.0,-0.5328,-0.4907,-0.4984,-0.5199,-0.4262,-0.4667,-0.5367,-0.4317,-0.4974,-0.6083,-0.5405,0.0,0.0,0.0,0.0,0.0,0.0,0.0,0.0,0.0,0.0,0.0,0.0,0.0,0.0,0.0,0.0,0.0,0.0,0.0,0.0,-2.1807,-2.1917,-2.1939,-2.1939,-2.2677,-2.316,-2.316,-2.322,-2.3207,-2.3088,-2.3207,-2.3267,-2.316,-2.3148,-2.3088,-2.3088,-2.3088,-2.3088,-2.3088,-2.3088,-2.3088,-2.3088,-2.3088,-2.3027,-2.2859,-2.2298,0.0,-2.1553,-2.0462,-1.9487,-1.8643,-1.7903,-1.6839,-1.5611,-1.4944,-1.4375,-1.3881,-1.4045,-1.4255,-1.4565,-1.4852,-1.497,-1.4911,0.0,0.0,0.0,0.0,0.0,0.0,0.0,0.0,0.0,0.0,0.0,0.0,0.0,0.0,0.0,0.0,0.0,0.0,0.0,0.0,0.0,0.0,0.0,0.0,0.0,0.0,0.0,0.0,0.0,0.0,0.0,0.0,0.0,0.0,0.0,0.0,0.0,0.0,0.0,0.0,0.0,0.0,-0.2938,-0.3073,-0.3223,-0.3301,-0.2613,-0.2875,-0.357,-0.3845,-0.408,-0.4357,-0.4664,-0.5316,-0.6091,0.0,0.0,0.0,0.0,0.0,0.0,0.0,0.0,0.0,0.0,0.0,0.0,0.0,0.0,-2.0978,-2.0908,0.0,-2.1572,-2.1583,-2.1637,-2.1639,-2.1588,-2.1827,-2.2187,-2.2665,-2.2859,-2.2919,-2.2847,-2.2713,-2.2652,-2.2725,-2.2372,-2.2187,-2.2237,-2.2187,-2.2125,-2.2125,-2.2125,-2.2125,-2.2125,-2.2125,-2.2063,-2.1877,-2.1227,-2.0858,-2.0549,-1.9617,-1.8656,-1.7667,-1.7234,-1.6307,-1.5086,-1.4443,-1.3959,-1.3579,-1.3674,-1.4069,-1.4616,-1.4616,-1.4666,-1.4725,0.0,0.0,0.0,0.0,0.0,0.0,0.0,0.0,0.0,0.0,0.0,0.0,0.0,0.0,0.0,0.0,0.0,0.0,0.0,0.0,0.0,0.0,0.0,0.0,0.0,0.0,0.0,0.0,0.0,0.0,0.0,0.0,0.0,0.0,0.0,0.0,0.0,0.0,0.0,0.0,0.0,0.0,-0.0308,-0.1109,-0.1661,-0.1885,-0.1384,-0.1396,-0.189,-0.3305,-0.322,-0.2614,-0.3797,-0.4212,-0.4264,-0.4604,-0.5548,0.0,0.0,0.0,0.0,0.0,0.0,0.0,0.0,-1.5498,-1.6647,-1.6977,-1.8696,-2.0143,-2.0074,-2.0708,-2.1303,-2.1227,-2.1221,-2.1221,-2.1221,-2.1221,-2.1526,-2.2237,-2.2494,-2.2616,-2.2725,-2.2298,-2.2051,-2.2298,-2.1714,-2.1348,-2.1336,-2.1273,-2.1158,-2.1031,-2.1031,-2.0967,-2.0828,-2.0764,-2.07,-2.0506,-1.9911,-1.9584,-1.9528,-1.8777,-1.7869,-1.686,-1.649,-1.5692,-1.4528,-1.3997,-1.3645,-1.3469,-1.3305,-1.3743,-1.4478,-1.4249,-1.424,-1.4291,0.0,0.0,0.0,0.0,0.0,0.0,0.0,0.0,0.0,0.0,0.0,0.0,0.0,0.0,0.0,0.0,0.0,0.0,0.0,0.0,0.0,0.0,0.0,0.0,0.0,0.0,0.0,0.0,0.0,0.0,0.0,0.0,0.0,0.0,0.0,0.0,0.0,0.0,0.0,0.0,0.0,0.0,0.0803,0.0679,-0.0448,-0.189,-0.0416,-0.007,-0.014,0.0281,-0.0427,-0.1437,-0.1238,-0.2065,-0.3218,-0.3661,0.0,-0.5835,-0.7003,-0.8903,-1.0507,-1.0434,-1.2274,-1.3986,0.0,-1.5104,-1.6592,-1.64,-1.7507,-1.8649,-1.9307,-1.9867,-2.0497,-2.1106,-2.1221,-2.1221,-2.1221,-2.1273,-2.14,-2.1336,-2.1411,-2.1411,-2.14,-2.1451,-2.1451,-2.1336,-2.1561,-2.1498,-2.1221,-2.1336,-2.1071,-2.0495,-2.0302,-1.9966,-1.9497,-1.9375,-1.9243,-1.9243,-1.911,-1.9177,-1.9309,-1.8442,-1.7829,-1.7437,-1.5802,-1.4764,-1.4121,-1.3699,-1.3627,-1.3729,-1.3228,-1.339,-1.389,-1.389,-1.389,-1.383,0.0,0.0,0.0,0.0,0.0,0.0,0.0,0.0,0.0,0.0,0.0,0.0,0.0,0.0,0.0,0.0,0.0,0.0,0.0,0.0,0.0,0.0,0.0,0.0,0.0,0.0,0.0,0.0,0.0,0.0,0.0,0.0,0.0,0.0,0.0,0.0,0.0,0.0,0.0,0.0,0.0,0.0,0.1078,0.1205,0.0591,-0.0207,0.007,0.035,0.0,0.0,0.0635,0.0142,0.0277,-0.0924,-0.2513,-0.2816,-0.4261,0.0,-0.7617,-0.8811,-0.9759,-1.0918,-1.1998,-1.2906,-1.3386,-1.4368,-1.5343,-1.5854,-1.6983,-1.7945,-1.8402,-1.9383,-2.0237,-2.07,-2.1031,-2.1221,-2.1221,-2.1336,-2.1388,-2.1336,-2.1336,-2.1273,-2.1221,-2.1423,-2.1561,-2.1498,-2.1486,-2.1336,-2.0869,-2.0816,-2.0484,-1.9759,-1.9704,-1.9507,-1.9299,-1.91,-1.8977,-1.8977,-1.871,-1.8576,-1.8643,-1.7988,-1.7149,-1.6147,-1.4602,-1.3756,-1.343,-1.2789,-1.2687,-1.287,-1.2602,-1.2605,-1.285,-1.3147,-1.3329,-1.3459,0.0,0.0,0.0,0.0,0.0,0.0,0.0,0.0,0.0,0.0,0.0,0.0,0.0,0.0,0.0,0.0,0.0,0.0,0.0,0.0,0.0,0.0,0.0,0.0,0.0,0.0,0.0,0.0,0.0,0.0,0.0,0.0,0.0,0.0,0.0,0.0,0.0,0.0,0.0,0.0,0.0,0.0,0.1099,0.1239,0.1212,0.1051,0.063,0.0563,0.0,0.0,0.0992,0.1134,0.1134,0.0072,-0.1181,-0.1575,-0.3609,-0.6103,-0.7483,-0.837,-0.9206,-1.0801,-1.1708,-1.2492,-1.3323,-1.4096,-1.4786,-1.5468,-1.658,-1.7519,-1.7905,-1.8892,-1.9704,-2.0107,-2.0506,-2.0775,-2.0775,-2.088,-2.0944,-2.088,-2.1008,-2.0944,-2.0775,-2.1308,-2.1635,-2.1371,-2.1336,-2.0996,-2.0344,-2.0291,-1.9901,-1.91,-1.9034,-1.8911,-1.87,-1.8509,-1.8442,-1.8442,-1.7833,-1.756,-1.7696,-1.7157,-1.6285,-1.5006,-1.3853,-1.3275,-1.3048,-1.2166,-1.2067,-1.2482,-1.212,-1.212,-1.2251,-1.2544,-1.285,-1.3033,0.0,0.0,0.0,0.0,0.0,0.0,0.0,0.0,0.0,0.0,0.0,0.0,0.0,0.0,0.0,0.0,0.0,0.0,0.0,0.0,0.0,0.0,0.0,0.0,0.0,0.0,0.0,0.0,0.0,0.0,0.0,0.0,0.0,0.0,0.0,0.0,0.0,0.0,0.0,0.0,0.0,0.0,0.0972,0.1,0.1028,0.1121,0.1471,0.0,0.0,0.0,0.08,0.1092,0.1092,0.1038,0.0,0.0529,-0.2529,-0.5767,-0.577,-0.7397,-0.8995,-0.9087,-1.1113,-1.3185,-1.3178,-1.4386,-1.5438,-1.55,-1.6228,-1.7157,-1.8027,-1.824,-1.8586,-1.9473,-1.9671,-1.9671,-1.9671,-1.9781,-1.9781,-1.9671,-1.9911,-1.9977,-1.9671,-2.0914,-2.1371,-2.0495,-2.088,-2.0688,-1.9671,-1.9726,-1.9441,-1.8576,-1.8307,-1.791,-1.7304,-1.7038,-1.6968,-1.6968,-1.6184,-1.6035,-1.6376,-1.5816,-1.5257,-1.4677,-1.3925,-1.352,-1.3391,-1.2257,-1.2291,-1.2887,-1.2104,-1.212,-1.2567,-1.239,-1.2452,-1.2621,0.0,0.0,0.0,0.0,0.0,0.0,0.0,0.0,0.0,0.0,0.0,0.0,0.0,0.0,0.0,0.0,0.0,0.0,0.0,0.0,0.0,0.0,0.0,0.0,0.0,0.0,0.0,0.0,0.0,0.0,0.0,0.0,0.0,0.0,0.0,0.0,0.0,0.0,0.0,0.0,0.0,0.0,0.1849,0.2179,0.1805,0.1107,0.0,0.0,0.0,0.0,0.0,0.1122,0.1122,0.1128,0.0987,0.0385,-0.2455,-0.5409,-0.5722,-0.6996,-0.8471,-0.9466,-1.0706,-1.1853,-1.2663,-1.3531,-1.425,-1.4617,-1.5665,-1.6705,-1.7053,-1.7961,-1.8745,-1.9178,-1.9473,-1.9605,-1.9605,-1.9726,-1.9781,-1.9715,-1.9846,-1.9846,-1.9715,-2.0302,-2.0431,-2.0042,-2.0161,-1.9901,-1.911,-1.8977,-1.8643,-1.7969,-1.7784,-1.7442,-1.6821,-1.6603,-1.6254,-1.5771,-1.5488,-1.5551,-1.5737,-1.4792,-1.4158,-1.3774,-1.2679,-1.2126,-1.2019,-1.1456,-1.1616,-1.205,-1.1996,-1.212,-1.2313,-1.2444,-1.2567,-1.2621,0.0,0.0,0.0,0.0,0.0,0.0,0.0,0.0,0.0,0.0,0.0,0.0,0.0,0.0,0.0,0.0,0.0,0.0,0.0,0.0,0.0,0.0,0.0,0.0,0.0,0.0,0.0,0.0,0.0,0.0,0.0,0.0,0.0,0.0,0.0,0.0,0.0,0.0,0.0,0.0,0.0,0.0,0.2353,0.2485,0.2164,0.0,0.0,0.0,0.0,0.0,0.0,0.0691,0.0691,0.0691,0.0615,0.0154,-0.1983,-0.4502,-0.5514,-0.675,-0.7976,-0.9018,-1.0084,-1.0963,-1.1724,-1.2721,-1.3571,-1.3818,-1.4848,-1.5931,-1.6503,-1.7268,-1.8056,-1.8818,-1.8993,-1.911,-1.911,-1.9168,-1.9163,-1.9142,-1.911,-1.911,-1.9121,-1.9253,-1.9386,-1.9452,-1.9518,-1.9243,-1.8576,-1.8162,-1.7755,-1.7295,-1.695,-1.6542,-1.6114,-1.5965,-1.5542,-1.484,-1.479,-1.4646,-1.4481,-1.38,-1.3344,-1.3089,-1.1772,-1.1243,-1.1247,-1.0583,-1.059,-1.1045,-1.1212,-1.1432,-1.1527,-1.1764,-1.1856,-1.1919,0.0,0.0,0.0,0.0,0.0,0.0,0.0,0.0,0.0,0.0,0.0,0.0,0.0,0.0,0.0,0.0,0.0,0.0,0.0,0.0,0.0,0.0,0.0,0.0,0.0,0.0,0.0,0.0,0.0,0.0,0.0,0.0,0.0,0.0,0.0,0.0,0.0,0.0,0.0,0.0,0.0,0.0,0.2707,0.2025,0.0,0.0,0.0,0.0,0.0,0.0,0.0,-0.0,-0.0,-0.0,-0.0,-0.0228,-0.1429,-0.3122,-0.5099,-0.6445,-0.7351,-0.7792,-0.9302,-1.0592,-1.0345,-1.1908,-1.3273,-1.2968,-1.3805,-1.4944,-1.6242,-1.6243,-1.6599,-1.833,-1.8332,-1.8119,-1.826,-1.819,-1.8037,-1.7988,-1.7862,-1.7784,-1.8008,-1.8008,-1.8212,-1.8674,-1.8854,-1.8654,-1.8008,-1.7295,-1.6802,-1.6533,-1.5886,-1.5401,-1.5196,-1.5133,-1.4776,-1.4057,-1.3948,-1.3437,-1.2635,-1.2741,-1.2721,-1.2602,-1.1205,-1.0853,-1.1091,-0.9637,-0.9395,-0.9952,-0.9907,-1.0138,-1.0438,-1.0441,-1.0425,-1.069,0.0,0.0,0.0,0.0,0.0,0.0,0.0,0.0,0.0,0.0,0.0,0.0,0.0,0.0,0.0,0.0,0.0,0.0,0.0,0.0,0.0,0.0,0.0,0.0,0.0,0.0,0.0,0.0,0.0,0.0,0.0,0.0,0.0,0.0,0.0,0.0,0.0,0.0,0.0,0.0,0.0,0.0,0.3982,0.0,0.0,0.0,0.0,0.0,0.0,0.0,0.0,-0.0,-0.0,-0.0,-0.052,-0.3246,-0.3409,-0.3195,-0.5401,-0.6082,-0.6467,-0.7352,-0.813,-0.8727,-0.9214,-1.0417,-1.1429,-1.1358,-1.291,-1.4298,-1.468,-1.5788,-1.6875,-1.7461,-1.7807,-1.8105,-1.8301,-1.8164,-1.7997,-1.8027,-1.794,-1.794,-1.8008,-1.8008,-1.7862,-1.7423,-1.792,-1.792,-1.7217,-1.6881,-1.6455,-1.5956,-1.5675,-1.5251,-1.4752,-1.4201,-1.3775,-1.3411,-1.3397,-1.287,-1.1986,-1.184,-1.1512,-1.0923,-1.014,-0.9862,-0.9912,-0.9377,-0.9264,-0.95,-0.9755,-0.9926,-1.0127,-1.0137,-1.0255,-1.0472,0.0,0.0,0.0,0.0,0.0,0.0,0.0,0.0,0.0,0.0,0.0,0.0,0.0,0.0,0.0,0.0,0.0,0.0,0.0,0.0,0.0,0.0,0.0,0.0,0.0,0.0,0.0,0.0,0.0,0.0,0.0,0.0,0.0,0.0,0.0,0.0,0.0,0.0,0.0,0.0,0.0,0.0,0.0,0.0,0.0,0.0,0.0,0.0,0.0,0.0,0.0,-0.0,-0.0,-0.0222,-0.0886,-0.2889,-0.3401,-0.3552,-0.503,-0.5698,-0.6086,-0.6806,-0.7479,-0.8035,-0.8441,-0.9689,-1.0844,-1.0851,-1.2225,-1.3568,-1.4163,-1.5014,-1.6093,-1.7251,-1.7484,-1.7647,-1.7925,-1.7716,-1.7372,-1.7038,-1.695,-1.695,-1.695,-1.7019,-1.6802,-1.6376,-1.7079,-1.7157,-1.6446,-1.5956,-1.5604,-1.5242,-1.4832,-1.4474,-1.4122,-1.3702,-1.3419,-1.3346,-1.3201,-1.26,-1.1643,-1.1506,-1.1002,-1.0114,-0.9479,-0.9178,-0.9244,-0.8593,-0.843,-0.8613,-0.8748,-0.8941,-0.9111,-0.9223,-0.9334,-0.9449,0.0,0.0,0.0,0.0,0.0,0.0,0.0,0.0,0.0,0.0,0.0,0.0,0.0,0.0,0.0,0.0,0.0,0.0,0.0,0.0,0.0,0.0,0.0,0.0,0.0,0.0,0.0,0.0,0.0,0.0,0.0,0.0,0.0,0.0,0.0,0.0,0.0,0.0,0.0,0.0,0.0,0.0,0.0,0.0,0.0,0.0,0.0,0.0,0.0,0.0,0.0154,-0.0,-0.0,-0.0452,-0.097,-0.1066,-0.2378,-0.3961,-0.4456,-0.5226,-0.5954,-0.6288,-0.7082,-0.7763,-0.7836,-0.9276,-1.0701,-1.0785,-1.1807,-1.2903,-1.4,-1.4182,-1.4824,-1.7081,-1.7051,-1.6902,-1.727,-1.6973,-1.649,-1.578,-1.5604,-1.5604,-1.5675,-1.5745,-1.5675,-1.5525,-1.6228,-1.6306,-1.5604,-1.4958,-1.453,-1.4466,-1.384,-1.3492,-1.3492,-1.3492,-1.3492,-1.3492,-1.3091,-1.234,-1.1328,-1.1242,-1.062,-0.964,-0.8865,-0.8672,-0.8731,-0.7652,-0.74,-0.7596,-0.7596,-0.7727,-0.7982,-0.8021,-0.8142,-0.8207,0.0,0.0,0.0,0.0,0.0,0.0,0.0,0.0,0.0,0.0,0.4857,0.0,0.0,0.0,0.0,0.0,0.0,0.0,0.0,0.0,0.0,0.0,0.0,0.0,0.0,0.0,0.0,0.0,0.0,0.0,0.0,0.0,0.0,0.0,0.0,0.0,0.0,0.0,0.0,0.0,0.0,0.0,0.0,0.0,0.0,0.0,0.0,0.0,0.0,0.0,0.1171,-0.0,-0.0,-0.0073,-0.0292,-0.0917,-0.2165,-0.3539,-0.4517,-0.5352,-0.5954,-0.6288,-0.668,-0.6881,-0.695,-0.8433,0.0,-1.0058,-1.143,-1.2693,-1.311,-1.3805,-1.4521,-1.5289,-1.5677,-1.606,-1.6474,-1.6131,-1.5893,-1.5754,-1.5675,-1.5675,-1.5675,-1.5824,-1.5613,-1.4816,-1.5037,-1.5108,-1.4816,-1.4673,-1.4322,-1.3702,-1.3564,-1.3492,-1.3492,-1.3492,-1.3492,-1.3492,-1.2578,-1.1627,-1.0654,-0.9896,-0.9041,-0.8112,-0.7917,-0.7852,-0.7712,-0.733,-0.7204,-0.7269,-0.7269,-0.7466,-0.7772,-0.7838,-0.797,-0.8131,0.0,0.0,0.0,0.0,0.0,0.0,0.0,0.0,0.0,0.0,0.4854,0.5084,0.0,0.0,0.0,0.0,0.0,0.0,0.0,0.0,0.0,0.0,0.0,0.0,0.0,0.0,0.0,0.0,0.0,0.0,0.0,0.0,0.0,0.0,0.0,0.0,0.0,0.0,0.0,0.0,0.0,0.0,0.0,0.0,0.0,0.0,0.0,0.0,0.0,0.0,0.2116,-0.0,-0.0,-0.0147,-0.0362,-0.0917,-0.2234,-0.3606,-0.4118,-0.5209,-0.6217,-0.6487,-0.6619,-0.6802,-0.7345,0.0,0.0,-1.0302,-1.1758,-1.29,-1.29,-1.3331,-1.4038,-1.4855,-1.5088,-1.5309,-1.5796,-1.5518,-1.5108,-1.4617,-1.4553,-1.4625,-1.4697,-1.4697,-1.4561,-1.4201,-1.4201,-1.4129,-1.4049,-1.4049,-1.384,-1.3492,-1.3492,-1.3492,-1.3492,-1.2956,-1.272,-1.272,-1.17,-1.071,-0.9695,-0.9361,-0.865,-0.7731,-0.7731,-0.7661,-0.7596,-0.733,-0.7204,-0.7204,-0.7204,-0.7335,-0.7647,-0.7807,-0.8016,-0.8191,0.0,0.0,0.0,0.0,0.0,0.0,0.0,0.2131,0.2814,0.4495,0.4576,0.4503,0.4631,0.5223,0.5811,0.0,0.0,0.0,0.0,0.0,0.0,0.0,0.0,0.0,0.0,0.0,0.0,1.1608,0.0,0.0,0.0,0.0,0.0,0.0,0.7404,0.0,0.0,0.0,0.0,0.0,0.0,0.0,0.0,0.0,0.0,0.0,0.0,0.0,0.0,0.0,0.2823,0.0547,-0.0,-0.0376,-0.0736,-0.107,-0.2476,-0.3946,-0.3891,-0.517,-0.6533,-0.6737,-0.6773,-0.7024,-0.7819,-0.894,-1.0058,-1.0761,-1.2094,-1.3167,-1.3163,-1.3245,-1.3695,0.0,-1.4646,-1.461,-1.5043,-1.4838,-1.4423,-1.3572,-1.3492,-1.3572,-1.3797,-1.3645,-1.3645,-1.379,-1.3645,-1.3492,-1.3492,-1.3492,-1.3492,-1.3492,-1.3273,-1.3165,-1.3165,-1.2196,-1.1686,-1.168,-1.0635,-0.9781,-0.8974,-0.892,-0.8403,-0.7661,-0.7661,-0.7661,-0.7666,-0.7381,-0.7268,-0.7338,-0.7313,-0.7432,-0.7659,-0.7941,-0.8098,-0.8236,0.0,0.0,0.0,0.0,0.0,0.0,0.0,0.0328,0.0735,0.336,0.3694,0.3961,0.464,0.5226,0.5686,0.0,0.0,0.0,0.0,0.0,0.0,0.0,0.0,0.0,0.0,0.0,0.0,1.108,1.0358,0.0,0.0,0.0,0.0,0.0,0.0,0.6651,0.6971,0.0,0.0,0.0,0.0,0.0,0.0,0.0,0.0,0.0,0.0,0.0,0.0,0.0,0.0,0.2275,0.0157,-0.086,-0.1237,-0.1401,0.0,0.0,-0.4302,-0.5454,-0.6718,-0.6928,-0.7054,-0.7257,-0.7508,0.0,-1.0154,-1.1089,-1.2228,-1.3244,-1.3839,-1.3889,0.0,0.0,0.0,-1.4106,-1.4079,-1.4096,-1.397,-1.3528,-1.3492,-1.3572,-1.3797,-1.3797,-1.3797,-1.3797,-1.3645,-1.3492,-1.3492,-1.3492,-1.3492,-1.3492,-1.262,-1.2104,-1.2104,-1.1115,-1.0628,-1.0628,-0.9604,-0.9069,-0.8969,-0.8098,-0.7606,-0.7526,-0.7526,-0.7526,-0.754,-0.7472,-0.755,-0.7768,-0.7748,-0.784,-0.801,-0.816,-0.823,-0.8236,0.0,0.0,0.0,0.0,0.0,0.0,0.0,0.0267,0.1211,0.3303,0.2487,0.2214,0.3357,0.4023,0.4752,0.0,0.0,0.0,0.0,0.0,0.0,0.0,0.0,0.0,0.0,0.0,1.1365,1.0724,1.0155,0.0,0.0,0.0,0.0,0.0,0.0,0.7047,0.7044,0.0,0.0,0.0,0.0,0.0,0.0,0.0,0.0,0.0,0.0,0.0,0.0,0.0,0.0,0.0,0.0319,-0.0635,0.0,0.0,-0.3036,-0.4472,-0.432,-0.5611,-0.7044,-0.7155,-0.7304,-0.7625,-0.837,0.0,-1.0977,-1.1858,-1.3033,-1.3917,-1.3952,-1.3817,-1.388,0.0,0.0,-1.4159,-1.4309,-1.4223,-1.4088,-1.3806,-1.3763,-1.379,-1.3928,-1.3992,-1.3928,-1.379,-1.3645,-1.3492,-1.3492,-1.3046,-1.2746,-1.2746,-1.1788,-1.1274,-1.1274,-1.0307,-0.9765,-0.9765,-0.8764,-0.8248,-0.8238,-0.7753,-0.7526,-0.7601,-0.7792,-0.7778,-0.762,-0.7825,-0.7753,-0.7605,-0.7748,-0.7895,-0.8082,-0.8275,-0.8223,-0.8092,0.0,0.0,0.0,0.0,0.0,0.0,-0.1009,0.0135,0.1415,0.2696,0.1481,0.0807,0.1811,0.2614,0.3618,0.4951,0.0,0.0,0.0,0.0,0.0,0.0,0.0,0.0,0.0,0.0,1.0598,0.9907,0.9582,0.9005,0.0,0.0,0.7657,0.7265,0.0,0.0,0.0,0.0,0.0,0.0,0.0,0.0,0.0,0.0,0.0,0.0,0.0,0.0,0.0,0.0,0.0,0.0,0.0,0.0,0.0,0.0,-0.2903,-0.4033,-0.4472,-0.5708,-0.6989,-0.7319,-0.7495,-0.7837,-0.893,0.0,-1.151,-1.2466,-1.359,-1.4396,-1.4236,-1.409,-1.3999,0.0,-1.4153,-1.4273,-1.45,-1.4387,-1.4281,-1.4128,-1.4074,-1.4044,-1.4217,-1.4191,-1.3992,-1.379,-1.3645,-1.3419,-1.3193,-1.2378,-1.2077,-1.2298,-1.1064,-1.045,-1.0379,-0.9357,-0.8795,-0.879,-0.8025,-0.7688,-0.7678,-0.7593,-0.7526,-0.7671,-0.7755,-0.7731,-0.7625,-0.7848,-0.7771,-0.7614,-0.7753,-0.7866,-0.8004,-0.8033,-0.7979,-0.7812,0.0,0.0,0.0,0.0,0.0,0.0,0.0,-0.0604,0.0672,0.1079,0.0674,0.0337,0.0067,0.1273,0.2414,0.3149,0.0,0.0,0.0,0.0,0.0,0.0,0.0,0.0,0.0,0.0,0.0,0.8554,0.849,0.8166,0.7521,0.7521,0.7521,0.7461,0.0,0.0,0.0,0.0,0.0,0.0,0.0,0.0,0.0,0.0,0.0,0.0,0.0,0.0,0.0,0.0,0.0,0.0,0.0,0.0,0.0,0.0,-0.2566,-0.3319,-0.4822,-0.5719,-0.6428,-0.7279,-0.7638,-0.8025,0.0,0.0,-1.1409,-1.2726,-1.3661,-1.4451,-1.5018,-1.4727,-1.4384,-1.4391,-1.431,-1.4279,-1.4286,-1.4424,-1.4465,-1.4465,-1.4457,-1.4558,-1.4591,-1.4256,-1.3992,-1.379,-1.3645,-1.3127,-1.2378,-1.1558,-1.1484,-1.2305,-1.0554,-0.9515,-0.9287,-0.8299,-0.7745,-0.7531,-0.7526,-0.7526,-0.7526,-0.7521,-0.7521,-0.7521,-0.7269,-0.7335,-0.7475,-0.7495,-0.765,-0.782,-0.7798,-0.7757,-0.7677,-0.7509,-0.741,-0.7419,0.0,0.0,0.0,0.0,0.0,0.0,0.0,-0.1474,-0.0872,-0.1074,-0.1074,-0.1006,-0.0804,0.0402,0.1544,0.2616,0.0,0.0,0.0,0.0,0.0,0.0,0.0,0.0,0.0,0.0,0.0,0.0,0.0,0.8166,0.7521,0.7521,0.7521,0.7521,0.7396,0.7343,0.0,0.0,0.0,0.0,0.0,0.0,0.0,0.0,0.0,0.0,0.0,0.0,0.0,0.0,0.0,0.0,0.0,0.0,0.0,0.0,0.0,0.0,-0.4771,-0.5722,-0.6432,-0.7443,-0.7774,-0.808,-0.8964,0.0,-1.1787,-1.2765,-1.4075,-1.5051,-1.5068,-1.4824,-1.4566,-1.4391,-1.4317,-1.4286,-1.4286,-1.4237,-1.4136,-1.4136,-1.4231,-1.4266,-1.446,-1.4271,-1.4057,-1.3992,-1.3339,-1.2673,-1.2298,-1.1186,-1.0519,-1.0663,-0.9538,-0.8875,-0.8665,-0.8524,-0.8236,-0.7881,-0.7881,-0.781,-0.7673,-0.7588,-0.7526,-0.7606,-0.7617,-0.7598,-0.7625,-0.7844,-0.778,-0.7601,-0.7779,-0.7699,-0.753,-0.7459,-0.7285,-0.7077,0.0,0.0,0.0,0.0,0.0,0.0,0.0,-0.2744,-0.2414,-0.3224,-0.2616,-0.2144,-0.2144,-0.0872,0.0335,0.1273,0.0,0.0,0.0,0.0,0.0,0.0,0.0,0.0,0.0,0.0,0.0,0.0,0.0,0.0,0.7521,0.7521,0.7521,0.7526,0.7673,0.7784,0.0,0.0,0.0,0.0,0.0,0.0,0.536,0.0,0.0,0.0,0.0,0.0,0.0,0.0,0.0,0.0,0.0,0.0,0.0,0.0,-0.2876,-0.3433,0.0,-0.5761,-0.6432,-0.7524,-0.7787,0.0,0.0,0.0,0.0,0.0,0.0,0.0,-1.5257,-1.4999,-1.4741,-1.4566,-1.4384,-1.4226,-1.4265,-1.4151,-1.4026,-1.415,-1.4238,-1.4329,-1.4475,-1.4279,-1.3985,-1.376,-1.3039,-1.2305,-1.1632,-1.0738,-1.0067,-0.9695,-0.903,-0.8625,-0.8548,-0.8548,-0.8437,-0.808,-0.808,-0.7976,-0.7777,-0.764,-0.7602,-0.754,-0.7474,-0.7456,0.0,-0.7482,-0.7403,-0.7219,-0.6965,-0.6954,-0.6966,-0.6264,-0.6079,-0.6127,0.0,0.0,0.0,0.0,0.0,0.0,0.0,0.0,0.0,0.0,-0.3892,-0.308,-0.3825,-0.248,-0.1206,0.0,0.0,0.0,0.0,0.0,0.0,0.0,0.0,0.0,0.0,0.0,0.0,0.7521,0.7456,0.7456,0.7521,0.0,0.7531,0.7555,0.7956,0.0,0.0,0.0,0.0,0.0,0.0,0.0,0.0,0.0,0.0,0.0,0.0,0.0,0.0,0.0,0.0,0.0,0.0,0.0,0.0,0.0,0.0,0.0,0.0,-0.5911,-0.6446,-0.7528,-0.7804,-0.803,0.0,0.0,0.0,0.0,0.0,0.0,0.0,-1.5242,-1.4992,-1.4706,-1.437,-1.4159,-1.4289,-1.4115,-1.407,-1.4399,-1.4516,-1.4538,-1.4568,-1.4263,-1.3833,-1.3237,-1.2739,-1.1855,-1.0594,-1.0293,-0.9846,-0.9322,-0.8937,-0.8684,-0.8714,-0.8567,-0.8316,-0.8103,-0.8103,-0.7995,-0.7801,-0.7801,-0.762,-0.7227,-0.7047,-0.6915,-0.6779,-0.6551,-0.6555,-0.6579,-0.5603,-0.5584,-0.5943,-0.4292,-0.4145,-0.4784,0.0,0.0,0.0,0.0,0.0,0.0,0.0,0.0,0.0,0.0,-0.4356,-0.4018,-0.4154,-0.3491,-0.2618,0.0,0.0,0.0,0.0,0.0,0.0,0.0,0.0,0.0,0.0,0.0,0.0,0.7521,0.6798,0.6798,0.7521,0.7521,0.0,0.0,0.8025,0.0,0.0,0.0,0.0,0.0,0.0,0.0,0.0,0.0,0.0,0.0,0.4148,0.3654,0.0,0.0,0.0,0.0,0.0,0.0,0.0,0.0,-0.3752,-0.4929,-0.5467,0.0,-0.643,-0.7557,-0.7804,-0.7953,0.0,0.0,0.0,0.0,0.0,0.0,0.0,0.0,-1.492,-1.4508,-1.4228,-1.408,-1.3915,-1.3708,-1.3733,-1.4062,-1.4171,-1.4286,-1.4336,-1.3756,-1.3266,-1.2966,-1.1706,-1.0887,-1.0513,-0.9846,-0.9473,-0.9322,-0.9099,-0.8917,-0.8949,-0.8869,-0.8687,-0.8325,-0.8325,-0.8217,-0.8009,-0.8009,-0.7831,-0.745,-0.7346,-0.6831,-0.5935,-0.539,-0.4953,-0.4682,-0.4428,-0.4352,-0.4295,-0.3858,-0.3912,-0.4123,0.0,0.0,0.0,0.0,0.0,0.0,0.0,0.0,0.0,0.0,0.0,0.0,0.0,0.0,0.0,0.0,0.0,0.0,0.0,0.0,0.0,0.0,0.0,0.0,0.0,0.0,0.0,0.0,0.0,0.6161,0.0,0.0,0.0,0.0,0.0,0.0,0.0,0.0,0.0,0.0,0.6852,0.0,0.0,0.0,0.0,0.0,0.4187,0.3795,0.0,0.3531,0.188,-0.0247,0.0,0.0,0.0,0.0,-0.3591,-0.4613,-0.4846,-0.5851,-0.6942,-0.7646,-0.7804,-0.8051,0.0,0.0,0.0,0.0,0.0,0.0,0.0,0.0,-1.4778,-1.4496,-1.4158,-1.3923,-1.3923,-1.3787,-1.3784,-1.396,-1.3806,-1.363,-1.3525,-1.2924,-1.2378,-1.2003,-1.1037,-1.0443,-1.0218,-0.9549,-0.9322,-0.9544,-0.8995,-0.8849,-0.9022,-0.8941,-0.8727,-0.8538,-0.8538,-0.8153,-0.7362,-0.7655,-0.7224,-0.6368,-0.6692,-0.5971,-0.4512,-0.4364,-0.4131,-0.3925,-0.3912,-0.3831,-0.3646,-0.2793,-0.2933,-0.342,0.0,0.0,0.0,0.0,0.0,0.0,0.0,0.0,0.0,0.0,0.0,0.0,0.0,0.0,0.0,0.0,0.0,0.0,0.0,0.0,0.0,0.0,0.0,0.0,0.0,0.0,0.0,0.0,0.0,0.0,0.0,0.0,0.6444,0.0,0.0,0.0,0.0,0.0,0.0,0.0,0.5762,0.0,0.0,0.0,0.0,0.0,0.0,0.0,0.0,0.3469,0.1869,0.0162,0.0404,0.0,0.0,0.0,0.0,0.0,-0.4146,-0.5607,-0.7218,-0.7484,-0.7646,-0.8064,0.0,0.0,0.0,0.0,0.0,0.0,0.0,-1.4732,0.0,-1.4393,-1.4022,-1.3708,-1.3766,-1.3834,-1.3848,-1.3665,-1.3306,-1.288,-1.2459,-1.1874,-1.1254,-1.0738,-1.0443,-1.0143,-0.9846,-0.9291,-0.9195,-0.9718,-0.8906,-0.8513,-0.8694,-0.8614,-0.8609,-0.8609,-0.8458,-0.7829,-0.6801,-0.7162,-0.6565,-0.5272,-0.6123,-0.5222,-0.3169,-0.319,-0.3289,-0.3279,-0.3235,-0.3225,-0.312,-0.1638,-0.1714,-0.2644,0.0,0.0,0.0,0.0,0.0,0.0,0.0,0.0,0.0,0.0,0.0,0.0,0.0,0.0,0.0,0.0,0.0,0.0,0.0,0.0,0.0,0.0,0.0,0.0,0.0,0.0,0.0,0.0,0.0,0.0,0.6154,0.6154,0.6444,0.7028,0.0,0.7651,0.7427,0.718,0.6734,0.5988,0.5541,0.0,0.0,0.0,0.0,0.0,0.0,0.0,0.0,0.3247,0.1979,0.0404,0.0951,0.0,0.0,0.0,0.0,0.0,-0.4304,-0.4931,-0.5711,-0.6287,-0.671,-0.7407,0.0,0.0,0.0,0.0,0.0,0.0,0.0,-1.3559,-1.3966,0.0,-1.3279,-1.3488,-1.2668,-1.3124,-1.3142,-1.2101,-1.2368,-1.2445,-1.1814,-1.1075,-1.0571,-1.0293,-0.962,-0.9322,-0.962,-0.9065,-0.8886,-0.9102,-0.8677,-0.8079,-0.7305,-0.7744,-0.8036,-0.8174,-0.7533,-0.7525,-0.8003,-0.7486,-0.6867,-0.6348,-0.7708,-0.6369,-0.3066,-0.1287,-0.0785,-0.1122,-0.1077,-0.1058,-0.1019,-0.0899,-0.1101,-0.142,0.0,0.0,0.0,0.0,0.0,0.0,0.0,0.0,0.0,0.0,0.0,0.0,0.0,0.0,0.0,0.0,0.0,0.0,0.0,0.0,0.0,0.0,0.0,0.0,0.0,0.0,0.0,0.0,0.0,0.4856,0.5367,0.5962,0.603,0.5728,0.0,0.6954,0.5977,0.6217,0.5885,0.5271,0.0,0.0,0.0,0.0,0.0,0.0,0.0,0.0,0.0,0.0,0.1474,0.0162,0.0711,0.0,0.0,0.0,0.0,0.0,-0.3684,-0.3887,-0.4234,-0.4828,-0.5812,-0.7044,0.0,0.0,0.0,0.0,0.0,0.0,0.0,0.0,-1.2419,-1.1599,-1.1983,-1.2299,-1.1974,-1.2237,-1.229,-1.1652,-1.1471,-1.1235,-1.069,-1.0052,-0.969,-0.9544,-0.9084,-0.8998,-0.9296,-0.874,-0.8434,-0.8274,-0.7895,-0.7261,-0.638,-0.6302,-0.646,-0.6785,-0.7246,-0.6932,-0.5937,-0.5789,-0.4926,-0.3703,-0.5523,-0.4458,-0.1372,-0.0417,-0.0139,-0.0275,-0.0278,-0.0276,-0.027,-0.0751,-0.1087,-0.1344,0.0,0.0,0.0,0.0,0.0,0.0,0.0,0.0,0.0,0.0,0.0,0.0,0.0,0.0,0.0,0.0,0.0,0.0,0.0,0.0,0.0,0.0,0.0,0.0,0.0,0.0,0.3721,0.3969,0.4114,0.4382,0.4701,0.555,0.5496,0.4725,0.0,0.61,0.4736,0.5303,0.5242,0.4796,0.0,0.0,0.0,0.0,0.0,0.0,0.0,0.0,0.0,0.0,0.0,0.0,0.0,0.0,0.0,-0.1882,-0.2507,-0.3448,-0.3139,-0.3127,-0.3175,-0.3565,0.0,-0.6603,-0.789,0.0,0.0,0.0,0.0,0.0,0.0,-1.1048,-1.0898,-1.0936,-1.1065,-1.1171,-1.1195,-1.1342,-1.1342,-1.0952,-1.0561,-1.0105,-0.963,-0.9165,-0.8865,-0.8865,-0.8689,-0.8713,-0.8921,-0.837,-0.7919,-0.7681,-0.7086,-0.6363,-0.5576,-0.5266,-0.5251,-0.5527,-0.6546,-0.5944,-0.3908,-0.4258,-0.3099,-0.0944,-0.2563,-0.2022,-0.0,-0.0,-0.0,-0.0,-0.0,-0.0067,-0.0202,-0.0673,-0.1076,-0.1412,0.0,0.0,0.0,0.0,0.0,0.0,0.0,0.0,0.0,0.0,0.0,0.0,0.0,0.0,0.0,0.0,0.0,0.0,0.0,0.0,0.0,0.0,0.0,0.0,0.0,0.151,0.2447,0.2974,0.2969,0.3517,0.4701,0.4937,0.501,0.5004,0.0,0.0,0.4927,0.4862,0.4772,0.4791,0.4315,0.0,0.0,0.0,0.0,0.0,0.0,0.0,0.0,0.0,0.0,0.0,0.0,0.0,-0.1882,-0.1175,-0.2193,-0.3448,-0.3139,-0.309,-0.2958,-0.2799,0.0,0.0,-0.7311,0.0,0.0,0.0,0.0,0.0,0.0,-0.9503,-1.0089,-1.101,-1.1182,-1.0958,-1.0127,-1.0692,-1.0611,-0.9099,-0.9483,-0.963,-0.8856,-0.8618,-0.8456,-0.8456,-0.838,-0.8449,-0.8674,-0.7895,-0.7416,-0.7635,-0.6463,-0.5452,-0.4816,-0.5431,-0.5432,-0.4866,-0.4634,-0.4244,-0.3703,-0.4128,-0.2771,-0.0067,-0.027,-0.0202,-0.0,-0.0,-0.0,-0.0,-0.0,-0.0202,-0.0404,-0.0202,-0.0673,-0.1412,0.0,0.0,0.0,0.0,0.0,0.0,0.0,0.0,0.0,0.0,0.0,0.0,0.0,0.0,0.0,0.0,0.0,0.0,0.0,0.0,0.0,0.0,0.0,-0.2727,-0.2393,0.0155,0.1786,0.2271,0.3261,0.3687,0.3601,0.4566,0.0,0.0,0.0,0.0,0.0,0.4779,0.4805,0.4846,0.4372,0.4003,0.0,0.0,0.0,0.0,0.0,0.0,0.0,0.0,0.0161,-0.0321,0.0,-0.0555,-0.196,-0.1097,-0.2193,-0.3606,-0.3217,-0.3161,-0.3104,-0.2799,0.0,0.0,0.0,0.0,0.0,0.0,0.0,0.0,0.0,0.0,-0.9043,-0.9581,-0.9658,-0.9555,-0.9332,-0.9463,-0.9377,-0.8775,-0.8745,-0.8637,-0.8367,-0.816,-0.8006,-0.805,-0.8038,-0.7833,-0.7513,-0.719,-0.6619,-0.5754,-0.5342,-0.4666,-0.3615,-0.3821,-0.369,-0.3215,-0.4849,-0.4582,-0.2757,-0.1952,-0.1011,-0.0,-0.0,-0.0,-0.0,-0.0,-0.0,-0.0,-0.0,-0.0337,-0.0877,-0.0742,-0.101,-0.1412,0.0,0.0,0.0,0.0,0.0,0.0,0.0,0.0,0.0,0.0,0.0,0.0,0.0,0.0,0.0,0.0,0.0,0.0,0.0,0.0,0.0,0.0,0.0,-0.4457,-0.4457,-0.172,-0.0156,-0.0,0.1922,0.284,0.276,0.0,0.0,0.0,0.0,0.0,0.4999,0.4757,0.4577,0.4309,0.3919,0.3287,0.0,0.0,0.0,0.0,0.0,0.0,0.0,0.0,-0.0568,0.0,0.0,0.0,0.0,-0.1568,-0.2493,-0.3643,-0.326,-0.322,-0.3097,0.0,0.0,0.0,0.0,0.0,0.0,0.0,-0.7854,0.0,-0.8093,0.0,-0.8326,-0.8613,-0.8627,-0.8703,-0.8865,-0.8727,-0.8609,-0.8609,-0.8319,-0.8107,-0.8105,-0.7888,-0.7735,-0.7496,-0.7513,-0.7167,-0.6502,-0.6278,-0.568,-0.4636,-0.4394,-0.3834,-0.2952,-0.2795,-0.2505,-0.2187,-0.3794,-0.3747,-0.2155,-0.0674,-0.0,-0.0,-0.0,-0.0135,-0.0337,-0.0337,-0.027,-0.0135,-0.0135,-0.0539,-0.1079,-0.1079,-0.1213,-0.1279,0.0,0.0,0.0,0.0,0.0,0.0,0.0,0.0,0.0,0.0,0.0,0.0,0.0,0.0,0.0,0.0,0.0,0.0,0.0,0.0,0.0,0.0,0.0,-0.5243,-0.5799,-0.4229,-0.3684,-0.4157,-0.1681,0.0567,0.244,0.2492,0.0,0.0,0.0,0.0,0.0,0.0,0.3926,0.2896,0.2818,0.2221,0.1377,0.0,0.0,0.0,0.0,0.0,0.0,0.0,-0.0731,0.0,0.0,0.0,0.0,-0.2511,-0.3006,-0.3553,-0.333,-0.3179,-0.3008,0.0,0.0,0.0,0.0,0.0,0.0,0.0,0.0,-0.7864,-0.8067,-0.7939,-0.8018,-0.859,-0.8551,-0.8479,-0.8703,-0.8529,-0.8401,-0.8406,-0.8189,-0.8087,-0.8089,-0.792,-0.7471,-0.6832,-0.68,-0.6462,-0.5824,-0.5118,-0.4703,-0.4703,-0.3635,-0.3077,-0.3079,-0.2704,-0.2353,-0.2099,-0.1028,-0.1115,-0.2159,-0.0674,-0.0,-0.0,-0.0,-0.0404,-0.1079,-0.1079,-0.0877,-0.0539,-0.0539,-0.0742,-0.1079,-0.1079,-0.1079,-0.1079,0.0,0.0,0.0,0.0,0.0,0.0,0.0,0.0,0.0,0.0,0.0,0.0,0.0,0.0,0.0,0.0,0.0,0.0,0.0,0.0,0.0,0.0,0.0,0.0,0.0,0.0,-0.4462,-0.3446,-0.2644,-0.1797,0.0,0.0,0.0,0.1256,0.0,0.0,0.0,0.0,0.3471,0.3841,0.2271,0.1668,0.1704,0.0,0.0,0.0,0.0,0.0,0.0,0.0,0.0,0.0,0.0,0.0,0.0,-0.2431,-0.312,-0.3722,-0.349,-0.3406,0.0,0.0,0.0,0.0,0.0,0.0,0.0,0.0,-0.7684,-0.833,-0.8165,-0.8277,-0.8481,-0.8689,-0.8627,-0.8703,-0.8865,-0.8608,-0.8379,-0.8435,-0.7546,-0.6948,-0.6996,-0.6338,-0.5934,-0.5762,-0.5678,-0.5363,-0.4725,-0.4451,-0.4026,-0.3454,-0.3195,-0.2921,-0.2672,-0.2402,-0.2168,-0.1926,-0.1326,-0.1018,-0.0982,-0.0334,-0.0,-0.0,-0.0,-0.0404,-0.1079,-0.1079,-0.1012,-0.0944,-0.0944,-0.1012,-0.1079,-0.1079,-0.1078,-0.1077,0.0,0.0,0.0,0.0,0.0,0.0,0.0,0.0,0.0,0.0,0.0,0.0,0.0,0.0,0.0,0.0,0.0,0.0,0.0,0.0,0.0,0.0,0.0,0.0,0.0,-0.6788,-0.5854,0.0,0.0,0.0,0.0,0.0,0.0,-0.2464,0.0,-0.0082,0.0,0.0888,0.1199,0.1269,0.1416,0.1029,0.0401,0.0,0.0,0.0,0.0,0.0,0.0,0.0,0.0,0.0,0.0,0.0,0.0,-0.2953,-0.3322,-0.3693,-0.3471,0.0,0.0,0.0,0.0,0.0,0.0,0.0,0.0,0.0,-0.676,-0.7347,-0.758,-0.7767,-0.7886,-0.8116,-0.8054,-0.7948,-0.7799,-0.7552,-0.7334,-0.7306,-0.6587,-0.6052,-0.6032,-0.5619,-0.5242,-0.5045,-0.4901,-0.4491,-0.3795,-0.3579,-0.3259,-0.2835,-0.266,-0.2516,-0.245,-0.2205,-0.2,-0.1807,-0.1487,-0.1123,-0.0762,-0.053,-0.0337,-0.0202,-0.0202,-0.0539,-0.1079,-0.1079,-0.1078,-0.1078,-0.1078,-0.1078,-0.1078,-0.1078,-0.1077,-0.1076,0.0,0.0,0.0,0.0,0.0,0.0,0.0,0.0,0.0,0.0,0.0,0.0,0.0,0.0,0.0,0.0,0.0,0.0,0.0,0.0,0.0,0.0,0.0,0.0,0.0,0.0,0.0,0.0,0.0,0.0,0.0,0.0,-0.5524,-0.5634,0.0,-0.3197,-0.3102,-0.1944,-0.224,-0.3177,-0.0,-0.0,-0.1902,-0.105,0.0,0.0,0.0,0.0,0.0,0.0,0.0,0.0,0.0,0.0,-0.3772,-0.3611,-0.3557,-0.3591,-0.3432,0.0,0.0,0.0,0.0,0.0,-0.2504,-0.3287,-0.4343,-0.5098,0.0,-0.554,-0.671,-0.6645,-0.6592,-0.711,-0.7064,-0.671,-0.6101,-0.5807,-0.5721,-0.5672,-0.547,-0.5286,-0.533,-0.5292,-0.5097,-0.4558,-0.4264,-0.3822,-0.3112,-0.2688,-0.247,-0.2664,-0.2216,-0.2118,-0.2247,-0.1995,-0.1819,-0.171,-0.1523,-0.136,-0.1238,-0.1117,-0.0877,-0.0539,-0.0539,-0.0742,-0.1079,-0.1079,-0.1078,-0.1076,-0.1076,-0.1076,-0.1076,-0.1076,-0.1076,-0.1008,0.0,0.0,0.0,0.0,0.0,0.0,0.0,0.0,0.0,0.0,0.0,0.0,0.0,0.0,0.0,0.0,0.0,0.0,0.0,0.0,0.0,0.0,0.0,0.0,0.0,0.0,0.0,0.0,0.0,0.0,0.0,0.0,0.0,-0.5369,0.0,-0.5121,-0.5046,-0.4775,-0.4026,-0.3084,-0.3237,-0.3065,-0.2563,-0.1796,-0.235,0.0,0.0,0.0,0.0,0.0,0.0,0.0,-0.2118,-0.2795,-0.3706,-0.3122,-0.3301,-0.3543,0.0,-0.3195,0.0,0.0,0.0,-0.2911,-0.2691,-0.2701,-0.3075,-0.3988,-0.4903,-0.5649,-0.5976,-0.6138,-0.6201,-0.6307,-0.6314,-0.6261,-0.6029,-0.5807,-0.5675,-0.5706,-0.5042,-0.4671,-0.4768,-0.4271,-0.3906,-0.3798,-0.3493,-0.3216,-0.3135,-0.2692,-0.2432,-0.2362,-0.2257,-0.2111,-0.2053,-0.1875,-0.1838,-0.1824,-0.1522,-0.136,-0.1363,-0.1183,-0.1079,-0.0944,-0.0944,-0.1012,-0.1079,-0.1079,-0.1078,-0.1076,-0.1076,-0.1076,-0.1076,-0.0739,-0.0605,-0.0605,0.0,0.0,0.0,0.0,0.0,0.0,0.0,0.0,0.0,0.0,0.0,0.0,0.0,0.0,0.0,0.0,0.0,0.0,0.0,0.0,0.0,0.0,0.0,0.0,0.0,0.0,0.0,0.0,0.0,0.0,0.0,0.0,0.0,-0.5842,0.0,-0.5957,-0.5635,-0.5707,-0.5132,-0.4265,-0.4905,-0.4799,-0.4199,-0.3737,-0.3969,-0.4309,-0.3682,0.0,0.0,0.0,0.0,0.0,0.0,0.0,-0.4523,-0.3413,-0.3386,-0.3587,0.0,0.0,0.0,0.0,0.0,0.0,-0.2622,-0.2555,-0.2632,-0.294,-0.3707,-0.4517,-0.5076,-0.5374,-0.5495,-0.5495,-0.5439,-0.5183,-0.4778,-0.4557,-0.4467,-0.4593,-0.4247,-0.3991,-0.4067,-0.3755,-0.348,-0.336,-0.3056,-0.2819,-0.265,-0.2392,-0.2247,-0.2222,-0.2067,-0.2046,-0.211,-0.1899,-0.1812,-0.1842,-0.1571,-0.1379,-0.1225,-0.113,-0.1078,-0.1078,-0.1078,-0.1078,-0.1078,-0.1078,-0.1077,-0.1076,-0.1076,-0.1008,-0.0806,-0.0605,-0.0403,-0.0202,0.0,0.0,0.0,0.0,0.0,0.0,0.0,0.0,0.0,0.0,0.0,0.0,0.0,0.0,0.0,0.0,0.0,0.0,0.0,0.0,0.0,0.0,0.0,0.0,0.0,0.0,0.0,0.0,0.0,0.0,0.0,0.0,0.0,-0.6593,0.0,-0.6479,-0.5943,-0.6064,-0.6177,-0.6192,-0.6005,-0.5966,-0.5879,-0.5687,-0.5254,-0.4835,-0.4475,-0.4157,-0.3986,-0.4319,0.0,0.0,0.0,0.0,-0.5362,-0.3844,-0.3615,-0.3764,0.0,0.0,0.0,0.0,0.0,0.0,-0.2523,-0.2538,-0.2618,-0.2341,-0.2526,-0.3083,-0.4097,-0.4463,-0.4585,-0.4659,-0.4416,-0.3997,-0.3351,-0.3129,-0.3085,-0.3286,-0.3413,-0.3462,-0.3543,-0.3527,-0.3413,-0.313,-0.2868,-0.2598,-0.2262,-0.2017,-0.1987,-0.2176,-0.1941,-0.1934,-0.2101,-0.1934,-0.1797,-0.1798,-0.15,-0.121,-0.0941,-0.0941,-0.1008,-0.1076,-0.1076,-0.1008,-0.0941,-0.0941,-0.0807,-0.0739,-0.0806,-0.0605,-0.0336,-0.0336,-0.0134,0.0134,0.0,0.0,0.0,0.0,0.0,0.0,0.0,0.0,0.0,0.0,0.0,0.0,0.0,0.0,0.0,0.0,0.0,0.0,-1.5117,0.0,0.0,-1.3237,-1.3455,-1.3171,0.0,0.0,0.0,0.0,0.0,0.0,0.0,0.0,0.0,-0.7354,0.0,0.0,-0.771,-0.7781,-0.7935,-0.8074,-0.7267,-0.691,-0.6809,-0.5472,-0.5274,-0.5446,-0.4848,-0.4449,-0.442,-0.5791,-0.5407,0.0,0.0,0.0,-0.4945,-0.3984,-0.4081,-0.437,0.0,0.0,0.0,0.0,0.0,-0.3025,0.0,0.0,-0.2669,-0.2543,-0.2652,-0.2861,-0.3432,-0.3464,-0.3483,-0.3689,-0.3471,-0.3126,-0.2691,-0.2815,-0.2961,-0.2899,-0.317,-0.3404,-0.3543,-0.3357,-0.3132,-0.313,-0.2753,-0.2565,-0.257,-0.217,-0.2055,-0.2175,-0.1941,-0.1801,-0.1864,-0.1801,-0.1797,-0.1798,-0.15,-0.0955,-0.0134,-0.0134,-0.047,-0.1076,-0.1076,-0.0739,-0.0134,-0.0134,0.0202,0.0739,0.0403,0.0336,0.0336,0.0336,0.0403,0.0472,0.0,0.0,0.0,0.0,0.0,0.0,0.0,0.0,0.0,0.0,0.0,0.0,0.0,0.0,0.0,-1.5559,-1.6088,-1.6076,-1.5259,-1.5076,-1.4577,-1.3803,-1.3738,-1.331,-1.2659,0.0,0.0,0.0,0.0,0.0,0.0,-1.0045,-0.9064,0.0,0.0,0.0,0.0,0.0,0.0,-0.8074,-0.765,-0.748,-0.7395,-0.698,-0.657,-0.6316,-0.6087,-0.5593,-0.5107,-0.5846,-0.5832,-0.5423,-0.5289,0.0,0.0,0.0,-0.4234,-0.4402,-0.3606,0.0,0.0,0.0,-0.2951,-0.2941,-0.2412,-0.2453,-0.2555,-0.2397,-0.2478,-0.2729,-0.3193,-0.3361,-0.3281,-0.2894,-0.2887,-0.2823,-0.2413,-0.2704,-0.2879,-0.2954,-0.3223,-0.3315,-0.3193,-0.285,-0.2569,-0.2573,-0.2125,-0.1916,-0.212,-0.1979,-0.1919,-0.1948,-0.1526,-0.1459,-0.1797,-0.1459,-0.12,-0.1007,-0.0371,0.0129,0.0605,0.0605,0.047,0.0134,0.0134,0.0336,0.0605,0.0403,0.047,0.0739,0.0336,0.0336,0.047,0.047,0.0672,0.0877,0.0,0.0,0.0,0.0,0.0,0.0,0.0,0.0,0.0,0.0,0.0,0.0,0.0,0.0,0.0,0.0,-1.6795,-1.6651,-1.5833,-1.5939,-1.5579,-1.4665,-1.4235,-1.3882,-1.331,0.0,0.0,0.0,0.0,0.0,-1.2224,-1.1632,-1.0732,0.0,-0.9478,0.0,0.0,0.0,0.0,0.0,0.0,-0.8168,-0.818,-0.815,-0.7693,-0.7105,-0.7193,-0.6688,-0.6078,-0.6277,-0.6485,-0.6468,-0.6032,-0.6107,0.0,0.0,0.0,-0.4533,0.0,0.0,0.0,0.0,-0.3077,-0.2881,0.0,0.0,-0.2521,-0.2319,-0.2331,-0.2432,-0.2845,-0.3043,-0.2996,-0.2348,-0.241,-0.2418,-0.203,-0.2431,-0.2724,-0.2643,-0.2794,-0.2794,-0.2402,-0.1953,-0.1681,-0.1869,-0.1416,-0.1247,-0.1649,-0.1534,-0.1472,-0.1517,-0.0953,-0.0953,-0.1572,-0.1074,-0.0644,-0.0311,0.051,0.1046,0.1411,0.1411,0.1478,0.1613,0.1277,0.1277,0.1478,0.1209,0.1141,0.1142,0.0806,0.0739,0.0739,0.0672,0.0874,0.1081,0.0,0.0,0.0,0.0,0.0,0.0,0.0,0.0,0.0,0.0,0.0,0.0,-1.6581,-1.7217,-1.7613,-1.7423,-1.8048,-1.8177,-1.742,-1.7047,-1.6621,-1.6202,-1.6061,0.0,-1.4561,0.0,0.0,0.0,0.0,0.0,-1.2003,-1.215,-1.2224,-1.2077,-1.1347,-1.0673,-1.0137,0.0,0.0,0.0,0.0,-0.9155,-0.9073,-0.8176,-0.7773,-0.7773,-0.7773,-0.7687,-0.7745,-0.8053,-0.807,-0.7799,-0.708,-0.6718,-0.6454,0.0,0.0,0.0,0.0,0.0,0.0,0.0,0.0,0.0,0.0,-0.2596,-0.2684,-0.2611,-0.2174,-0.1894,-0.2203,-0.2135,-0.2018,-0.2192,-0.2017,-0.1634,-0.1069,-0.197,-0.2361,-0.1398,-0.1506,-0.1505,-0.1061,-0.0447,-0.034,-0.0935,-0.0702,-0.0821,-0.1412,-0.0879,-0.0636,-0.0729,-0.0168,-0.0224,-0.0954,-0.0635,-0.0423,-0.0193,0.0515,0.1306,0.2147,0.2147,0.2485,0.3025,0.168,0.1679,0.2619,0.2619,0.2755,0.3025,0.2686,0.215,0.148,0.121,0.1076,0.1084,0.0,0.0,0.0,0.0,0.0,0.0,0.0,0.0,0.0,0.0,0.0,0.0,0.0,-1.817,-1.8508,-1.856,-1.824,-1.7948,-1.7813,-1.7107,-1.6691,-1.67,-1.6281,-1.5859,-1.5363,0.0,0.0,0.0,0.0,-1.3112,-1.355,-1.3112,-1.2966,-1.3025,-1.2218,-1.1764,-1.1564,-1.1413,0.0,0.0,0.0,0.0,-1.033,-0.9627,-0.9044,-0.848,-0.8635,-0.8235,-0.7721,-0.7943,-0.8038,-0.8023,-0.761,-0.7169,-0.6556,-0.5538,-0.5312,-0.5195,0.0,0.0,0.0,-0.3347,-0.3215,-0.303,-0.2208,-0.22,-0.2369,-0.2343,-0.1901,-0.1563,-0.1884,-0.1681,-0.1342,-0.0744,-0.1263,-0.1318,-0.0224,-0.1089,-0.1561,-0.0785,-0.0893,-0.0837,-0.0391,0.0168,0.0281,-0.0057,0.0398,0.0398,-0.0228,-0.0057,0.0114,0.0115,0.0288,0.0233,-0.0,0.0246,0.0693,0.1221,0.2031,0.2528,0.2822,0.2822,0.309,0.3558,0.3021,0.3021,0.3422,0.3422,0.3491,0.3491,0.2618,0.2147,0.188,0.1276,0.1076,0.1084,0.0,0.0,0.0,0.0,0.0,0.0,0.0,0.0,0.0,0.0,0.0,0.0,0.0,0.0,-1.8976,-1.9214,-1.8914,-1.8498,-1.8086,-1.7555,-1.7088,-1.67,-1.6281,-1.5859,-1.5576,0.0,0.0,0.0,0.0,0.0,0.0,-1.3775,-1.3695,-1.376,-1.3324,-1.2813,0.0,0.0,0.0,-1.1848,0.0,-1.0885,-1.1049,-1.0323,-0.9864,-0.9606,-0.9451,-0.8975,-0.8398,-0.8362,-0.8456,-0.8539,-0.8103,-0.7423,-0.6558,-0.5541,-0.5275,-0.5261,-0.5006,0.0,0.0,0.0,0.0,-0.3015,-0.2361,-0.2196,-0.2156,-0.2189,-0.1625,-0.1177,-0.1454,-0.0968,-0.0402,0.0112,-0.0513,-0.0689,0.0393,-0.0459,-0.0868,-0.0168,-0.0168,-0.0056,0.0503,0.095,0.1128,0.0923,0.1272,0.1335,0.0879,0.1056,0.1238,0.1371,0.1014,0.0848,0.0937,0.1147,0.1551,0.2087,0.2861,0.3226,0.3226,0.3226,0.3426,0.3825,0.3892,0.4025,0.4159,0.4159,0.4092,0.3889,0.3151,0.2681,0.2414,0.1946,0.1812,0.1827,0.0,0.0,0.0,0.0,0.0,0.0,0.0,0.0,0.0,-1.7392,0.0,0.0,0.0,0.0,0.0,-1.9364,-2.001,-1.9796,-1.8319,-1.8488,-1.79,-1.636,-1.6008,-1.5576,-1.5204,0.0,0.0,0.0,0.0,0.0,0.0,0.0,-1.4425,-1.4433,-1.4569,-1.3768,-1.2372,0.0,-1.1929,-1.1162,0.0,-1.0949,-1.0995,-1.0025,-1.0228,-1.095,-1.0218,-0.9922,-0.9884,-0.9663,-0.9593,-0.9447,-0.8612,-0.7449,-0.6272,-0.5554,-0.5342,-0.5428,0.0,0.0,0.0,0.0,0.0,0.0,-0.3045,-0.2589,-0.2156,-0.2201,-0.1401,-0.0728,-0.0894,0.0056,0.0729,0.028,0.0224,0.0393,0.0842,-0.0,-0.0336,0.0505,0.0671,0.0951,0.1572,0.1964,0.2131,0.1961,0.1909,0.187,0.1729,0.2312,0.273,0.296,0.2097,0.1691,0.1806,0.1931,0.2089,0.2214,0.2889,0.3226,0.3226,0.3226,0.3426,0.3823,0.4156,0.4489,0.4831,0.4831,0.4625,0.4353,0.4287,0.3885,0.3215,0.3215,0.3215,0.3175,0.0,0.0,0.0,0.0,0.0,0.0,0.0,0.0,0.0,0.0,0.0,0.0,0.0,-1.9245,-1.9664,-1.9728,-1.901,-1.8408,-1.8126,-1.7287,-1.665,-1.6351,-1.6008,-1.5655,-1.5426,0.0,0.0,0.0,0.0,0.0,0.0,0.0,0.0,0.0,-1.4569,-1.4346,-1.3985,-1.384,0.0,-1.3578,-1.2557,-1.1982,-1.1598,-1.0665,-1.0187,-0.9985,-0.9932,-0.9922,-0.9911,-0.9846,-0.9949,-0.9985,-0.9115,-0.807,-0.712,-0.6244,-0.5748,-0.5428,-0.5428,0.0,0.0,0.0,0.0,0.0,-0.2771,-0.2547,-0.2459,-0.2208,-0.1538,-0.1121,-0.1454,-0.0672,0.0112,0.0336,0.0343,0.0576,0.1295,0.0744,0.0518,0.135,0.1402,0.1513,0.1849,0.2175,0.2339,0.2381,0.2616,0.2655,0.2615,0.2991,0.2949,0.2478,0.2271,0.2172,0.2058,0.2123,0.2397,0.2956,0.3092,0.3226,0.3226,0.3226,0.3558,0.4156,0.4287,0.4622,0.5229,0.5229,0.516,0.5024,0.4489,0.4154,0.3951,0.3416,0.3215,0.3175,0.0,0.0,0.0,0.0,0.0,0.0,0.0,0.0,-1.6476,0.0,0.0,0.0,0.0,-1.9947,-2.0183,-2.0222,-1.96,-1.8966,-1.8485,-1.7639,-1.6938,-1.6385,-1.6016,-1.5655,-1.5292,0.0,0.0,0.0,0.0,0.0,0.0,0.0,0.0,0.0,0.0,0.0,0.0,0.0,0.0,0.0,-1.2692,-1.2025,-1.174,-1.0389,-0.9965,-1.0103,-0.9876,-0.9841,-0.989,-0.969,-0.9717,-0.9723,-0.889,-0.8346,-0.7803,-0.6571,-0.6022,-0.5752,-0.5495,-0.5428,-0.5292,-0.4891,0.0,0.0,-0.3412,-0.2973,-0.2625,-0.2475,-0.1778,-0.129,-0.1569,-0.0896,-0.028,-0.0,0.0058,0.0466,0.1466,0.1256,0.1147,0.1463,0.1628,0.1749,0.1883,0.2211,0.2498,0.2808,0.2983,0.3153,0.3319,0.3378,0.3195,0.2638,0.2615,0.2507,0.2377,0.2441,0.2722,0.3092,0.3159,0.3226,0.3226,0.336,0.3758,0.4287,0.4422,0.4824,0.5428,0.5428,0.5428,0.5359,0.4957,0.4755,0.4688,0.4287,0.4087,0.411,0.0,0.0,0.0,0.0,0.0,0.0,0.0,0.0,-1.6394,0.0,-1.7844,0.0,0.0,-2.0566,-2.0641,-2.0612,-2.0721,-2.0279,-1.8915,-1.8654,-1.7862,-1.6435,-1.6036,-1.5556,-1.4944,-1.507,0.0,0.0,0.0,0.0,0.0,0.0,0.0,0.0,0.0,0.0,0.0,0.0,0.0,-1.3425,-1.2158,-1.1729,-1.18,-0.9873,-0.9835,-1.0569,-0.9813,-0.9669,-0.9782,-0.9378,-0.9244,-0.9136,-0.849,-0.8482,-0.8404,-0.6839,-0.64,-0.6268,-0.5686,-0.5425,-0.5428,-0.5428,-0.4891,0.0,-0.4478,-0.3658,-0.2881,-0.2983,-0.2143,-0.1418,-0.1475,-0.0964,-0.0567,-0.0567,-0.0407,0.0117,0.1354,0.1464,0.1409,0.1235,0.1515,0.1762,0.1816,0.2183,0.2605,0.3077,0.3099,0.327,0.3754,0.3629,0.3385,0.3093,0.2961,0.283,0.2569,0.2757,0.2925,0.3009,0.3145,0.3215,0.3293,0.3625,0.4023,0.4356,0.4694,0.503,0.5428,0.5428,0.5428,0.5428,0.5428,0.5428,0.5428,0.5428,0.5428,0.5382,-1.3988,0.0,0.0,0.0,0.0,0.0,0.0,0.0,0.0,0.0,0.0,0.0,0.0,-2.0566,-2.045,-2.0052,-1.9505,-1.8896,-1.8281,-1.7596,-1.7037,-1.6444,-1.6349,-1.588,-1.4944,-1.4935,-1.4649,0.0,0.0,0.0,0.0,0.0,0.0,0.0,0.0,0.0,0.0,0.0,0.0,-1.37,-1.3569,-1.3119,-1.2373,-1.1288,-1.0566,-1.003,-0.9486,-0.9303,-0.9362,-0.947,-0.9507,-0.9536,-0.9432,-0.9098,-0.8613,-0.8164,-0.7246,-0.64,-0.6268,-0.5818,-0.5428,-0.5428,-0.5292,0.0,-0.4458,-0.4094,-0.3811,-0.3542,-0.2837,-0.2357,-0.26,-0.2057,-0.1453,-0.0968,-0.067,-0.012,0.0736,0.0631,0.0809,0.1634,0.1515,0.1592,0.2346,0.2587,0.2785,0.2953,0.3093,0.3274,0.3563,0.3498,0.3385,0.3093,0.3089,0.2866,0.2552,0.2551,0.2776,0.3051,0.3115,0.3351,0.3828,0.3894,0.4228,0.4694,0.4764,0.503,0.5428,0.5428,0.5428,0.5428,0.5428,0.5428,0.5428,0.5428,0.5428,0.5382,-1.4034,0.0,0.0,0.0,0.0,0.0,0.0,0.0,0.0,0.0,0.0,0.0,0.0,-2.0566,-2.0411,-1.9942,-1.9362,-1.8852,-1.839,-1.764,-1.7021,-1.6653,-1.6309,-1.5665,-1.48,-1.4721,-1.4497,0.0,0.0,0.0,0.0,0.0,0.0,0.0,0.0,0.0,0.0,0.0,-1.4045,-1.3916,-1.3301,-1.2758,-1.2241,-1.0949,-1.0236,-0.9795,-0.9258,-0.9034,-0.9071,-0.9314,-0.9319,-0.9249,-0.9208,-0.9058,-0.8781,-0.8292,-0.7487,-0.6677,-0.6441,-0.5881,-0.5428,-0.5428,-0.5428,0.0,0.0,-0.4587,-0.4301,-0.411,-0.3513,-0.3011,-0.2766,-0.2523,-0.2162,-0.1499,-0.132,-0.1067,-0.0309,0.012,0.0466,0.0845,0.1081,0.1513,0.2222,0.2598,0.2868,0.3019,0.3133,0.3228,0.3362,0.3362,0.3251,0.3029,0.2858,0.2691,0.253,0.249,0.2631,0.2902,0.3194,0.3499,0.3813,0.4201,0.4561,0.4831,0.503,0.516,0.5226,0.5226,0.516,0.5096,0.5226,0.516,0.5096,0.5226,0.5226,0.5236,-1.3893,0.0,0.0,0.0,0.0,0.0,0.0,0.0,0.0,0.0,0.0,0.0,0.0,-2.0207,-1.9927,-1.9462,-1.9141,-1.8795,-1.8497,-1.7883,-1.7304,-1.6935,-1.6396,-1.5667,-1.4657,-1.4704,-1.4423,-1.3797,0.0,0.0,0.0,0.0,0.0,0.0,0.0,0.0,0.0,0.0,0.0,-1.3821,-1.2662,-1.2327,-1.2299,-1.0549,-1.0033,-1.0037,-0.9142,-0.8797,-0.884,-0.9114,-0.9055,-0.8912,-0.8942,-0.8941,-0.886,-0.8328,-0.7714,-0.7191,-0.6742,-0.6075,-0.5557,-0.5428,-0.5428,-0.5428,0.0,0.0,0.0,-0.4662,-0.4193,-0.3561,-0.2939,-0.2752,-0.2518,-0.205,-0.2005,-0.1835,-0.1407,-0.0566,0.0059,0.0173,0.0702,0.132,0.2109,0.2631,0.3033,0.3224,0.3244,0.3246,0.3228,0.3226,0.3117,0.2898,0.2693,0.2523,0.2507,0.2429,0.2488,0.2814,0.3315,0.3612,0.3824,0.444,0.4751,0.482,0.5176,0.5183,0.4982,0.5011,0.4957,0.4761,0.4957,0.4957,0.4827,0.4957,0.5024,0.509,-1.3307,-1.3476,0.0,0.0,0.0,0.0,0.0,0.0,0.0,0.0,0.0,0.0,-1.8933,-1.8685,-1.8313,-1.7845,-1.776,-1.7693,-1.7666,-1.757,-1.7304,-1.6935,-1.7192,-1.6556,-1.4888,-1.5243,-1.4885,-1.3797,0.0,0.0,0.0,0.0,0.0,0.0,-1.3815,0.0,0.0,0.0,-1.3316,-1.3104,-1.3163,-1.3421,-1.3676,-1.1969,-1.1176,-1.0738,-0.9142,-0.8554,-0.8619,-0.9055,-0.9055,-0.8999,-0.9537,-0.9354,-0.9057,-0.9323,-0.8737,-0.7876,-0.7395,-0.6793,-0.6141,-0.5557,-0.5428,-0.5428,-0.5428,0.0,-0.5269,-0.5269,0.0,-0.418,-0.4114,0.0,0.0,-0.2536,-0.2072,-0.1743,-0.2018,-0.1945,-0.1133,0.1003,0.0556,0.0805,0.2626,0.31,0.3372,0.3435,0.344,0.3313,0.323,0.3226,0.3117,0.2898,0.2756,0.2618,0.2427,0.2291,0.2577,0.325,0.332,0.3732,0.4507,0.4584,0.4655,0.4726,0.4855,0.4845,0.4656,0.4779,0.4761,0.4628,0.4761,0.4827,0.4831,0.4831,0.4831,0.4831,-1.3398,-1.3398,0.0,0.0,0.0,0.0,0.0,0.0,0.0,0.0,0.0,0.0,-1.9054,-1.8898,-1.8543,-1.7935,-1.784,-1.7758,-1.7536,-1.7466,-1.7398,-1.7244,-1.6913,-1.6293,-1.541,-1.4973,-1.4656,-1.4289,-1.4382,0.0,0.0,0.0,0.0,0.0,-1.3419,0.0,-1.32,0.0,-1.3309,-1.3461,-1.347,-1.346,-1.3323,-1.1602,-1.0366,-0.9486,-0.8738,-0.8517,-0.8544,-0.887,-0.8804,-0.8712,-0.8955,-0.8942,-0.8794,-0.9004,-0.8629,-0.8001,-0.7524,-0.685,-0.6149,-0.5536,-0.5294,-0.525,-0.5342,-0.5428,-0.5428,-0.5428,0.0,0.0,0.0,0.0,0.0,0.0,-0.2285,-0.2018,-0.2154,-0.2389,-0.1945,-0.0376,0.0319,0.1312,0.2836,0.3203,0.3269,0.3299,0.333,0.3269,0.3228,0.3226,0.3185,0.3157,0.2941,0.2853,0.2763,0.2842,0.2987,0.3199,0.3733,0.415,0.4374,0.4636,0.4732,0.4677,0.4822,0.4759,0.4513,0.4641,0.4561,0.4431,0.4498,0.45,0.4498,0.4628,0.4694,0.4694,-1.3906,0.0,0.0,0.0,0.0,0.0,0.0,0.0,0.0,0.0,0.0,-1.8822,-1.8822,-1.8632,-1.8234,-1.772,-1.7529,-1.736,-1.715,-1.7261,-1.7269,-1.7013,-1.6673,-1.6173,-1.5394,-1.4881,-1.4615,-1.4494,-1.4471,0.0,0.0,0.0,0.0,0.0,0.0,-1.3224,-1.3127,-1.3036,-1.3149,-1.3528,-1.3345,-1.293,-1.2248,-1.0855,-0.9584,-0.8517,-0.8517,-0.8517,-0.8522,-0.8783,-0.8716,-0.851,-0.8657,-0.852,-0.8248,-0.8437,-0.8094,-0.7639,-0.7418,-0.6812,-0.6125,-0.5778,-0.5404,-0.5223,-0.5335,-0.5428,-0.5428,-0.5428,-0.5428,0.0,0.0,0.0,-0.3756,-0.309,0.0,-0.2287,-0.2221,-0.2421,-0.2185,-0.1144,0.0601,0.2013,0.2938,0.3186,0.3291,0.3264,0.3264,0.3252,0.3228,0.3226,0.3263,0.3327,0.3166,0.3145,0.3135,0.3406,0.3455,0.3344,0.4098,0.4358,0.4289,0.4569,0.4614,0.4505,0.4624,0.4514,0.4273,0.4429,0.4431,0.43,0.43,0.43,0.43,0.4498,0.4495,0.4561,-1.4922,-1.4159,0.0,0.0,0.0,0.0,0.0,0.0,-1.8031,-1.804,-1.7794,-1.757,-1.757,-1.6908,-1.6469,-1.6461,-1.6134,-1.6002,-1.6345,-1.6721,-1.6623,-1.5889,-1.6814,-1.6468,-1.4591,-1.5209,-1.5154,-1.4291,-1.4494,0.0,0.0,0.0,0.0,0.0,-1.3917,-1.37,-1.3461,-1.2847,-1.2668,-1.2786,-1.2447,-1.1668,-1.0524,-1.0143,-0.936,-0.8517,-0.8517,-0.8517,-0.8549,-0.897,-0.8803,-0.8504,-0.9091,-0.8324,-0.7375,-0.7868,-0.7384,-0.6736,-0.7092,-0.671,-0.6248,-0.6355,-0.5877,-0.5422,-0.5425,-0.5428,-0.5428,-0.5428,-0.5428,-0.5362,-0.5362,-0.4758,-0.4159,-0.3835,-0.3159,0.0,0.0,-0.2221,-0.168,-0.0335,0.1497,0.2707,0.281,0.3224,0.3454,0.3367,0.336,0.332,0.3232,0.3226,0.3293,0.3493,0.3396,0.3473,0.3599,0.3742,0.3868,0.3984,0.4112,0.4333,0.447,0.4314,0.415,0.4051,0.4139,0.4128,0.3958,0.42,0.43,0.43,0.43,0.43,0.43,0.43,0.43,0.43,-1.5354,0.0,0.0,0.0,0.0,0.0,-1.787,-1.804,-1.7946,-1.7697,-1.7552,-1.7372,-1.7132,-1.6884,-1.6627,-1.6444,-1.6233,-1.6208,-1.6336,-1.6704,-1.6707,-1.6188,-1.6612,-1.6379,-1.5248,-1.5143,-1.515,-1.5169,-1.479,0.0,0.0,0.0,0.0,0.0,0.0,-1.3592,0.0,-1.294,-1.2661,-1.2367,-1.1376,-1.0915,-1.0744,-0.9498,-0.8777,-0.8517,-0.8517,-0.8517,-0.8528,-0.8527,-0.8478,-0.8409,-0.8404,-0.799,-0.7491,-0.7613,-0.7135,-0.6511,-0.6168,-0.5872,-0.5555,-0.5332,-0.5198,-0.5121,-0.5318,-0.5428,-0.5428,-0.5428,-0.5428,-0.5428,-0.5428,-0.4891,-0.4489,-0.4353,-0.3556,-0.2889,0.0,-0.2017,-0.1344,-0.0807,0.0911,0.2288,0.2945,0.2797,0.2882,0.3371,0.287,0.2766,0.3165,0.3295,0.3469,0.3535,0.3623,0.3697,0.3685,0.4014,0.4111,0.387,0.4222,0.4324,0.4187,0.4079,0.3965,0.3869,0.413,0.4061,0.3894,0.42,0.43,0.43,0.43,0.43,0.43,0.43,0.43,0.43,-1.5665,0.0,0.0,0.0,0.0,-1.7294,-1.787,-1.804,-1.7903,-1.7518,-1.7466,-1.7329,-1.6961,-1.679,-1.661,-1.6444,-1.6225,-1.6208,-1.6491,-1.651,-1.6338,-1.602,-1.6126,-1.58,-1.5076,-1.5056,-1.5203,-1.54,-1.5165,-1.5103,0.0,0.0,0.0,0.0,0.0,-1.3777,-1.3384,-1.2763,-1.2397,-1.1995,-1.0685,-1.0425,-1.0536,-0.9144,-0.8761,-0.9012,-0.8609,-0.8517,-0.8447,-0.8236,-0.8159,-0.8061,-0.7893,-0.731,-0.6692,-0.6727,-0.6155,-0.5514,-0.5281,-0.4987,-0.4793,-0.48,-0.4859,-0.4856,-0.5097,-0.5281,-0.5415,-0.5415,-0.5391,-0.5394,-0.5417,-0.5091,-0.4809,-0.4623,-0.3862,-0.3157,0.0,-0.2017,-0.1474,-0.1193,0.0557,0.1866,0.2202,0.2542,0.271,0.2594,0.2404,0.2498,0.2867,0.304,0.3332,0.3731,0.3853,0.3862,0.3812,0.4244,0.4278,0.3931,0.4336,0.4324,0.4079,0.3965,0.391,0.3811,0.4011,0.3997,0.3894,0.42,0.43,0.43,0.43,0.43,0.43,0.43,0.43,0.43,-1.5854,-1.5906,-1.5816,-1.6049,-1.6632,-1.7302,-1.7878,-1.8023,-1.7869,-1.7492,-1.7424,-1.7278,-1.691,-1.6524,-1.631,-1.6319,-1.6002,-1.6022,-1.6538,-1.6052,-1.5684,-1.5438,-1.5263,-1.4766,-1.4065,-1.484,-1.5257,-1.5173,-1.5668,0.0,0.0,0.0,0.0,0.0,-1.4655,0.0,-1.3475,-1.2526,-1.1963,-1.1637,-1.0421,-0.9977,-0.9913,-0.9087,-0.9307,-0.9886,-0.8853,-0.8517,-0.8447,-0.8236,-0.7928,-0.7607,-0.7542,-0.642,-0.5109,-0.5277,-0.446,-0.3719,-0.4515,-0.4262,-0.3946,-0.4787,-0.483,-0.4636,-0.4649,-0.4998,-0.5318,-0.5382,-0.537,-0.5383,-0.5409,-0.5414,-0.5239,-0.472,-0.4151,-0.3424,-0.2356,-0.2221,-0.1931,-0.1295,0.0492,0.1402,0.0654,0.2453,0.2946,0.1209,0.195,0.2457,0.2313,0.2322,0.2825,0.3902,0.3959,0.3969,0.4118,0.4423,0.4417,0.417,0.4391,0.4374,0.4138,0.391,0.3799,0.3764,0.3892,0.3875,0.3902,0.4202,0.43,0.43,0.43,0.43,0.43,0.43,0.43,0.43,-1.5079,-1.5899,-1.6386,-1.6273,-1.687,-1.7473,-1.7951,-1.7792,-1.7483,-1.7107,-1.6816,-1.6499,-1.6131,-1.6002,-1.5791,-1.556,-1.5405,-1.5396,-1.5361,-1.5463,-1.534,-1.4856,-1.5281,-1.521,-1.4426,-1.5154,-1.5617,-1.5699,-1.5864,-1.5936,-1.5984,0.0,0.0,0.0,0.0,-1.4033,-1.3078,-1.2793,-1.1887,-1.0477,-0.9682,-0.9748,-1.032,-0.9032,-0.9242,-1.0085,-0.8918,-0.8517,-0.8452,-0.8182,-0.7939,-0.7677,-0.7434,-0.6368,-0.5277,-0.5277,-0.4291,-0.3249,-0.3498,-0.3393,-0.3365,-0.377,-0.3918,-0.4071,-0.4139,-0.4291,-0.4476,-0.4787,-0.4879,-0.4977,-0.5328,-0.5399,-0.5349,-0.5225,-0.4406,-0.3558,-0.2889,-0.2421,-0.2149,-0.1931,-0.083,0.0071,0.0495,0.0811,0.1058,0.1132,0.0822,0.0809,0.1297,0.1473,0.2005,0.2908,0.2992,0.337,0.4249,0.4186,0.4115,0.4048,0.4122,0.4002,0.3749,0.3694,0.3629,0.3606,0.3811,0.3861,0.3824,0.4169,0.43,0.43,0.43,0.4306,0.4311,0.4303,0.43,0.43,-1.4712,-1.5538,-1.6139,-1.6304,-1.664,-1.7057,-1.7383,-1.7692,-1.7656,-1.697,-1.6824,-1.6603,-1.6223,-1.5749,-1.5505,-1.5346,-1.5062,-1.4992,-1.5154,-1.5057,-1.4984,-1.4863,-1.4946,-1.4828,-1.4421,-1.4942,-1.5451,-1.5685,-1.5913,-1.6133,-1.642,0.0,0.0,0.0,0.0,-1.3723,-1.2917,-1.25,-1.1408,-0.99,-0.9491,-0.969,0.0,-0.9213,-0.9342,-0.9864,-0.9075,-0.8663,-0.8447,-0.7922,-0.7621,-0.7315,-0.6897,-0.5855,-0.4732,-0.4783,-0.3904,-0.291,-0.291,-0.291,-0.2979,-0.3037,-0.3337,-0.3653,-0.3714,-0.3857,-0.4097,-0.4336,-0.4384,-0.4533,-0.491,-0.5064,-0.4993,-0.4737,-0.4225,-0.3558,-0.2757,-0.2423,-0.2221,-0.2221,-0.1635,-0.104,-0.0498,0.0148,0.0456,0.0077,0.0076,0.0225,0.0592,0.0721,0.1202,0.2169,0.2128,0.2471,0.3281,0.3359,0.3438,0.3579,0.375,0.3749,0.3585,0.3581,0.3587,0.3544,0.3638,0.3804,0.3937,0.4185,0.43,0.43,0.43,0.4303,0.4308,0.4303,0.4303,0.4306,-1.4712,-1.5108,-1.5636,-1.6185,-1.6327,-1.637,-1.6503,-1.7438,-1.7766,-1.6797,-1.686,-1.6776,-1.6383,-1.5682,-1.5204,-1.5363,-1.4856,-1.4768,-1.5225,-1.4662,-1.4558,-1.507,-1.4501,-1.4129,-1.4201,-1.4622,-1.5047,-1.5466,-1.6008,-1.6428,0.0,0.0,0.0,0.0,0.0,0.0,0.0,-1.179,-1.0823,-0.9687,-0.9687,-0.9665,-0.9684,-0.9457,-0.9445,-0.948,-0.9179,-0.8887,-0.8429,-0.7826,-0.7346,-0.687,-0.6366,-0.5238,-0.4098,-0.4187,-0.3519,-0.2691,-0.2691,-0.2691,-0.2691,-0.2691,-0.3026,-0.3327,-0.3309,-0.3561,-0.3851,-0.3909,-0.3938,-0.4008,-0.4366,-0.4527,-0.4449,-0.3919,-0.3791,-0.3387,-0.2262,-0.2129,-0.2132,-0.2074,-0.194,0.0,-0.1596,-0.0,0.0379,-0.1097,-0.0307,0.0228,-0.0,-0.0,0.0431,0.1469,0.1344,0.1515,0.1917,0.2283,0.2597,0.2953,0.3362,0.3546,0.3408,0.3374,0.3431,0.3475,0.3279,0.3421,0.3769,0.4127,0.4167,0.403,0.4233,0.4303,0.4306,0.4306,0.4241,0.411,-1.5565,-1.5891,-1.5891,-1.6087,-1.6026,-1.5904,-1.5779,-1.6299,-1.6553,-1.6171,-1.5807,-1.545,-1.5248,-1.5174,-1.5062,-1.4641,-1.4505,-1.4312,-1.4091,-1.4095,-1.4305,-1.4511,-1.4385,-1.4425,-1.4497,-1.477,-1.5114,-1.5682,-1.6325,-1.6585,0.0,0.0,0.0,0.0,0.0,0.0,-1.1335,-1.0547,-1.0047,-0.9796,-0.9657,-0.968,-0.9701,-0.9372,-0.9319,-0.9502,-0.9232,-0.9064,-0.8735,-0.8317,-0.7757,-0.7249,-0.6829,-0.5608,-0.4394,-0.4442,-0.3633,-0.2691,-0.2691,-0.2691,-0.2691,-0.2691,-0.2747,-0.2807,-0.2824,-0.2882,-0.3051,-0.3442,-0.3516,-0.3602,-0.4004,-0.4099,-0.4066,-0.3857,-0.3741,-0.3184,-0.1752,-0.1815,-0.1896,-0.1554,-0.1493,-0.1407,-0.1158,-0.0722,-0.0515,-0.0704,-0.0548,-0.0468,-0.0468,-0.0897,-0.0504,0.07,0.0329,0.0566,0.1485,0.1827,0.2227,0.2681,0.329,0.3235,0.2547,0.2255,0.236,0.2735,0.2306,0.2085,0.2131,0.3692,0.3563,0.2616,0.3835,0.4317,0.4322,0.4322,0.3777,0.3234,-1.5187,-1.513,-1.4885,-1.5824,-1.5959,-1.583,-1.5629,-1.5764,-1.5851,-1.5835,-1.5741,-1.563,-1.5493,-1.5105,-1.4848,-1.4705,-1.4281,-1.4008,-1.379,-1.3863,-1.4,-1.408,-1.4289,-1.4425,-1.4497,-1.4662,-1.517,-1.5952,-1.562,-1.5716,-1.6148,-1.4713,0.0,0.0,0.0,-1.1657,0.0,-1.0663,-1.0226,-0.9824,-0.9755,-0.9759,-0.9785,-0.9586,-0.9619,-0.9717,-0.9581,-0.9248,-0.8785,-0.7813,-0.7239,-0.6757,-0.5744,-0.4676,-0.3845,-0.3893,-0.3357,-0.2691,-0.2691,-0.2691,-0.2691,-0.2691,-0.2691,-0.2691,-0.2691,-0.2691,-0.2747,-0.297,-0.3023,-0.3168,-0.3619,-0.3974,-0.4075,-0.3571,-0.3391,-0.2876,-0.1603,-0.1367,-0.1191,-0.1006,-0.0969,-0.1004,-0.1115,-0.0854,-0.059,-0.0313,-0.0314,-0.0391,-0.054,-0.0744,-0.0573,0.0069,-0.0264,-0.0127,0.0431,0.0717,0.1068,0.1502,0.2352,0.2624,0.2532,0.2636,0.2208,0.1263,0.0976,0.0862,0.0939,0.3301,0.3433,0.208,0.2082,0.2963,0.4327,0.4327,0.3169,0.1883,-1.4105,-1.3941,-1.4088,-1.5771,-1.5688,-1.5405,-1.5427,-1.542,-1.5357,-1.5494,-1.5634,-1.5771,-1.5698,-1.5017,-1.4633,-1.4768,-1.4209,-1.3863,-1.3797,-1.3797,-1.3797,-1.3797,-1.4072,-1.4281,-1.4425,-1.4281,-1.4708,-1.574,-1.4653,-1.4545,-1.5226,-1.3566,-1.2493,0.0,0.0,-1.113,-1.0812,-1.0812,-1.0519,-0.9922,-0.9922,-0.9922,-0.99,-0.986,-0.9829,-0.9895,-0.9854,-0.9385,-0.8661,-0.7146,-0.6596,-0.6211,-0.4708,-0.3815,-0.333,-0.3375,-0.3095,-0.2691,-0.2691,-0.2691,-0.2691,-0.2691,-0.2691,-0.2691,-0.2691,-0.2691,-0.2691,-0.2691,-0.2691,-0.2832,-0.3331,-0.3814,-0.3865,-0.3166,-0.3026,-0.2662,-0.1515,-0.1103,-0.0923,-0.0847,-0.0825,-0.0988,-0.1328,-0.1044,-0.0658,-0.0307,-0.0309,-0.0383,-0.0673,-0.0658,-0.0565,-0.0468,-0.0598,-0.0583,-0.0371,-0.0183,0.012,0.0535,0.1199,0.175,0.2242,0.2823,0.2033,0.025,0.0066,-0.0,0.0202,0.2426,0.2695,0.1544,0.0403,0.1413,0.3444,0.4059,0.2774,0.095,-1.2498,-1.3218,-1.4504,-1.6338,-1.4928,-1.3856,-1.4877,-1.5124,-1.5079,-1.4764,-1.4684,-1.4609,-1.432,-1.4441,-1.4569,-1.4425,-1.4209,-1.3992,-1.379,-1.3797,-1.3797,-1.3797,-1.3863,-1.4008,-1.4353,-1.355,-1.3446,-1.4192,-1.3863,-1.3615,-1.3293,-1.3222,-1.231,-1.0735,-1.0486,-1.0231,-0.9992,-0.9992,-0.9997,-0.9922,-0.9922,-0.9922,-0.9916,-0.9895,-0.99,-0.9916,-0.9895,-0.9299,-0.8332,-0.6749,-0.6212,-0.5987,-0.4678,-0.3986,-0.353,-0.3446,-0.3092,-0.2691,-0.2691,-0.2691,-0.2691,-0.2691,-0.2691,-0.2691,-0.2691,-0.2691,-0.2691,-0.2691,-0.2691,-0.2832,-0.3331,-0.3108,-0.2797,-0.2581,-0.2883,-0.2604,-0.1132,-0.1586,-0.1927,-0.1642,-0.165,-0.1658,-0.1592,-0.1591,-0.1515,-0.1215,-0.1237,-0.1238,-0.1215,-0.1273,-0.1097,-0.0583,-0.0883,-0.0745,-0.0062,-0.0,0.0175,0.0492,0.0289,0.0347,0.0734,0.1136,0.1222,0.0966,0.0259,-0.0,-0.0,0.027,0.0337,0.0202,0.0067,0.0135,0.0741,0.3316,0.3018,0.1257,-1.1321,-1.1272,-1.1815,-1.3431,-1.3358,-1.3173,-1.3642,-1.4404,-1.4797,-1.4359,-1.4439,-1.4425,-1.4425,-1.4425,-1.4497,-1.4497,-1.4353,-1.4281,-1.4145,-1.3935,-1.3797,-1.3797,-1.3928,-1.4065,-1.4209,-1.3741,-1.3784,-1.4523,-1.3406,-1.2895,-1.3109,-1.219,-1.1205,-1.0259,-1.0252,-1.0153,-0.9922,-0.9922,-0.9846,-0.9695,-0.9846,-0.9771,-0.9549,-0.9695,-0.9625,-0.9544,-0.9695,-0.9326,-0.8506,-0.6816,-0.5806,-0.5042,-0.3689,-0.3107,-0.3002,-0.2954,-0.2899,-0.2772,-0.2772,-0.2734,-0.2691,-0.2691,-0.2691,-0.2691,-0.2691,-0.2691,-0.2691,-0.2691,-0.2691,-0.2757,-0.2965,-0.3044,-0.2994,-0.2571,-0.2522,-0.2229,-0.1293,-0.1231,-0.123,-0.1122,-0.1178,-0.1389,-0.1659,-0.1665,-0.1808,-0.2026,-0.1366,-0.112,-0.1494,-0.1455,-0.1066,-0.0377,-0.0419,-0.0233,0.0233,0.0057,0.0171,0.0467,0.0511,0.0398,0.0234,0.0823,0.0854,0.0452,0.0132,-0.0,-0.0,-0.0,-0.0,-0.0,-0.0,-0.0,0.0203,0.1855,0.1807,0.0985,-1.0156,-0.9881,-0.9998,-1.11,-1.1846,-1.2416,-1.2842,-1.3857,-1.4471,-1.4232,-1.4281,-1.4425,-1.4497,-1.4497,-1.4497,-1.4569,-1.4497,-1.4425,-1.4425,-1.4072,-1.3863,-1.3797,-1.3928,-1.4111,-1.4202,-1.3604,-1.3677,-1.4365,-1.2669,-1.1992,-1.2269,-1.1006,-1.0272,-1.0037,-1.0126,-1.0076,-0.9922,-0.9846,-0.9695,-0.962,-0.9695,-0.9549,-0.9322,-0.9473,-0.9397,-0.9322,-0.9544,-0.9225,-0.8445,-0.6904,-0.5622,-0.4413,-0.2949,-0.2521,-0.2627,-0.2633,-0.2755,-0.2828,-0.2828,-0.276,-0.2691,-0.2691,-0.2691,-0.2691,-0.2691,-0.2691,-0.2691,-0.2691,-0.2691,-0.2691,-0.2691,-0.2913,-0.2991,-0.2587,-0.234,-0.2067,-0.1631,-0.1343,-0.1191,-0.13,-0.1432,-0.1674,-0.2021,-0.2051,-0.2183,-0.2573,-0.1699,-0.1318,-0.1863,-0.1677,-0.1353,-0.0973,-0.0582,-0.0171,0.0398,0.0338,0.0336,0.0393,0.0729,0.0673,0.0281,0.0704,0.0735,0.0319,0.0066,-0.0,-0.0,-0.0,-0.0,-0.0,-0.0,-0.0,0.0135,0.0972,0.1056,0.0927,-0.9,-0.9481,-1.0115,-1.0115,-1.0491,-1.1343,-1.2864,-1.3675,-1.4209,-1.4353,-1.4425,-1.4425,-1.4425,-1.4497,-1.4569,-1.4569,-1.4497,-1.4425,-1.4425,-1.4201,-1.3992,-1.379,-1.3797,-1.4013,-1.4553,-1.2954,-1.2492,-1.3186,-1.1764,-1.0664,-1.0053,-0.9812,-0.9807,-1.0037,-1.0037,-0.9988,-0.9916,-0.9695,-0.962,-0.9549,-0.9397,-0.9322,-0.9322,-0.9322,-0.9322,-0.9322,-0.9544,-0.8876,-0.7819,-0.6984,-0.5685,-0.4222,-0.2845,-0.2554,-0.2712,-0.2637,-0.2717,-0.2828,-0.2828,-0.276,-0.2691,-0.2691,-0.2691,-0.2691,-0.2691,-0.2691,-0.2691,-0.2691,-0.2691,-0.2691,-0.2691,-0.2579,-0.2523,-0.2521,-0.2354,-0.2184,-0.2184,-0.2183,-0.2291,-0.2645,-0.2786,-0.2893,-0.2985,-0.2843,-0.2755,-0.2591,-0.2466,-0.2454,-0.261,-0.2093,-0.2046,-0.2655,-0.1821,-0.0823,0.0412,0.0741,0.0729,0.0393,0.0729,0.0898,0.09,0.06,0.0741,0.1054,0.0329,-0.0,-0.0,-0.0,-0.0,-0.0,-0.0,-0.0,0.0135,0.0972,0.1282,0.1317,-0.7994,-0.8229,-0.8511,-0.8373,-0.9574,-1.0738,-1.1087,-1.27,-1.3912,-1.4,-1.4217,-1.4425,-1.4425,-1.4425,-1.4497,-1.4569,-1.4569,-1.4569,-1.4569,-1.4274,-1.4057,-1.3992,-1.3863,-1.3712,-1.3636,-1.2933,-1.2457,-1.2227,-1.1441,-1.0577,-0.9807,-0.9729,-0.9569,-0.9351,-0.9576,-0.9611,-0.9468,-0.9544,-0.9473,-0.917,-0.9246,-0.917,-0.8937,-0.9018,-0.9018,-0.8937,-0.9241,-0.915,-0.8639,-0.7212,-0.6332,-0.5541,-0.3481,-0.2809,-0.279,-0.2785,-0.2799,-0.2913,-0.2913,-0.2805,-0.2691,-0.2691,-0.2691,-0.2691,-0.2691,-0.2691,-0.2691,-0.2691,-0.2691,-0.2691,-0.2691,-0.2577,-0.2465,-0.2296,-0.2183,-0.2017,-0.1964,-0.2017,-0.2106,-0.2197,-0.2355,-0.2452,-0.2474,-0.2416,-0.2473,-0.2632,-0.2576,-0.2617,-0.2703,-0.247,-0.2448,-0.2771,-0.2475,-0.1877,-0.1081,-0.0563,-0.0392,-0.0503,-0.0112,0.0393,0.0899,0.088,0.0908,0.1052,0.0579,0.0199,-0.0,-0.0,-0.0,-0.0,-0.0,0.0341,0.0903,0.0855,0.1025,0.1277,-0.7427,-0.7577,-0.7618,-0.7504,-0.8558,-0.9586,-1.0137,-1.1829,-1.3178,-1.3702,-1.4,-1.4217,-1.4361,-1.4353,-1.4353,-1.4497,-1.4497,-1.4497,-1.4497,-1.4353,-1.4137,-1.3992,-1.3983,-1.3821,-1.3432,-1.3041,-1.26,-1.2128,-1.1194,-1.0411,-0.9802,-0.9564,-0.9304,-0.9099,-0.9322,-0.9322,-0.9322,-0.9322,-0.9246,-0.9022,-0.9094,-0.8932,-0.8703,-0.8861,-0.8784,-0.878,-0.9094,-0.914,-0.8822,-0.7281,-0.6533,-0.5959,-0.376,-0.3076,-0.2976,-0.2856,-0.2904,-0.2977,-0.2973,-0.2884,-0.2747,-0.2691,-0.2691,-0.2691,-0.2691,-0.2691,-0.2691,-0.2691,-0.2635,-0.2635,-0.2635,-0.2465,-0.2296,-0.2127,-0.2071,-0.1961,-0.1797,-0.1905,-0.2035,-0.209,-0.2197,-0.223,-0.2294,-0.2276,-0.2289,-0.2466,-0.2486,-0.2576,-0.2694,-0.2698,-0.2759,-0.2771,-0.2772,-0.247,-0.1916,-0.1493,-0.1141,-0.0911,-0.0451,0.0056,0.0562,0.0813,0.102,0.1052,0.0829,0.0525,0.0202,0.0067,-0.0,-0.0,0.0341,0.0829,0.1267,0.0949,0.1046,0.1292,-0.7249,-0.7484,-0.7484,-0.7484,-0.7528,-0.8112,-0.9809,-1.1025,-1.2144,-1.3462,-1.3702,-1.3935,-1.4289,-1.4209,-1.4209,-1.4361,-1.4425,-1.4425,-1.4425,-1.4353,-1.4217,-1.379,-1.4037,-1.4052,-1.3731,-1.315,-1.2671,-1.2565,-1.098,-1.0152,-0.9933,-0.9269,-0.9099,-0.9246,-0.9099,-0.9099,-0.9246,-0.9099,-0.9022,-0.8946,-0.8784,-0.8703,-0.8703,-0.8703,-0.8703,-0.8703,-0.8941,-0.8822,-0.8387,-0.7162,-0.6409,-0.5648,-0.3848,-0.321,-0.306,-0.2907,-0.2872,-0.292,-0.3011,-0.2888,-0.2802,-0.2747,-0.2691,-0.2691,-0.2691,-0.2691,-0.2691,-0.2691,-0.2577,-0.2521,-0.2465,-0.224,-0.2015,-0.2015,-0.2015,-0.1961,-0.1797,-0.1906,-0.2063,-0.2252,-0.2272,-0.2318,-0.2437,-0.2354,-0.225,-0.2199,-0.2344,-0.2448,-0.26,-0.2785,-0.2861,-0.284,-0.283,-0.2571,-0.2156,-0.2031,-0.1645,-0.1057,-0.0398,-0.0056,-0.0,0.0579,0.0898,0.099,0.1082,0.0918,0.0539,0.0202,0.0067,0.0135,0.0902,0.1263,0.1273,0.1264,0.1289,0.1296,-0.6234,-0.6934,-0.7484,-0.7484,-0.7536,-0.7825,-0.8917,-1.0282,-1.1409,-1.1922,-1.2746,-1.3419,-1.371,-1.3783,-1.4,-1.4353,-1.4425,-1.4425,-1.4425,-1.4281,-1.4065,-1.379,-1.3262,-1.295,-1.2705,-1.2168,-1.1498,-1.0881,-1.009,-0.9678,-0.9474,-0.9123,-0.9022,-0.9099,-0.9022,-0.8941,-0.8856,-0.8941,-0.8941,-0.8784,-0.8865,-0.8861,-0.8703,-0.8865,-0.8861,-0.8703,-0.8941,-0.8622,-0.7934,-0.7064,-0.6122,-0.5003,-0.3729,-0.3066,-0.2756,-0.2772,-0.2828,-0.2933,-0.3025,-0.2938,-0.2805,-0.2802,-0.2747,-0.2691,-0.2691,-0.2691,-0.2691,-0.2577,-0.2521,-0.2465,-0.2296,-0.2127,-0.2015,-0.2015,-0.1905,-0.1852,-0.1797,-0.1853,-0.1863,-0.1892,-0.1928,-0.1925,-0.1964,-0.1932,-0.2064,-0.2405,-0.2468,-0.2607,-0.2865,-0.3022,-0.3032,-0.2928,-0.286,-0.2809,-0.277,-0.263,-0.2294,-0.1703,-0.1478,-0.0896,-0.0,0.017,0.0527,0.0988,0.1246,0.1159,0.0944,0.0875,0.0673,0.0405,0.0694,0.0922,0.1233,0.1272,0.1303,0.1325,-0.569,-0.671,-0.7496,-0.7484,-0.7472,-0.777,-0.8475,-0.9377,-1.0282,-1.1186,-1.2003,-1.2753,-1.3273,-1.3645,-1.3935,-1.4209,-1.4281,-1.4281,-1.4281,-1.3695,-1.3331,-1.3119,-1.2546,-1.2145,-1.1828,-1.1704,-1.1138,-1.0156,-0.9802,-0.9571,-0.9397,-0.9246,-0.9175,-0.9246,-0.9099,-0.8946,-0.8861,-0.8865,-0.8784,-0.8694,-0.8835,-0.8774,-0.8694,-0.883,-0.8774,-0.8689,-0.8374,-0.7986,-0.7428,-0.6384,-0.5434,-0.4599,-0.3586,-0.3011,-0.2704,-0.2635,-0.2686,-0.2732,-0.2872,-0.2833,-0.2737,-0.2767,-0.2747,-0.2691,-0.2691,-0.2691,-0.2691,-0.2577,-0.2521,-0.2465,-0.2352,-0.2184,-0.2071,-0.2015,-0.1996,-0.1954,-0.1802,-0.1877,-0.1883,-0.18,-0.1797,-0.1797,-0.1906,-0.1876,-0.1979,-0.2289,-0.2377,-0.253,-0.2776,-0.2914,-0.2967,-0.2899,-0.2889,-0.2928,-0.3015,-0.293,-0.2665,-0.2244,-0.1976,-0.1286,-0.0392,-0.0112,0.0346,0.0969,0.1228,0.1269,0.119,0.1205,0.1076,0.0811,0.0984,0.1152,0.1172,0.1292,0.132,0.1335,-0.5118,-0.6472,-0.7516,-0.7492,-0.7508,-0.7756,-0.8218,-0.8548,-0.9239,-1.057,-1.1277,-1.1951,-1.2753,-1.3236,-1.3609,-1.3768,-1.376,-1.3833,-1.3985,-1.3112,-1.2526,-1.215,-1.1924,-1.1582,-1.1192,-1.1355,-1.0931,-0.9943,-0.9716,-0.9581,-0.9549,-0.9322,-0.9397,-0.9549,-0.917,-0.8927,-0.8974,-0.8737,-0.8713,-0.867,-0.8714,-0.8675,-0.867,-0.8744,-0.8635,-0.836,-0.7624,-0.7151,-0.6738,-0.5477,-0.4725,-0.4148,-0.3357,-0.2936,-0.2633,-0.244,-0.2409,-0.2509,-0.2571,-0.2654,-0.2724,-0.2677,-0.2691,-0.2691,-0.2691,-0.2691,-0.2691,-0.2691,-0.2521,-0.2352,-0.241,-0.224,-0.2074,-0.2029,-0.2148,-0.2175,-0.1888,-0.1977,-0.1984,-0.1816,-0.1813,-0.1869,-0.1974,-0.1918,-0.1954,-0.2133,-0.2246,-0.2353,-0.2533,-0.2715,-0.2808,-0.2773,-0.2957,-0.3032,-0.3111,-0.3038,-0.2862,-0.2711,-0.2076,-0.151,-0.0894,-0.028,0.0343,0.0945,0.1218,0.1319,0.1292,0.1395,0.128,0.1156,0.143,0.1389,0.118,0.1236,0.1335,0.1335,-0.3107,-0.5472,-0.7521,-0.7516,-0.7626,-0.7795,-0.7874,-0.848,-0.8921,-0.9061,-1.03,-1.1216,-1.1135,-1.1822,-1.2326,-1.2291,-1.2137,-1.2445,-1.3266,-1.3046,-1.2452,-1.1558,-1.1149,-1.0945,-1.0956,-1.0463,-1.005,-0.9473,-0.9406,-0.9357,-0.9322,-0.9175,-0.9175,-0.9322,-0.8937,-0.876,-0.8744,-0.8739,-0.8636,-0.8608,-0.8781,-0.8791,-0.8628,-0.8849,-0.8374,-0.7546,-0.753,-0.663,-0.5398,-0.5026,-0.4251,-0.3357,-0.2887,-0.2562,-0.23,-0.2224,-0.2231,-0.2303,-0.2611,-0.2666,-0.2672,-0.2723,-0.2691,-0.2691,-0.2691,-0.2691,-0.2691,-0.2577,-0.2127,-0.179,-0.2015,-0.1737,-0.1585,-0.2093,-0.2126,-0.2078,-0.2114,-0.2045,-0.1901,-0.1872,-0.1944,-0.1949,-0.1928,-0.1982,-0.2019,-0.2204,-0.2198,-0.2337,-0.2657,-0.2727,-0.2751,-0.2771,-0.2953,-0.3023,-0.3038,-0.2875,-0.2797,-0.2805,-0.2099,-0.151,-0.0894,-0.028,0.0343,0.0945,0.1277,0.1318,0.11,0.1396,0.1364,0.1117,0.1225,0.1256,0.1209,0.1244,0.1335,0.1335,-0.2513,-0.4072,-0.5524,-0.567,-0.6475,-0.7034,-0.6951,-0.7655,-0.8311,-0.838,-0.9392,-1.0174,-1.0565,-1.1205,-1.1752,-1.1855,-1.1613,-1.1613,-1.1761,-1.1626,-1.1335,-1.0812,-1.0374,-1.0203,-1.0161,-0.9963,-0.9631,-0.9183,-0.9043,-0.9013,-0.9175,-0.9022,-0.8865,-0.8627,-0.8784,-0.859,-0.8171,-0.8543,-0.8418,-0.807,-0.8091,-0.7841,-0.7513,-0.7633,-0.7283,-0.6655,-0.6354,-0.5688,-0.4939,-0.4327,-0.3664,-0.3025,-0.2753,-0.2487,-0.2221,-0.2221,-0.2197,-0.23,-0.2484,-0.2586,-0.2641,-0.2673,-0.2691,-0.2691,-0.2691,-0.2691,-0.2577,-0.2184,-0.2127,-0.2015,-0.1846,-0.1792,-0.1859,-0.2058,-0.2099,-0.2083,-0.2058,-0.2,-0.2016,-0.1939,-0.2001,-0.2003,-0.2052,-0.2039,-0.2135,-0.2274,-0.2199,-0.2272,-0.2468,-0.2593,-0.2682,-0.2722,-0.2864,-0.2874,-0.2864,-0.283,-0.2593,-0.2234,-0.2257,-0.1623,-0.0392,-0.0449,-0.0,0.0921,0.1148,0.1192,0.1165,0.1487,0.1468,0.1292,0.1327,0.1275,0.1215,0.1246,0.1335,0.1335,-0.2397,-0.3117,-0.3856,-0.44,-0.5427,-0.6227,-0.6548,-0.7086,-0.76,-0.8086,-0.8769,-0.9384,-1.0021,-1.0577,-1.0958,-1.1127,-1.0986,-1.064,-1.0196,-1.0212,-1.0143,-0.9922,-0.9667,-0.9471,-0.9497,-0.9548,-0.9361,-0.8949,-0.8784,-0.8784,-0.9022,-0.9022,-0.8632,-0.8084,-0.8479,-0.8187,-0.7436,-0.7947,-0.7807,-0.729,-0.7278,-0.6967,-0.6464,-0.6502,-0.6244,-0.5892,-0.5329,-0.4933,-0.448,-0.3722,-0.3226,-0.2889,-0.2688,-0.2421,-0.2221,-0.2221,-0.2232,-0.2356,-0.2392,-0.2477,-0.2591,-0.2673,-0.2691,-0.2691,-0.2691,-0.2691,-0.2577,-0.2071,-0.2127,-0.2183,-0.179,-0.1847,-0.2023,-0.2043,-0.2118,-0.2123,-0.2027,-0.2052,-0.2087,-0.2022,-0.2014,-0.2076,-0.2204,-0.2171,-0.2204,-0.23,-0.227,-0.2267,-0.2348,-0.2525,-0.2547,-0.2532,-0.2592,-0.257,-0.2523,-0.2432,-0.2142,-0.1734,-0.2037,-0.1472,-0.028,-0.0399,-0.0,0.0854,0.1033,0.1141,0.1241,0.1511,0.1501,0.1327,0.1429,0.1368,0.1225,0.1249,0.1335,0.1335,-0.2323,-0.3048,-0.4109,-0.5446,-0.5334,-0.5654,-0.7433,-0.7082,-0.6929,-0.793,-0.8578,-0.9059,-0.9059,-0.9358,-0.9546,-0.9468,-0.9284,-0.917,-0.9094,-0.9322,-0.9322,-0.9099,-0.9269,-0.9242,-0.9072,-0.9237,-0.9129,-0.8727,-0.8708,-0.8784,-0.9022,-0.9022,-0.856,-0.7859,-0.7859,-0.7352,-0.6373,-0.6444,-0.6472,-0.6502,-0.649,-0.6428,-0.639,-0.6471,-0.5966,-0.5202,-0.5329,-0.4608,-0.3574,-0.3297,-0.3023,-0.2686,-0.2354,-0.2221,-0.2221,-0.2221,-0.2266,-0.2403,-0.2414,-0.2502,-0.2636,-0.2659,-0.2691,-0.2691,-0.2691,-0.2691,-0.2635,-0.2465,-0.2015,-0.1734,-0.1958,-0.1625,-0.1535,-0.2067,-0.2081,-0.2062,-0.2232,-0.211,-0.2023,-0.2062,-0.214,-0.2207,-0.2207,-0.2278,-0.2306,-0.2228,-0.232,-0.2354,-0.2417,-0.2553,-0.2418,-0.1974,-0.1974,-0.197,-0.2071,-0.1402,-0.1177,-0.1511,-0.0817,-0.0758,-0.1181,0.0239,0.0785,0.0707,0.1127,0.124,0.1142,0.1315,0.1373,0.1209,0.1211,0.1229,0.1254,0.1335,0.1335,0.1335,-0.2203,-0.2575,-0.3032,-0.3595,-0.4108,-0.4773,-0.5824,-0.6182,-0.6354,-0.6605,-0.6848,-0.6943,-0.6859,-0.743,-0.7957,-0.8353,-0.8674,-0.8784,-0.8784,-0.874,-0.8806,-0.9018,-0.9066,-0.9039,-0.8826,-0.903,-0.876,-0.794,-0.794,-0.771,-0.7246,-0.7246,-0.6857,-0.6079,-0.6677,-0.6434,-0.5571,-0.6183,-0.6147,-0.5738,-0.5738,-0.5477,-0.5096,-0.5151,-0.4736,-0.4167,-0.4344,-0.3862,-0.3159,-0.2956,-0.282,-0.2619,-0.2287,-0.2221,-0.2221,-0.2221,-0.2283,-0.2317,-0.239,-0.2539,-0.2677,-0.2699,-0.2691,-0.2691,-0.2691,-0.2691,-0.2577,-0.2127,-0.2015,-0.1903,-0.1625,-0.157,-0.1693,-0.1892,-0.1974,-0.2003,-0.2105,-0.2147,-0.2102,-0.2149,-0.1749,-0.149,-0.1446,-0.1526,-0.1394,-0.0841,-0.1297,-0.148,-0.1143,-0.1198,-0.1306,-0.1268,-0.0688,-0.0613,-0.107,-0.0686,-0.0397,-0.0175,-0.0693,-0.0469,0.0303,0.0848,0.097,0.0913,0.1099,0.1144,0.1108,0.1229,0.1278,0.124,0.124,0.1247,0.1335,0.1335,0.1335,0.1335,-0.2202,-0.2352,-0.2501,-0.2824,-0.3141,-0.3768,-0.4805,-0.5031,-0.5243,-0.5493,-0.5491,-0.5524,-0.5562,-0.6077,-0.671,-0.7312,-0.7735,-0.7931,-0.7931,-0.7759,-0.7986,-0.8663,-0.8856,-0.8822,-0.8614,-0.8645,-0.8291,-0.7484,-0.7249,-0.6784,-0.6163,-0.624,-0.5851,-0.4999,-0.5783,-0.5571,-0.4784,-0.5497,-0.5484,-0.5017,-0.5017,-0.4691,-0.43,-0.4164,-0.3897,-0.3563,-0.3627,-0.3291,-0.2889,-0.2753,-0.2619,-0.2487,-0.2288,-0.2221,-0.2221,-0.2221,-0.2233,-0.2289,-0.236,-0.2493,-0.2612,-0.2697,-0.2691,-0.2691,-0.2691,-0.2691,-0.2577,-0.2071,-0.2127,-0.2073,-0.1572,-0.1629,-0.1797,-0.1797,-0.1509,-0.1309,-0.1311,-0.1334,-0.1264,-0.1208,-0.0941,-0.075,-0.0636,-0.0772,-0.0631,-0.0071,-0.0549,-0.0672,-0.0336,-0.0134,-0.02,-0.0457,0.0457,0.0711,0.0253,0.0237,0.0466,0.0906,-0.0,0.006,0.107,0.1062,0.1065,0.102,0.107,0.1114,0.1153,0.1195,0.123,0.1335,0.1335,0.1335,0.1335,0.1335,0.1335,0.1335,-0.2262,-0.238,-0.2665,-0.3661,-0.2898,-0.282,-0.4691,-0.391,-0.3521,-0.4766,-0.4756,-0.4951,-0.5713,-0.5686,-0.5817,-0.6437,-0.6322,-0.6163,-0.616,-0.6173,-0.668,-0.8009,-0.8472,-0.8604,-0.8406,-0.8022,-0.765,-0.748,-0.663,-0.6163,-0.6163,-0.6391,-0.5925,-0.4999,-0.5249,-0.4902,-0.3996,-0.4174,-0.4272,-0.43,-0.43,-0.43,-0.4233,-0.3961,-0.3825,-0.3758,-0.336,-0.2956,-0.2686,-0.2686,-0.2487,-0.2221,-0.2221,-0.2221,-0.2221,-0.2221,-0.2244,-0.2308,-0.2365,-0.2352,-0.2335,-0.2657,-0.2691,-0.2691,-0.2691,-0.2691,-0.2635,-0.2465,-0.2408,-0.2242,-0.1853,-0.1797,-0.1797,-0.1797,-0.0691,0.0182,0.0133,0.0393,0.0716,0.1069,0.047,0.0069,0.0217,-0.0069,-0.0275,-0.029,-0.0277,-0.0269,-0.0269,0.0403,0.0739,0.0538,0.1412,0.1884,0.1884,0.1622,0.1575,0.1671,0.1513,0.107,0.0495,0.092,0.108,0.1081,0.111,0.1156,0.1212,0.1212,0.123,0.1335,0.1335,0.1335,0.1335,0.1335,0.1335,0.1335,-0.1459,-0.1583,-0.1864,-0.2582,-0.2508,-0.2728,-0.3518,-0.3434,-0.3413,-0.3723,-0.3493,-0.328,-0.3377,-0.3874,-0.4417,-0.4917,-0.5654,-0.604,-0.5939,-0.5891,-0.5962,-0.6094,-0.6545,-0.6634,-0.6367,-0.6499,-0.6252,-0.5541,-0.5389,-0.5082,-0.4538,-0.4616,-0.446,-0.4144,-0.4348,-0.4247,-0.3991,-0.4163,-0.4266,-0.43,-0.43,-0.4164,-0.3961,-0.3825,-0.3489,-0.3021,-0.2887,-0.2621,-0.2354,-0.2354,-0.2287,-0.2221,-0.2221,-0.2221,-0.2221,-0.2221,-0.2209,-0.2246,-0.2309,-0.2304,-0.2282,-0.2614,-0.2577,-0.2523,-0.2641,-0.2699,-0.2697,-0.2641,-0.2077,-0.157,-0.1459,-0.1291,-0.1178,-0.1178,-0.0176,0.087,0.1526,0.1264,0.0996,0.1069,0.1302,0.141,0.1522,0.1362,0.1359,0.1745,0.1456,0.1277,0.1277,0.148,0.148,0.1277,0.1817,0.2018,0.1884,0.1975,0.2023,0.2037,0.1782,0.1517,0.1117,0.1372,0.1463,0.1459,0.1526,0.1494,0.1441,0.1467,0.1406,0.1335,0.1335,0.1335,0.1335,0.1335,0.1492,0.1726,-0.0511,-0.0379,-0.0313,-0.094,-0.1489,-0.1872,-0.215,-0.253,-0.2803,-0.2706,-0.257,-0.2421,-0.2301,-0.289,-0.3509,-0.3939,-0.4646,-0.509,-0.4941,-0.4936,-0.4825,-0.4572,-0.4845,-0.5139,-0.5567,-0.5539,-0.5231,-0.4775,-0.4513,-0.4226,-0.3763,-0.3763,-0.3822,-0.3857,-0.3928,-0.4054,-0.4075,-0.4246,-0.4233,-0.4097,-0.4097,-0.3894,-0.3558,-0.3422,-0.3088,-0.2686,-0.2554,-0.2354,-0.2221,-0.2221,-0.2221,-0.2221,-0.2221,-0.2221,-0.2221,-0.2221,-0.2221,-0.2207,-0.2275,-0.2227,-0.2227,-0.2617,-0.2548,-0.2354,-0.2191,-0.2135,-0.2249,-0.2645,-0.2249,-0.1629,-0.0898,0.0112,0.0898,0.0898,0.1597,0.2312,0.2935,0.2458,0.2078,0.2207,0.2277,0.2345,0.2469,0.2401,0.2464,0.2654,0.2276,0.2018,0.2018,0.1884,0.1748,0.1614,0.1817,0.1884,0.1817,0.2221,0.2288,0.2087,0.1817,0.1614,0.1347,0.1391,0.1417,0.1427,0.1563,0.1524,0.1463,0.1484,0.1415,0.1335,0.1335,0.1335,0.1335,0.1492,0.1726,0.196,0.0512,0.1138,0.1489,0.0783,-0.0,-0.0546,-0.0701,-0.1323,-0.1685,-0.1609,-0.1775,-0.1988,-0.2114,-0.25,-0.2971,-0.3352,-0.3511,-0.3632,-0.3616,-0.3622,-0.3546,-0.3371,-0.3434,-0.4057,-0.5438,-0.4832,-0.4584,-0.4747,-0.3947,-0.3604,-0.3763,-0.3832,-0.3861,-0.3927,-0.3967,-0.408,-0.4191,-0.4214,-0.4097,-0.3825,-0.3758,-0.3493,-0.3092,-0.282,-0.2686,-0.2621,-0.2287,-0.2221,-0.2221,-0.2221,-0.2221,-0.2221,-0.2221,-0.2221,-0.2221,-0.2221,-0.2221,-0.2209,-0.2283,-0.2131,-0.2037,-0.2529,-0.2486,-0.2137,-0.1347,-0.1178,-0.1403,-0.2305,-0.2475,-0.1909,-0.0,0.2135,0.3613,0.361,0.3862,0.4103,0.4116,0.3808,0.3629,0.3961,0.3316,0.2985,0.3199,0.314,0.3036,0.2886,0.2542,0.23,0.2221,0.1887,0.1685,0.1681,0.1681,0.1681,0.1681,0.2424,0.2491,0.1884,0.1748,0.1547,0.1279,0.1179,0.114,0.1241,0.1276,0.1309,0.1335,0.1335,0.1335,0.1335,0.1335,0.1335,0.1414,0.1803,0.196,0.2117,0.1644,0.169,0.1646,0.094,0.0386,0.0151,0.0446,-0.0073,-0.043,-0.0354,-0.0418,-0.0485,-0.063,-0.1382,-0.1949,-0.2248,-0.3185,-0.3675,-0.3536,-0.3589,-0.3546,-0.3371,-0.3434,-0.3572,-0.3918,-0.3828,-0.3706,-0.363,-0.3718,-0.3763,-0.3763,-0.3844,-0.3875,-0.3922,-0.4109,-0.4152,-0.4191,-0.4009,-0.3892,-0.3758,-0.3426,-0.309,-0.282,-0.2753,-0.2554,-0.2287,-0.2221,-0.2221,-0.2221,-0.2221,-0.2221,-0.2221,-0.2221,-0.2221,-0.2221,-0.2221,-0.2221,-0.2218,-0.2204,-0.1771,-0.1469,-0.2163,-0.2093,-0.1622,-0.0508,-0.028,-0.0336,-0.0561,-0.0561,0.0112,0.2419,0.3268,0.361,0.3602,0.3859,0.4081,0.41,0.3968,0.3897,0.3961,0.3763,0.3672,0.3862,0.3856,0.3636,0.3397,0.3301,0.3093,0.2626,0.2469,0.2268,0.2088,0.2353,0.2485,0.2485,0.3167,0.2898,0.1681,0.2018,0.1884,0.128,0.1344,0.145,0.1462,0.1683,0.1642,0.1572,0.1572,0.1415,0.1335,0.1335,0.1492,0.1803,0.1882,0.2275,0.2904,0.2634,0.27,0.2665,0.2349,0.1612,0.1128,0.1337,0.058,0.0071,0.0143,-0.0,-0.014,-0.021,-0.0769,-0.1271,-0.1523,-0.216,-0.2558,-0.2449,-0.2502,-0.2418,-0.2328,-0.2324,-0.2311,-0.2282,-0.2341,-0.2743,-0.3567,-0.3581,-0.3679,-0.3785,-0.3808,-0.3763,-0.3644,-0.3825,-0.382,-0.3705,-0.3583,-0.3424,-0.3288,-0.3023,-0.2755,-0.2487,-0.2487,-0.2354,-0.2221,-0.2221,-0.2221,-0.2221,-0.2221,-0.2221,-0.2221,-0.2221,-0.2221,-0.2221,-0.2221,-0.1951,-0.1749,-0.2087,-0.193,-0.17,-0.21,-0.1999,-0.1457,-0.0285,-0.0,-0.0,-0.0,0.0673,0.1741,0.3327,0.3436,0.3375,0.3591,0.3685,0.38,0.3917,0.3809,0.3772,0.3818,0.3768,0.3789,0.407,0.4004,0.3909,0.3856,0.3591,0.3291,0.2884,0.2915,0.2835,0.2696,0.3098,0.3293,0.3347,0.3892,0.3556,0.2476,0.242,0.2153,0.1681,0.1404,0.1288,0.1292,0.1511,0.1467,0.1391,0.1408,0.1415,0.1335,0.1492,0.1726,0.196,0.2353,0.2902,0.3452,0.3411,0.3637,0.3763,0.3763,0.291,0.2178,0.2027,0.1099,0.0505,0.0655,0.0362,0.0144,0.0282,-0.0214,-0.0648,-0.1076,-0.1161,-0.1253,-0.1274,-0.1311,-0.124,-0.1134,-0.1132,-0.1047,-0.1025,-0.1046,-0.1943,-0.3589,-0.3295,-0.3367,-0.3734,-0.37,-0.3574,-0.3293,-0.3411,-0.3361,-0.3159,-0.3092,-0.2956,-0.2686,-0.2619,-0.242,-0.2221,-0.2221,-0.2221,-0.2223,-0.2234,-0.2176,-0.2183,-0.2173,-0.2169,-0.2168,-0.2157,-0.2154,-0.2154,-0.2154,-0.1749,-0.1345,-0.1749,-0.1818,-0.1806,-0.1823,-0.1357,-0.0696,0.0291,0.0284,0.0113,0.0393,0.1629,0.2871,0.3383,0.3261,0.3142,0.3527,0.3452,0.3406,0.3696,0.3518,0.3432,0.3611,0.3613,0.3736,0.4062,0.4004,0.4024,0.4237,0.3874,0.3568,0.3387,0.3587,0.3617,0.3538,0.3924,0.4121,0.4134,0.4498,0.4339,0.3732,0.3086,0.2554,0.2082,0.1376,0.1117,0.1127,0.1181,0.1206,0.1211,0.1314,0.1404,0.1406,0.1793,0.2031,0.2196,0.2982,0.3443,0.3742,0.3728,0.3756,0.3763,0.3763,0.3323,0.2855,0.2855,0.2318,0.2007,0.2244,0.1928,0.1845,0.2168,0.1067,-0.0,-0.0543,-0.1012,-0.1267,-0.1243,-0.1299,-0.124,-0.1134,-0.1132,-0.113,-0.1052,-0.113,-0.1583,-0.2558,-0.2639,-0.2941,-0.3462,-0.3448,-0.3227,-0.2867,-0.2867,-0.2898,-0.3023,-0.2686,-0.2551,-0.2686,-0.2354,-0.2221,-0.2221,-0.2221,-0.2221,-0.2228,-0.2213,-0.2266,-0.2231,-0.2109,-0.2023,-0.2014,-0.1898,-0.1884,-0.1884,-0.2154,-0.2154,-0.1817,-0.0606,-0.027,-0.0268,-0.0325,0.1097,0.2558,0.2714,0.1315,0.0465,0.2035,0.2531,0.2755,0.3033,0.32,0.3312,0.3416,0.3454,0.347,0.3528,0.3334,0.329,0.3473,0.3743,0.388,0.4068,0.4219,0.425,0.3938,0.4757,0.5081,0.4485,0.4976,0.5151,0.4859,0.4772,0.4665,0.4684,0.5083,0.5223,0.5153,0.47,0.3627,0.208,0.1416,0.1102,0.1138,0.1161,0.1183,0.12,0.1503,0.1662,0.1752,0.2204,0.2542,0.2982,0.3528,0.3637,0.3579,0.3744,0.3763,0.3746,0.3695,0.3283,0.2973,0.2928,0.2484,0.2265,0.2531,0.2381,0.2244,0.2523,0.1579,0.0912,0.0773,0.0363,0.0074,0.0149,0.0154,0.0155,0.0151,0.0151,0.0227,0.0378,0.0378,-0.0,-0.0694,-0.1949,-0.257,-0.2679,-0.2641,-0.2388,-0.1843,-0.182,-0.1744,-0.1612,-0.1882,-0.2083,-0.2218,-0.2085,-0.2087,-0.2221,-0.2221,-0.2174,-0.2213,-0.2273,-0.2127,-0.1959,-0.2138,-0.2059,-0.1889,-0.2005,-0.1998,-0.1855,-0.115,-0.0943,-0.0808,-0.0202,-0.0,0.0269,0.1459,0.2513,0.322,0.3194,0.2445,0.1836,0.1922,0.2331,0.2751,0.2974,0.303,0.3142,0.3357,0.3288,0.3209,0.3434,0.3225,0.3187,0.3485,0.4038,0.4346,0.4146,0.4621,0.4908,0.4854,0.514,0.5349,0.5444,0.6008,0.6202,0.5848,0.6133,0.623,0.6149,0.6116,0.6102,0.6047,0.5372,0.4225,0.2681,0.242,0.1834,0.1104,0.139,0.1331,0.1201,0.1513,0.1684,0.1783,0.2484,0.2969,0.3375,0.3559,0.3591,0.356]},{"header":{"parameterUnit":"m.s-1","parameterCategory":1,"la1":30.6,"la2":28.766,"lo1":-90.7593,"lo2":-88.6598,"dy":0.0162,"dx":0.0183,"nx":116,"ny":114,"refTime":"2023-07-04T06:00:00:Z","depth":0,"parameterNumber":3,"parameterNumberName":"V-component_of_WINDS"},"data":[0.0,0.0,0.0,0.0,0.0,0.0,0.0,0.0,0.0,0.0,0.0,0.0,0.0,0.0,0.0,0.0,0.0,0.0,0.0,0.0,0.0,0.0,0.0,0.0,0.0,0.0,0.0,0.0,0.0,0.0,0.0,0.0,0.0,0.0,0.0,0.0,0.0,0.0,0.0,0.0,0.0,0.0,0.0,0.0,0.0,0.0,0.0,0.0,0.0,0.0,0.0,0.0,0.0,0.0,0.0,0.0,0.0,0.0,0.0,0.0,0.0,0.0,0.0,0.0,0.0,0.0,0.0,0.0,0.0,0.0,0.0,0.0,0.0,0.0,0.0,0.0,0.0,0.0,0.0,0.0,0.0,0.0,0.0,0.0,0.0,0.0,0.0,0.0,0.0,0.0,0.0,0.0,0.0,0.0,0.0,0.0,0.0,0.0,0.0,0.0,0.0,0.0,0.0,0.0,0.0,0.0,0.0,0.0,0.0,0.0,0.0,0.0,0.0,0.0,0.0,0.0,0.0,0.0,0.0,0.0,0.0,0.0,0.0,0.0,0.0,0.0,0.0,0.0,0.0,0.0,0.0,0.0,0.0,0.0,0.0,0.0,0.0,0.0,0.0,0.0,0.0,0.0,0.0,0.0,0.0,0.0,0.0,0.0,0.0,0.0,0.0,0.0,0.0,0.0,0.0,0.0,0.0,0.0,0.0,0.0,0.0,0.0,0.0,0.0,0.0,0.0,0.0,0.0,0.0,0.0,0.0,0.0,0.0,0.0,0.0,0.0,0.0,0.0,0.0,0.0,0.0,0.0,0.0,0.0,0.0,0.0,0.0,0.0,0.0,0.0,0.0,0.0,0.0,0.0,0.0,0.0,0.0,0.0,0.0,0.0,0.0,0.0,0.0,0.0,0.0,0.0,0.0,0.0,0.0,0.0,0.0,0.0,0.0,0.0,0.0,0.0,0.0,0.0,0.0,0.0,0.0,0.0,0.0,0.0,0.0,0.0,0.0,0.0,0.0,0.0,0.0,0.0,0.0,0.0,0.0,0.0,0.0,0.0,0.0,0.0,0.0,0.0,0.0,0.0,0.0,0.0,0.0,0.0,0.0,0.0,0.0,0.0,0.0,0.0,0.0,0.0,0.0,0.0,0.0,0.0,0.0,0.0,0.0,0.0,0.0,0.0,0.0,0.0,0.0,0.0,0.0,0.0,0.0,0.0,0.0,0.0,0.0,0.0,0.0,0.0,0.0,0.0,0.0,0.0,0.0,0.0,0.0,0.0,0.0,0.0,0.0,0.0,0.0,0.0,0.0,0.0,0.0,0.0,0.0,0.0,0.0,0.0,0.0,0.0,0.0,0.0,0.0,0.0,0.0,0.0,0.0,0.0,0.0,0.0,0.0,0.0,0.0,0.0,0.0,0.0,0.0,0.0,0.0,0.0,0.0,0.0,0.0,0.0,0.0,0.0,0.0,0.0,0.0,0.0,0.0,0.0,0.0,0.0,0.0,0.0,0.0,0.0,0.0,0.0,0.0,0.0,0.0,0.0,0.0,0.0,0.0,0.0,0.0,0.0,0.0,0.0,0.0,0.0,0.0,0.0,0.0,0.0,0.0,0.0,0.0,0.0,0.0,0.0,0.0,0.0,0.0,0.0,0.0,0.0,0.0,0.0,0.0,0.0,0.0,0.0,0.0,0.0,0.0,0.0,0.0,0.0,0.0,0.0,0.0,0.0,0.0,0.0,0.0,0.0,0.0,0.0,0.0,0.0,0.0,0.0,0.0,0.0,0.0,0.0,0.0,0.0,0.0,0.0,0.0,0.0,0.0,0.0,0.0,0.0,0.0,0.0,0.0,0.0,0.0,0.0,0.0,0.0,0.0,0.0,0.0,0.0,0.0,0.0,0.0,0.0,0.0,0.0,0.0,0.0,0.0,0.0,0.0,0.0,0.0,0.0,0.0,0.0,0.0,0.0,0.0,0.0,0.0,0.0,0.0,0.0,0.0,0.0,0.0,0.0,0.0,0.0,0.0,0.0,0.0,0.0,0.0,0.0,0.0,0.0,0.0,0.0,0.0,0.0,0.0,0.0,0.0,0.0,0.0,0.0,0.0,0.0,0.0,0.0,0.0,0.0,0.0,0.0,0.0,0.0,0.0,0.0,0.0,0.0,0.0,0.0,0.0,0.0,0.0,0.0,0.0,0.0,0.0,0.0,0.0,0.0,0.0,0.0,0.0,0.0,0.0,0.0,0.0,0.0,0.0,0.0,0.0,0.0,0.0,0.0,0.0,0.0,0.0,0.0,0.0,0.0,0.0,0.0,0.0,0.0,0.0,0.0,0.0,0.0,0.0,0.0,0.0,0.0,0.0,0.0,0.0,0.0,0.0,0.0,0.0,0.0,0.0,0.0,0.0,0.0,0.0,0.0,0.0,0.0,0.0,0.0,0.0,0.0,0.0,0.0,0.0,0.0,0.0,0.0,0.0,0.0,0.0,0.0,0.0,0.0,0.0,0.0,0.0,0.0,0.0,0.0,0.0,0.0,0.0,0.0,0.0,0.0,0.0,0.0,0.0,0.0,0.0,0.0,0.0,0.0,0.0,0.0,0.0,0.0,0.0,0.0,0.0,0.0,0.0,0.0,0.0,0.0,0.0,0.0,0.0,0.0,0.0,0.0,0.0,0.0,0.0,0.0,0.0,0.0,0.0,0.0,0.0,0.0,0.0,0.0,0.0,0.0,0.0,0.0,0.0,0.0,0.0,0.0,0.0,0.0,0.0,0.0,0.0,0.0,0.0,0.0,0.0,0.0,0.0,0.0,0.0,0.0,0.0,0.0,0.0,0.0,0.0,0.0,0.0,0.0,0.0,0.0,0.0,0.0,0.0,0.0,0.0,0.0,0.0,0.0,0.0,0.0,0.0,0.0,0.0,0.0,0.0,0.0,0.0,0.0,0.0,0.0,0.0,0.0,0.0,0.0,0.0,0.0,0.0,0.0,0.0,0.0,0.0,0.0,0.0,0.0,0.0,0.0,0.0,0.0,0.0,0.0,0.0,0.0,0.0,0.0,0.0,0.0,0.0,0.0,0.0,0.0,0.0,0.0,0.0,0.0,0.0,0.0,0.0,0.0,0.0,0.0,0.0,0.0,0.0,0.0,0.0,0.0,0.0,0.0,0.0,0.0,0.0,0.0,0.0,0.0,0.0,0.0,0.0,0.0,0.0,0.0,0.0,0.0,0.0,0.0,0.0,0.0,0.0,0.0,0.0,0.0,0.0,0.0,0.0,0.0,0.0,0.0,0.0,0.0,0.0,0.0,0.0,0.0,0.0,0.0,0.0,0.0,0.0,0.0,0.0,0.0,0.0,0.0,0.0,0.0,0.0,0.0,0.0,0.0,0.0,0.0,0.0,0.0,0.0,0.0,0.0,0.0,0.0,0.0,0.0,0.0,0.0,0.0,0.0,0.0,0.0,0.0,0.0,0.0,0.0,0.0,0.0,0.0,0.0,0.0,0.0,0.0,0.0,0.0,0.0,0.0,0.0,0.0,0.0,0.0,0.0,0.0,0.0,0.0,0.0,0.0,0.0,0.0,0.0,0.0,0.0,0.0,0.0,0.0,0.0,0.0,0.0,0.0,0.0,0.0,0.0,0.0,0.0,0.0,0.0,0.0,0.0,0.0,0.0,0.0,0.0,0.0,0.0,0.0,0.0,0.0,0.0,0.0,0.0,0.0,0.0,0.0,0.0,0.0,0.0,0.0,0.0,0.0,0.0,0.0,0.0,0.0,0.0,0.0,0.0,0.0,0.0,0.0,0.0,0.0,0.0,0.0,0.0,0.0,0.0,0.0,0.0,0.0,0.0,0.0,0.0,0.0,0.0,0.0,0.0,0.0,0.0,0.0,0.0,0.0,0.0,0.0,0.0,0.0,0.0,0.0,0.0,0.0,0.0,0.0,0.0,0.0,0.0,0.0,0.0,0.0,0.0,0.0,0.0,0.0,0.0,0.0,0.0,0.0,0.0,0.0,0.0,0.0,0.0,0.0,0.0,0.0,0.0,0.0,0.0,0.0,0.0,0.0,0.0,0.0,0.0,0.0,0.0,0.0,0.0,0.0,0.0,0.0,0.0,0.0,0.0,0.0,0.0,0.0,0.0,0.0,0.0,0.0,0.0,0.0,0.0,0.0,0.0,0.0,0.0,0.0,0.0,0.0,0.0,0.0,0.0,0.0,0.0,0.0,0.0,0.0,0.0,0.0,0.0,0.0,0.0,0.0,0.0,0.0,0.0,0.0,0.0,0.0,0.0,0.0,0.0,0.0,0.0,0.0,0.0,0.0,0.0,0.0,0.0,0.0,0.0,0.0,0.0,0.0,0.0,0.0,0.0,0.0,0.0,0.0,0.0,0.0,0.0,0.0,0.0,0.0,0.0,0.0,0.0,0.0,0.0,0.0,0.0,0.0,0.0,0.0,0.0,0.0,0.0,0.0,0.0,0.0,0.0,0.0,0.0,0.0,0.0,0.0,0.0,0.0,0.0,0.0,0.0,0.0,0.0,0.0,0.0,0.0,0.0,0.0,0.0,0.0,0.0,0.0,0.0,0.0,0.0,0.0,0.0,0.0,0.0,0.0,0.0,0.0,0.0,0.0,0.0,0.0,0.0,0.0,0.0,0.0,0.0,0.0,0.0,0.0,0.0,0.0,0.0,0.0,0.0,0.0,0.0,0.0,0.0,0.0,0.0,0.0,0.0,0.0,0.0,0.0,0.0,0.0,0.0,0.0,0.0,0.0,0.0,0.0,0.0,0.0,0.0,0.0,0.0,0.0,0.0,0.0,0.0,0.0,0.0,0.0,0.0,0.0,0.0,0.0,0.0,0.0,0.0,0.0,0.0,0.0,0.0,0.0,0.0,0.0,0.0,0.0,0.0,0.0,0.0,0.0,0.0,0.0,0.0,0.0,0.0,0.0,0.0,0.0,0.0,0.0,0.0,0.0,0.0,0.0,0.0,0.0,0.0,0.0,0.0,0.0,0.0,0.0,0.0,0.0,0.0,0.0,0.0,0.0,0.0,0.0,0.0,0.0,0.0,0.0,0.0,0.0,0.0,0.0,0.0,0.0,0.0,0.0,0.0,0.0,0.0,0.0,0.0,0.0,0.0,0.0,0.0,0.0,0.0,0.0,0.0,0.0,0.0,0.0,0.0,0.0,0.0,0.0,0.0,0.0,0.0,0.0,0.0,0.0,0.0,0.0,0.0,0.0,0.0,0.0,0.0,0.0,0.0,0.0,0.0,0.0,0.0,0.0,0.0,0.0,0.0,0.0,0.0,0.0,0.0,0.0,0.0,0.0,0.0,0.0,0.0,0.0,0.0,0.0,0.0,0.0,0.0,0.0,0.0,0.0,0.0,0.0,0.0,0.0,0.0,0.0,0.0,0.0,0.0,0.0,0.0,0.0,0.0,0.0,0.0,0.0,0.0,0.0,0.0,0.0,0.0,0.0,0.0,0.0,0.0,0.0,0.0,0.0,0.0,0.0,0.0,0.0,0.0,0.0,0.0,0.0,0.0,0.0,0.0,0.0,0.0,0.0,0.0,0.0,0.0,0.0,0.0,0.0,0.0,0.0,0.0,0.0,0.0,0.0,0.0,0.0,0.0,0.0,0.0,0.0,0.0,0.0,0.0,0.0,0.0,0.0,0.0,0.0,0.0,0.0,0.0,0.0,0.0,0.0,0.0,0.0,0.0,0.0,0.0,0.0,0.0,0.0,0.0,0.0,0.0,0.0,0.0,0.0,0.0,0.0,0.0,0.0,0.0,0.0,0.0,0.0,0.0,0.0,0.0,0.0,0.0,0.0,0.0,0.0,0.0,0.0,0.0,0.0,0.0,0.0,0.0,0.0,0.0,0.0,0.0,0.0,0.0,0.0,0.0,0.0,0.0,0.0,0.0,0.0,0.0,0.0,0.0,0.0,0.0,0.0,0.0,0.0,0.0,0.0,0.0,0.0,0.0,0.0,0.0,0.0,0.0,0.0,0.0,0.0,0.0,0.0,0.0,0.0,0.0,0.0,0.0,0.0,0.0,0.0,0.0,0.0,0.0,0.0,0.0,0.0,0.0,0.0,0.0,0.0,-2.6341,-2.6735,0.0,0.0,0.0,0.0,0.0,0.0,0.0,0.0,0.0,0.0,0.0,0.0,0.0,0.0,0.0,0.0,0.0,0.0,0.0,0.0,0.0,0.0,0.0,0.0,0.0,0.0,0.0,0.0,0.0,0.0,0.0,0.0,0.0,0.0,0.0,0.0,0.0,0.0,0.0,0.0,0.0,0.0,0.0,0.0,0.0,0.0,0.0,0.0,0.0,0.0,0.0,0.0,0.0,0.0,0.0,0.0,0.0,0.0,0.0,0.0,0.0,0.0,0.0,0.0,0.0,0.0,0.0,0.0,0.0,0.0,0.0,0.0,0.0,0.0,0.0,0.0,0.0,0.0,0.0,0.0,0.0,0.0,0.0,0.0,0.0,0.0,0.0,0.0,0.0,0.0,0.0,0.0,0.0,0.0,0.0,0.0,0.0,0.0,0.0,0.0,0.0,0.0,0.0,0.0,0.0,0.0,0.0,0.0,0.0,0.0,0.0,0.0,0.0,0.0,-2.6537,-2.6533,0.0,0.0,0.0,0.0,0.0,0.0,0.0,0.0,0.0,0.0,0.0,0.0,0.0,0.0,0.0,0.0,0.0,0.0,0.0,0.0,0.0,0.0,0.0,0.0,0.0,0.0,0.0,0.0,0.0,0.0,0.0,0.0,0.0,0.0,0.0,0.0,0.0,0.0,0.0,0.0,0.0,0.0,0.0,0.0,0.0,0.0,0.0,0.0,0.0,0.0,0.0,0.0,0.0,0.0,0.0,0.0,0.0,0.0,0.0,0.0,0.0,0.0,0.0,0.0,0.0,0.0,0.0,0.0,0.0,0.0,0.0,0.0,0.0,0.0,0.0,0.0,0.0,0.0,0.0,0.0,0.0,0.0,0.0,0.0,0.0,0.0,0.0,0.0,0.0,0.0,0.0,0.0,0.0,0.0,0.0,0.0,0.0,0.0,0.0,0.0,0.0,0.0,0.0,0.0,0.0,0.0,0.0,0.0,-2.6625,-2.6571,-2.6571,-2.6854,-2.7173,-2.7569,-2.6916,-2.6347,-2.5819,-2.5214,0.0,0.0,0.0,0.0,0.0,0.0,0.0,0.0,0.0,0.0,0.0,0.0,0.0,0.0,0.0,0.0,0.0,0.0,0.0,0.0,0.0,0.0,0.0,0.0,0.0,0.0,0.0,0.0,0.0,0.0,0.0,0.0,0.0,0.0,0.0,0.0,0.0,0.0,0.0,0.0,0.0,0.0,0.0,0.0,0.0,0.0,0.0,0.0,0.0,0.0,0.0,0.0,0.0,0.0,0.0,0.0,0.0,0.0,0.0,0.0,0.0,0.0,0.0,0.0,0.0,0.0,0.0,0.0,0.0,0.0,0.0,0.0,0.0,0.0,0.0,0.0,0.0,0.0,0.0,0.0,0.0,0.0,0.0,0.0,0.0,0.0,-3.1778,-3.1559,0.0,0.0,0.0,0.0,0.0,0.0,0.0,0.0,0.0,0.0,0.0,0.0,0.0,-2.6904,-2.6823,-2.628,-2.6009,-2.6009,-2.5794,-2.5673,-2.5729,-2.69,-2.7469,-2.7473,-2.7041,0.0,-2.7289,-2.6061,0.0,0.0,0.0,0.0,0.0,0.0,0.0,0.0,0.0,0.0,0.0,0.0,0.0,0.0,0.0,0.0,0.0,0.0,0.0,0.0,0.0,0.0,0.0,0.0,0.0,0.0,0.0,0.0,0.0,0.0,0.0,0.0,0.0,0.0,0.0,0.0,0.0,0.0,0.0,0.0,0.0,0.0,0.0,0.0,0.0,0.0,0.0,0.0,0.0,0.0,0.0,0.0,0.0,0.0,0.0,0.0,0.0,0.0,0.0,0.0,0.0,0.0,0.0,0.0,0.0,0.0,0.0,0.0,0.0,0.0,0.0,0.0,0.0,0.0,0.0,0.0,0.0,0.0,0.0,0.0,0.0,0.0,0.0,0.0,0.0,-3.2734,-3.1129,-3.0917,-2.9784,-2.9254,0.0,0.0,0.0,0.0,0.0,0.0,0.0,0.0,0.0,-2.644,-2.6353,-2.6145,-2.5805,-2.572,-2.5711,-2.5697,-2.5661,-2.5798,-2.6111,-2.6602,-2.7195,-2.7773,-2.6872,-2.7055,-2.7783,-2.5964,-2.5854,-2.6807,0.0,0.0,0.0,0.0,-2.751,-2.7556,0.0,0.0,0.0,0.0,0.0,0.0,0.0,0.0,0.0,0.0,0.0,0.0,0.0,0.0,0.0,0.0,0.0,0.0,0.0,0.0,0.0,0.0,0.0,0.0,0.0,0.0,0.0,0.0,0.0,0.0,0.0,0.0,0.0,0.0,0.0,0.0,0.0,0.0,0.0,0.0,0.0,0.0,0.0,0.0,0.0,0.0,0.0,0.0,0.0,0.0,0.0,0.0,0.0,0.0,0.0,0.0,0.0,0.0,0.0,0.0,0.0,0.0,0.0,0.0,0.0,0.0,0.0,0.0,0.0,0.0,0.0,0.0,0.0,0.0,0.0,0.0,0.0,-3.2563,-3.085,-3.0514,-2.9333,-2.8883,0.0,0.0,0.0,0.0,0.0,0.0,-2.6968,-2.6745,-2.6426,-2.5986,-2.5901,-2.5668,-2.523,-2.5481,-2.5605,-2.5536,-2.5743,-2.6096,-2.6616,-2.6692,-2.7333,-2.8259,-2.7039,-2.7027,-2.7699,-2.5694,-2.5354,-2.6125,-2.5947,-2.6442,-2.7232,-2.6947,-2.6952,-2.7097,0.0,0.0,0.0,0.0,0.0,0.0,0.0,0.0,0.0,0.0,0.0,0.0,0.0,0.0,0.0,0.0,0.0,0.0,0.0,0.0,0.0,0.0,0.0,0.0,0.0,0.0,0.0,0.0,0.0,0.0,0.0,0.0,0.0,0.0,0.0,0.0,0.0,0.0,0.0,0.0,0.0,0.0,0.0,0.0,0.0,0.0,0.0,0.0,0.0,0.0,0.0,0.0,0.0,0.0,0.0,0.0,0.0,0.0,0.0,0.0,0.0,0.0,0.0,0.0,0.0,0.0,0.0,0.0,0.0,0.0,0.0,0.0,0.0,0.0,0.0,0.0,0.0,0.0,0.0,-3.0552,-2.9307,0.0,0.0,0.0,0.0,-2.8067,-2.7499,-2.7059,-2.6834,-2.6507,-2.6073,-2.5564,-2.5785,-2.5881,-2.5839,-2.5893,-2.5839,-2.5674,-2.5948,-2.6365,-2.6901,-2.7685,-2.8336,-2.8779,-2.7794,-2.729,-2.7142,-2.5687,-2.5844,-2.6988,-2.6267,-2.6618,-2.7419,-2.676,-2.6708,-2.6961,0.0,0.0,0.0,0.0,0.0,0.0,0.0,0.0,0.0,0.0,0.0,0.0,0.0,0.0,0.0,0.0,0.0,0.0,0.0,0.0,0.0,0.0,0.0,0.0,0.0,0.0,0.0,0.0,0.0,0.0,0.0,0.0,0.0,0.0,0.0,0.0,0.0,0.0,0.0,0.0,0.0,0.0,0.0,0.0,0.0,0.0,0.0,0.0,0.0,0.0,0.0,0.0,0.0,0.0,0.0,0.0,0.0,0.0,0.0,0.0,0.0,0.0,0.0,0.0,0.0,0.0,0.0,0.0,0.0,0.0,0.0,0.0,0.0,0.0,0.0,0.0,0.0,0.0,0.0,-2.9729,-2.8616,0.0,-2.8424,-2.7797,-2.7343,-2.7286,-2.658,-2.6076,-2.612,-2.5911,-2.5758,-2.5647,-2.5647,-2.5647,-2.5647,-2.5907,-2.6002,-2.5948,-2.651,-2.7019,-2.755,-2.8046,-2.831,-2.8349,-2.7502,-2.6852,-2.6309,-2.563,-2.5495,-2.5733,-2.571,-2.5892,-2.614,-2.6211,-2.6299,-2.6376,0.0,0.0,0.0,0.0,0.0,0.0,0.0,0.0,0.0,0.0,0.0,0.0,0.0,0.0,0.0,0.0,0.0,0.0,0.0,0.0,0.0,0.0,0.0,0.0,0.0,0.0,0.0,0.0,0.0,0.0,0.0,0.0,0.0,0.0,0.0,0.0,0.0,0.0,0.0,0.0,0.0,0.0,-3.0272,0.0,0.0,0.0,0.0,0.0,0.0,0.0,0.0,0.0,0.0,0.0,0.0,0.0,0.0,0.0,0.0,0.0,0.0,0.0,0.0,0.0,0.0,0.0,0.0,0.0,0.0,0.0,0.0,0.0,0.0,0.0,0.0,0.0,0.0,-3.0644,-2.9262,-2.9057,-2.8061,-2.7527,-2.7897,-2.7173,-2.6651,-2.6595,-2.5994,-2.5688,-2.5784,-2.5688,-2.5702,-2.5839,-2.5798,-2.5812,-2.5853,-2.6071,-2.6111,-2.6111,-2.6707,-2.7312,-2.7849,-2.8207,-2.828,-2.8107,-2.7379,-2.6709,-2.6084,-2.5673,-2.526,-2.4948,-2.5496,-2.5742,-2.5848,-2.6156,-2.6297,-2.6435,0.0,0.0,0.0,0.0,0.0,0.0,0.0,0.0,0.0,0.0,0.0,0.0,0.0,0.0,0.0,0.0,0.0,0.0,0.0,0.0,0.0,0.0,0.0,0.0,0.0,0.0,0.0,0.0,0.0,0.0,0.0,0.0,0.0,0.0,0.0,0.0,0.0,0.0,0.0,0.0,0.0,0.0,-2.9603,0.0,0.0,0.0,0.0,0.0,0.0,0.0,0.0,0.0,0.0,0.0,0.0,0.0,0.0,0.0,0.0,0.0,0.0,0.0,0.0,0.0,0.0,0.0,0.0,0.0,0.0,0.0,0.0,0.0,0.0,0.0,0.0,0.0,-3.1121,-3.012,-2.9144,-2.8537,-2.7637,-2.7021,-2.6877,-2.6548,-2.6179,-2.5948,-2.5893,-2.5893,-2.5893,-2.5893,-2.5948,-2.6111,-2.6233,-2.6326,-2.6457,-2.6379,-2.6233,-2.6111,-2.6654,-2.7195,-2.7735,-2.8255,-2.8435,-2.824,-2.7508,-2.6917,-2.6398,-2.5756,-2.5192,-2.4832,-2.5752,-2.6315,-2.6573,-2.6607,-2.6825,-2.7135,0.0,0.0,0.0,0.0,0.0,0.0,0.0,0.0,0.0,0.0,0.0,0.0,0.0,0.0,0.0,0.0,0.0,0.0,0.0,0.0,0.0,0.0,0.0,0.0,0.0,0.0,0.0,0.0,0.0,0.0,0.0,0.0,0.0,0.0,0.0,0.0,0.0,0.0,0.0,0.0,0.0,0.0,-2.8746,0.0,0.0,0.0,0.0,0.0,0.0,0.0,0.0,0.0,0.0,0.0,0.0,0.0,0.0,0.0,0.0,0.0,0.0,0.0,0.0,0.0,0.0,0.0,0.0,0.0,0.0,0.0,0.0,0.0,0.0,0.0,-3.1025,-3.0428,-3.0107,-2.9033,-2.8105,-2.7563,-2.6886,-2.6543,-2.6608,-2.6264,-2.6002,-2.6056,-2.5948,-2.5893,-2.5893,-2.5893,-2.5893,-2.5948,-2.6002,-2.6056,-2.6042,-2.6111,-2.6179,-2.6218,-2.7071,-2.7665,-2.8012,-2.8669,-2.8322,-2.7261,-2.7044,-2.6398,-2.5447,-2.5086,-2.5332,-2.5979,-2.6403,-2.6185,-2.5782,-2.6753,-2.7087,-2.7103,0.0,0.0,0.0,0.0,0.0,0.0,0.0,0.0,0.0,0.0,0.0,0.0,0.0,0.0,0.0,0.0,0.0,0.0,0.0,0.0,0.0,0.0,0.0,0.0,0.0,0.0,0.0,0.0,0.0,0.0,0.0,0.0,0.0,0.0,0.0,0.0,0.0,0.0,0.0,0.0,0.0,0.0,-2.814,-2.9374,-3.0693,-3.2055,-3.3215,-3.3992,-3.4504,-3.4883,0.0,0.0,0.0,0.0,0.0,0.0,0.0,0.0,0.0,0.0,0.0,0.0,0.0,0.0,0.0,0.0,0.0,0.0,0.0,0.0,0.0,0.0,0.0,0.0,-3.0268,-2.9604,-2.9118,-2.8045,-2.721,-2.6864,-2.6472,-2.6218,-2.6258,-2.6258,-2.6258,-2.6258,-2.6457,-2.6549,-2.6549,-2.6549,-2.6616,-2.6654,-2.6602,-2.6616,-2.6654,-2.6669,-2.6759,-2.6916,-2.768,-2.8174,-2.8352,-2.8967,-2.8542,-2.7274,-2.729,-2.6639,-2.5635,-2.517,-2.5447,-2.6135,0.0,0.0,0.0,0.0,-2.7184,-2.7103,0.0,0.0,0.0,0.0,0.0,0.0,0.0,0.0,0.0,0.0,0.0,0.0,0.0,0.0,0.0,0.0,0.0,0.0,0.0,0.0,0.0,0.0,0.0,0.0,0.0,0.0,0.0,0.0,0.0,0.0,0.0,0.0,0.0,0.0,0.0,0.0,0.0,0.0,0.0,0.0,0.0,0.0,-2.7752,-2.915,-3.039,-3.1569,-3.3108,-3.3707,-3.3906,-3.468,0.0,0.0,0.0,0.0,0.0,0.0,0.0,0.0,0.0,0.0,0.0,0.0,0.0,0.0,0.0,0.0,0.0,0.0,0.0,0.0,0.0,0.0,0.0,0.0,-2.9626,-2.8873,-2.84,-2.7363,-2.6669,-2.6669,-2.6418,-2.6258,-2.615,-2.651,-2.6774,-2.6654,-2.7159,-2.7515,-2.7515,-2.7515,0.0,0.0,0.0,-2.7565,-2.768,-2.7565,-2.755,-2.7685,-2.8207,-2.8559,-2.8732,-2.9289,-2.8893,-2.7753,-2.7834,-2.7328,-2.6351,-2.5581,-2.5407,-2.5618,-2.5891,-2.645,-2.7135,-2.7103,-2.7103,-2.707,0.0,0.0,0.0,0.0,0.0,0.0,0.0,0.0,0.0,0.0,0.0,0.0,0.0,0.0,0.0,0.0,0.0,0.0,0.0,0.0,0.0,0.0,0.0,0.0,0.0,0.0,0.0,0.0,0.0,0.0,0.0,0.0,0.0,0.0,0.0,0.0,0.0,0.0,0.0,0.0,0.0,0.0,-2.7735,-2.8189,-2.9781,-3.1923,-3.2928,-3.3741,-3.4369,-3.4536,-3.4842,-3.4943,-3.3651,0.0,0.0,0.0,0.0,0.0,0.0,0.0,0.0,0.0,0.0,0.0,0.0,0.0,0.0,0.0,0.0,0.0,0.0,0.0,0.0,-3.0291,-2.9217,-2.8463,-2.8463,-2.7879,-2.7479,-2.7479,-2.7429,-2.7414,-2.7515,-2.7414,-2.7363,-2.7479,-2.7464,-2.7515,-2.7515,-2.7515,-2.7515,-2.7515,-2.7515,-2.7515,-2.7515,-2.7515,-2.7565,-2.773,-2.8158,0.0,-2.8732,-2.9496,-2.9026,-2.764,-2.8102,-2.7614,-2.637,-2.4994,-2.465,-2.5043,-2.5733,-2.653,-2.725,-2.7072,-2.7007,-2.704,0.0,0.0,0.0,0.0,0.0,0.0,0.0,0.0,0.0,0.0,0.0,0.0,0.0,0.0,0.0,0.0,0.0,0.0,0.0,0.0,0.0,0.0,0.0,0.0,0.0,0.0,0.0,0.0,0.0,0.0,0.0,0.0,0.0,0.0,0.0,0.0,0.0,0.0,0.0,0.0,0.0,0.0,-2.7951,-2.8055,-2.9433,-3.1409,-3.2297,-3.2863,-3.3266,-3.3746,-3.3837,-3.3664,-3.3189,-3.3566,-3.4109,0.0,0.0,0.0,0.0,0.0,0.0,0.0,0.0,0.0,0.0,0.0,0.0,0.0,0.0,-3.1248,-3.028,0.0,-3.0243,-2.9706,-2.9108,-2.8716,-2.8779,-2.8574,-2.8271,-2.7864,-2.773,-2.768,-2.7715,-2.7799,-2.7849,-2.7815,-2.8125,-2.8271,-2.8207,-2.8271,-2.8319,-2.8319,-2.8319,-2.8319,-2.8319,-2.8319,-2.8367,-2.8511,-2.895,-2.9241,-2.9483,-3.0064,-2.9567,-2.8274,-2.854,-2.7683,-2.5999,-2.5399,-2.5312,-2.5673,-2.6549,-2.7026,-2.7201,-2.7201,-2.7152,-2.712,0.0,0.0,0.0,0.0,0.0,0.0,0.0,0.0,0.0,0.0,0.0,0.0,0.0,0.0,0.0,0.0,0.0,0.0,0.0,0.0,0.0,0.0,0.0,0.0,0.0,0.0,0.0,0.0,0.0,0.0,0.0,0.0,0.0,0.0,0.0,0.0,0.0,0.0,0.0,0.0,0.0,0.0,-2.8221,-2.822,-2.925,-3.0821,-3.1708,-3.1981,-3.2054,-3.2822,-3.2693,-3.2316,-3.269,-3.3112,-3.3519,-3.3829,-3.4538,0.0,0.0,0.0,0.0,0.0,0.0,0.0,0.0,-3.16,-3.1474,-3.016,-3.0508,-3.0724,-2.9761,-2.999,-3.0003,-2.9216,-2.9075,-2.9075,-2.9075,-2.9075,-2.8826,-2.8207,-2.8027,-2.7929,-2.7815,-2.8158,-2.8352,-2.8158,-2.8685,-2.8982,-2.8967,-2.9013,-2.9121,-2.9213,-2.9213,-2.9259,-2.9335,-2.938,-2.9425,-2.956,-2.9941,-3.0156,-3.0215,-3.0642,-3.0185,-2.9056,-2.8706,-2.7317,-2.5418,-2.5914,-2.6212,-2.6434,-2.7432,-2.7565,-2.723,-2.7373,-2.7355,-2.7307,0.0,0.0,0.0,0.0,0.0,0.0,0.0,0.0,0.0,0.0,0.0,0.0,0.0,0.0,0.0,0.0,0.0,0.0,0.0,0.0,0.0,0.0,0.0,0.0,0.0,0.0,0.0,0.0,0.0,0.0,0.0,0.0,0.0,0.0,0.0,0.0,0.0,0.0,0.0,0.0,0.0,0.0,-2.8289,-2.8293,-2.9332,-3.0899,-3.1775,-3.207,-3.2089,-3.2206,-3.2634,-3.2918,-3.1519,-3.2591,-3.4204,-3.3433,0.0,-3.5342,-3.5209,-3.4737,-3.4101,-3.3347,-3.3048,-3.2552,0.0,-3.1313,-3.137,-2.9587,-3.0171,-3.0583,-2.917,-2.9453,-2.9685,-2.9183,-2.9075,-2.9075,-2.9075,-2.9013,-2.892,-2.8967,-2.8936,-2.8936,-2.892,-2.8858,-2.8858,-2.8967,-2.8873,-2.892,-2.9075,-2.8967,-2.9136,-2.9544,-2.9677,-2.9881,-3.0166,-3.0267,-3.0351,-3.0351,-3.0435,-3.0393,-3.0309,-3.0845,-3.0572,-2.9602,-2.793,-2.6228,-2.4706,-2.5764,-2.6177,-2.6234,-2.7425,-2.776,-2.7557,-2.7557,-2.7557,-2.7587,0.0,0.0,0.0,0.0,0.0,0.0,0.0,0.0,0.0,0.0,0.0,0.0,0.0,0.0,0.0,0.0,0.0,0.0,0.0,0.0,0.0,0.0,0.0,0.0,0.0,0.0,0.0,0.0,0.0,0.0,0.0,0.0,0.0,0.0,0.0,0.0,0.0,0.0,0.0,0.0,0.0,0.0,-2.9062,-2.9057,-3.0092,-3.1601,-3.1973,-3.2107,0.0,0.0,-3.2318,-3.248,-3.1776,-3.2584,-3.3813,-3.3887,-3.47,0.0,-3.5081,-3.4377,-3.3754,-3.3603,-3.3191,-3.2555,-3.1534,-3.1529,-3.1284,-2.9661,-2.9864,-3.0163,-2.945,-2.9564,-2.9722,-2.9425,-2.9213,-2.9075,-2.9075,-2.8967,-2.8904,-2.8967,-2.8967,-2.9013,-2.9075,-2.8951,-2.8873,-2.892,-2.8905,-2.8967,-2.9257,-2.9319,-2.9528,-2.9995,-3.0054,-3.0182,-3.0293,-3.0418,-3.0518,-3.0518,-3.0683,-3.0764,-3.0723,-3.1157,-3.0466,-2.8833,-2.7319,-2.6286,-2.5663,-2.5792,-2.6451,-2.7444,-2.7976,-2.8146,-2.8035,-2.7876,-2.7789,-2.7748,0.0,0.0,0.0,0.0,0.0,0.0,0.0,0.0,0.0,0.0,0.0,0.0,0.0,0.0,0.0,0.0,0.0,0.0,0.0,0.0,0.0,0.0,0.0,0.0,0.0,0.0,0.0,0.0,0.0,0.0,0.0,0.0,0.0,0.0,0.0,0.0,0.0,0.0,0.0,0.0,0.0,0.0,-2.9628,-2.9877,-3.0855,-3.2092,-3.2103,-3.2241,0.0,0.0,-3.2465,-3.2461,-3.2461,-3.3027,-3.3807,-3.4358,-3.5069,-3.5515,-3.483,-3.4206,-3.3767,-3.3743,-3.3294,-3.2757,-3.2365,-3.2036,-3.1529,-3.0523,-3.0379,-3.0345,-3.0096,-3.0088,-3.0054,-2.981,-2.956,-2.9396,-2.9396,-2.9273,-2.9227,-2.9273,-2.9182,-2.9227,-2.9396,-2.906,-2.8842,-2.9014,-2.8967,-2.9166,-2.9601,-2.9661,-2.9924,-3.0418,-3.046,-3.0559,-3.0666,-3.0804,-3.0845,-3.0845,-3.1201,-3.1355,-3.1278,-3.16,-3.0627,-2.8674,-2.7335,-2.6772,-2.6753,-2.5941,-2.6632,-2.8201,-2.838,-2.838,-2.8345,-2.8174,-2.8035,-2.795,0.0,0.0,0.0,0.0,0.0,0.0,0.0,0.0,0.0,0.0,0.0,0.0,0.0,0.0,0.0,0.0,0.0,0.0,0.0,0.0,0.0,0.0,0.0,0.0,0.0,0.0,0.0,0.0,0.0,0.0,0.0,0.0,0.0,0.0,0.0,0.0,0.0,0.0,0.0,0.0,0.0,0.0,-2.9691,-3.055,-3.1389,-3.2109,-3.2095,0.0,0.0,0.0,-3.335,-3.3361,-3.3361,-3.3968,0.0,-3.4605,-3.5065,-3.5412,-3.4481,-3.4429,-3.4471,-3.3618,-3.3456,-3.3473,-3.3455,-3.289,-3.2366,-3.2315,-3.2021,-3.16,-3.1067,-3.0965,-3.0781,-3.0274,-3.0146,-3.0146,-3.0146,-3.0027,-3.0027,-3.0146,-2.9941,-2.9897,-3.0146,-2.9321,-2.9014,-2.9544,-2.9273,-2.9409,-3.0146,-3.0087,-3.0225,-3.0764,-3.0925,-3.1179,-3.1542,-3.1709,-3.1746,-3.1746,-3.2109,-3.2162,-3.1967,-3.2248,-3.1456,-2.9761,-2.8237,-2.7566,-2.7455,-2.6136,-2.6508,-2.7954,-2.8344,-2.838,-2.8227,-2.8327,-2.83,-2.8182,0.0,0.0,0.0,0.0,0.0,0.0,0.0,0.0,0.0,0.0,0.0,0.0,0.0,0.0,0.0,0.0,0.0,0.0,0.0,0.0,0.0,0.0,0.0,0.0,0.0,0.0,0.0,0.0,0.0,0.0,0.0,0.0,0.0,0.0,0.0,0.0,0.0,0.0,0.0,0.0,0.0,0.0,-3.1352,-3.2172,-3.3056,-3.3829,0.0,0.0,0.0,0.0,0.0,-3.4259,-3.4259,-3.4454,-3.4791,-3.531,-3.5109,-3.4639,-3.4192,-3.3635,-3.3053,-3.2477,-3.2706,-3.3015,-3.2775,-3.2871,-3.297,-3.283,-3.2842,-3.2786,-3.2585,-3.2071,-3.1664,-3.145,-3.0714,-3.0189,-3.0189,-3.0087,-3.0027,-3.007,-2.9984,-2.9984,-3.007,-2.9677,-2.9589,-2.9853,-2.975,-2.9924,-3.0435,-3.0518,-3.0723,-3.1123,-3.1274,-3.1466,-3.1802,-3.1894,-3.2073,-3.2335,-3.2472,-3.242,-3.2265,-3.2086,-3.1067,-2.9372,-2.7984,-2.7397,-2.7316,-2.6348,-2.6874,-2.8388,-2.8432,-2.838,-2.8318,-2.8282,-2.8227,-2.8182,0.0,0.0,0.0,0.0,0.0,0.0,0.0,0.0,0.0,0.0,0.0,0.0,0.0,0.0,0.0,0.0,0.0,0.0,0.0,0.0,0.0,0.0,0.0,0.0,0.0,0.0,0.0,0.0,0.0,0.0,0.0,0.0,0.0,0.0,0.0,0.0,0.0,0.0,0.0,0.0,0.0,0.0,-3.263,-3.3443,-3.415,0.0,0.0,0.0,0.0,0.0,0.0,-3.5169,-3.5169,-3.5169,-3.5209,-3.5371,-3.4924,-3.4197,-3.3395,-3.2809,-3.2291,-3.1711,-3.2229,-3.2765,-3.221,-3.2711,-3.3171,-3.2751,-3.2962,-3.3213,-3.3281,-3.2648,-3.2241,-3.2594,-3.1767,-3.1033,-3.1033,-3.0975,-3.0817,-3.0485,-3.0435,-3.0435,-3.0452,-3.0368,-3.0284,-3.0241,-3.0199,-3.0351,-3.0764,-3.0988,-3.1223,-3.1524,-3.1711,-3.1948,-3.2144,-3.2197,-3.2403,-3.2752,-3.2453,-3.2325,-3.2335,-3.1739,-3.0872,-2.9748,-2.842,-2.8003,-2.8191,-2.7214,-2.7588,-2.8773,-2.8646,-2.8474,-2.8352,-2.8402,-2.8448,-2.8422,0.0,0.0,0.0,0.0,0.0,0.0,0.0,0.0,0.0,0.0,0.0,0.0,0.0,0.0,0.0,0.0,0.0,0.0,0.0,0.0,0.0,0.0,0.0,0.0,0.0,0.0,0.0,0.0,0.0,0.0,0.0,0.0,0.0,0.0,0.0,0.0,0.0,0.0,0.0,0.0,0.0,0.0,-3.3465,-3.4335,0.0,0.0,0.0,0.0,0.0,0.0,0.0,-3.5976,-3.5898,-3.5879,-3.5684,-3.4804,-3.4443,-3.3978,-3.2196,-3.2034,-3.2159,-3.125,-3.1914,-3.26,-3.1838,-3.2496,-3.306,-3.2299,-3.2523,-3.2983,-3.3301,-3.2756,-3.2577,-3.3585,-3.3071,-3.252,-3.244,-3.248,-3.2207,-3.1314,-3.1252,-3.1274,-3.119,-3.119,-3.1072,-3.0773,-3.0617,-3.074,-3.119,-3.1524,-3.1768,-3.193,-3.2214,-3.247,-3.2588,-3.2639,-3.2802,-3.3117,-3.2271,-3.2043,-3.2283,-3.1337,-3.0902,-3.0803,-2.9381,-2.9222,-2.9862,-2.8595,-2.8491,-2.9107,-2.8978,-2.8629,-2.8292,-2.8686,-2.8838,-2.8782,0.0,0.0,0.0,0.0,0.0,0.0,0.0,0.0,0.0,0.0,0.0,0.0,0.0,0.0,0.0,0.0,0.0,0.0,0.0,0.0,0.0,0.0,0.0,0.0,0.0,0.0,0.0,0.0,0.0,0.0,0.0,0.0,0.0,0.0,0.0,0.0,0.0,0.0,0.0,0.0,0.0,0.0,-3.4281,0.0,0.0,0.0,0.0,0.0,0.0,0.0,0.0,-3.5762,-3.4473,-3.4062,-3.4019,-3.3711,-3.3126,-3.2441,-3.185,-3.1289,-3.0753,-3.0333,-3.0881,-3.1468,-3.1105,-3.2061,-3.2957,-3.2754,-3.3413,-3.4096,-3.4167,-3.3475,-3.2941,-3.3187,-3.229,-3.1517,-3.1381,-3.1461,-3.1489,-3.1224,-3.123,-3.123,-3.119,-3.119,-3.1252,-3.1432,-3.1196,-3.1196,-3.1545,-3.1748,-3.1949,-3.2179,-3.2317,-3.2519,-3.2749,-3.3055,-3.3256,-3.3404,-3.3158,-3.2883,-3.2488,-3.1667,-3.0998,-3.0423,-2.8835,-2.8642,-2.941,-2.8435,-2.8513,-2.9237,-2.9153,-2.9034,-2.8798,-2.8235,-2.7985,-2.8009,0.0,0.0,0.0,0.0,0.0,0.0,0.0,0.0,0.0,0.0,0.0,0.0,0.0,0.0,0.0,0.0,0.0,0.0,0.0,0.0,0.0,0.0,0.0,0.0,0.0,0.0,0.0,0.0,0.0,0.0,0.0,0.0,0.0,0.0,0.0,0.0,0.0,0.0,0.0,0.0,0.0,0.0,0.0,0.0,0.0,0.0,0.0,0.0,0.0,0.0,0.0,-3.5762,-3.4394,-3.3964,-3.3816,-3.3018,-3.2361,-3.1794,-3.1317,-3.0746,-3.0253,-3.0079,-3.0563,-3.1068,-3.096,-3.1942,-3.2887,-3.2906,-3.3587,-3.4225,-3.4406,-3.3723,-3.3178,-3.3494,-3.271,-3.2,-3.1844,-3.1961,-3.1994,-3.1709,-3.1711,-3.1711,-3.1711,-3.1674,-3.1768,-3.1967,-3.162,-3.16,-3.1932,-3.2179,-3.2351,-3.2502,-3.2734,-3.2894,-3.3068,-3.3286,-3.3422,-3.3452,-3.3089,-3.2611,-3.199,-3.1187,-3.0436,-2.9795,-2.8957,-2.889,-2.9319,-2.9008,-2.9157,-2.9551,-2.9532,-2.9474,-2.9341,-2.8814,-2.81,-2.7442,0.0,0.0,0.0,0.0,0.0,0.0,0.0,0.0,0.0,0.0,0.0,0.0,0.0,0.0,0.0,0.0,0.0,0.0,0.0,0.0,0.0,0.0,0.0,0.0,0.0,0.0,0.0,0.0,0.0,0.0,0.0,0.0,0.0,0.0,0.0,0.0,0.0,0.0,0.0,0.0,0.0,0.0,0.0,0.0,0.0,0.0,0.0,0.0,0.0,0.0,-3.5312,-3.582,-3.4844,-3.4528,-3.4205,-3.2561,-3.2002,-3.1687,-3.0733,-3.0414,-3.0279,-3.0232,-3.0677,-3.1137,-3.1138,-3.2084,-3.2934,-3.2948,-3.3342,-3.3834,-3.422,-3.3615,-3.3294,-3.3888,-3.3465,-3.2993,-3.2824,-3.2956,-3.2895,-3.2353,-3.2351,-3.2351,-3.2317,-3.2283,-3.2317,-3.2368,-3.2021,-3.2003,-3.2351,-3.2634,-3.2827,-3.2876,-3.3208,-3.3393,-3.3393,-3.3393,-3.3393,-3.3393,-3.2607,-3.1937,-3.1336,-3.0473,-2.9784,-2.9233,-2.9456,-2.9514,-2.9476,-2.9855,-2.9959,-2.991,-2.991,-2.9876,-2.9789,-2.9677,-2.863,-2.7268,0.0,0.0,0.0,0.0,0.0,0.0,0.0,0.0,0.0,0.0,-2.9822,0.0,0.0,0.0,0.0,0.0,0.0,0.0,0.0,0.0,0.0,0.0,0.0,0.0,0.0,0.0,0.0,0.0,0.0,0.0,0.0,0.0,0.0,0.0,0.0,0.0,0.0,0.0,0.0,0.0,0.0,0.0,0.0,0.0,0.0,0.0,0.0,0.0,0.0,0.0,-3.5762,-3.5723,-3.4121,-3.3633,-3.3417,-3.2331,-3.1958,-3.1678,-3.0685,-3.0352,-3.0279,-3.0232,-3.0767,-3.1363,-3.1348,-3.2316,0.0,-3.3156,-3.3432,-3.3725,-3.3712,-3.3328,-3.3001,-3.2976,-3.2685,-3.2389,-3.2159,-3.2354,-3.2406,-3.23,-3.2317,-3.2317,-3.2317,-3.2266,-3.2369,-3.2699,-3.2619,-3.2586,-3.2699,-3.2763,-3.2939,-3.3286,-3.3364,-3.3393,-3.3393,-3.3393,-3.3393,-3.3393,-3.2766,-3.2162,-3.1612,-3.0916,-3.028,-2.9754,-2.9806,-2.9823,-2.982,-2.9956,-3.0007,-2.9991,-2.9991,-2.9943,-2.9784,-2.8998,-2.8496,-2.8125,0.0,0.0,0.0,0.0,0.0,0.0,0.0,0.0,0.0,0.0,-3.0218,-3.0378,0.0,0.0,0.0,0.0,0.0,0.0,0.0,0.0,0.0,0.0,0.0,0.0,0.0,0.0,0.0,0.0,0.0,0.0,0.0,0.0,0.0,0.0,0.0,0.0,0.0,0.0,0.0,0.0,0.0,0.0,0.0,0.0,0.0,0.0,0.0,0.0,0.0,0.0,-3.5875,-3.5723,-3.4473,-3.3769,-3.3221,-3.2311,-3.1953,-3.1651,-3.0761,-3.0714,-3.0904,-3.0849,-3.114,-3.166,-3.2461,0.0,0.0,-3.3695,-3.367,-3.3605,-3.3605,-3.3415,-3.3273,-3.3366,-3.2918,-3.2643,-3.2931,-3.2717,-3.2586,-3.283,-3.288,-3.2848,-3.2816,-3.2816,-3.2898,-3.3055,-3.3055,-3.3086,-3.3099,-3.3099,-3.3208,-3.3393,-3.3393,-3.3393,-3.3393,-3.3102,-3.2921,-3.2921,-3.2364,-3.1779,-3.1225,-3.0858,-3.0415,-2.9895,-2.9895,-2.9893,-2.991,-2.9956,-3.0007,-3.0007,-3.0007,-2.9975,-2.9836,-2.9391,-2.9152,-2.9043,0.0,0.0,0.0,0.0,0.0,0.0,0.0,-2.9552,-2.9907,-3.053,-3.0617,-3.0588,-3.053,-3.0394,-3.0248,0.0,0.0,0.0,0.0,0.0,0.0,0.0,0.0,0.0,0.0,0.0,0.0,-2.8551,0.0,0.0,0.0,0.0,0.0,0.0,-3.026,0.0,0.0,0.0,0.0,0.0,0.0,0.0,0.0,0.0,0.0,0.0,0.0,0.0,0.0,0.0,-3.5866,-3.5797,-3.5176,-3.451,-3.3742,-3.2697,-3.2366,-3.2141,-3.1125,-3.1314,-3.1757,-3.1694,-3.1866,-3.2352,-3.3534,-3.3657,-3.3687,-3.4391,-3.4152,-3.3858,-3.4069,-3.4058,-3.4111,0.0,-3.3884,-3.3602,-3.3987,-3.3523,-3.3172,-3.3382,-3.3393,-3.3382,-3.331,-3.3352,-3.3352,-3.3292,-3.3352,-3.3393,-3.3393,-3.3393,-3.3393,-3.3393,-3.327,-3.3208,-3.3208,-3.2619,-3.2327,-3.2309,-3.1784,-3.1259,-3.0789,-3.0602,-3.0302,-2.9893,-2.9893,-2.9893,-2.9912,-3.0165,-3.0273,-3.0276,-3.0462,-3.0373,-3.0156,-3.0163,-2.996,-2.9699,0.0,0.0,0.0,0.0,0.0,0.0,0.0,-3.0076,-3.0616,-3.0676,-3.0637,-3.0604,-3.0588,-3.0414,-3.0311,0.0,0.0,0.0,0.0,0.0,0.0,0.0,0.0,0.0,0.0,0.0,0.0,-2.8676,-2.9048,0.0,0.0,0.0,0.0,0.0,0.0,-3.0634,-3.1444,0.0,0.0,0.0,0.0,0.0,0.0,0.0,0.0,0.0,0.0,0.0,0.0,0.0,0.0,-3.5904,-3.5878,-3.5829,-3.5428,-3.3779,0.0,0.0,-3.2135,-3.2158,-3.2656,-3.2592,-3.3184,-3.378,-3.3865,0.0,-3.4555,-3.5168,-3.5016,-3.4958,-3.5587,-3.5715,0.0,0.0,0.0,-3.5356,-3.463,-3.4455,-3.4147,-3.3484,-3.3393,-3.3382,-3.331,-3.331,-3.331,-3.331,-3.3352,-3.3393,-3.3393,-3.3393,-3.3393,-3.3393,-3.2876,-3.259,-3.259,-3.2053,-3.1765,-3.1765,-3.1171,-3.0863,-3.077,-3.0223,-2.9948,-2.9907,-2.9907,-2.9907,-2.9964,-3.0826,-3.1149,-3.1156,-3.1965,-3.1741,-3.0973,-3.0995,-3.045,-2.9699,0.0,0.0,0.0,0.0,0.0,0.0,0.0,-3.0604,-3.0816,-3.078,-3.0739,-3.0701,-3.0656,-3.0557,-3.0432,0.0,0.0,0.0,0.0,0.0,0.0,0.0,0.0,0.0,0.0,0.0,-2.8669,-2.8874,-2.9079,0.0,0.0,0.0,0.0,0.0,0.0,-3.0525,-3.1447,0.0,0.0,0.0,0.0,0.0,0.0,0.0,0.0,0.0,0.0,0.0,0.0,0.0,0.0,0.0,-3.6541,-3.6381,0.0,0.0,-3.3848,-3.3965,-3.2271,-3.223,-3.2787,-3.3303,-3.329,-3.3358,-3.4206,0.0,-3.508,-3.5184,-3.5329,-3.5557,-3.5879,-3.5994,-3.6158,0.0,0.0,-3.5945,-3.6095,-3.5204,-3.4437,-3.4172,-3.3641,-3.3292,-3.3214,-3.3165,-3.3214,-3.3292,-3.3352,-3.3393,-3.3393,-3.3549,-3.3643,-3.3643,-3.3059,-3.2742,-3.2742,-3.2199,-3.1939,-3.1939,-3.1337,-3.1052,-3.1014,-3.0253,-2.9907,-2.9929,-3.0404,-3.0347,-3.0004,-3.1383,-3.1682,-3.1377,-3.2587,-3.2572,-3.1822,-3.1429,-3.0958,-3.0467,0.0,0.0,0.0,0.0,0.0,0.0,-3.0823,-3.0859,-3.0866,-3.082,-3.0824,-3.081,-3.0708,-3.065,-3.0568,-3.04,0.0,0.0,0.0,0.0,0.0,0.0,0.0,0.0,0.0,0.0,-2.892,-2.9185,-2.9272,-2.9455,0.0,0.0,-2.9874,-2.9972,0.0,0.0,0.0,0.0,0.0,0.0,0.0,0.0,0.0,0.0,0.0,0.0,0.0,0.0,0.0,0.0,0.0,0.0,0.0,0.0,0.0,0.0,-3.4037,-3.4078,-3.2861,-3.2788,-3.3238,-3.4066,-3.3808,-3.361,-3.4528,0.0,-3.5423,-3.545,-3.5871,-3.6313,-3.6607,-3.6705,-3.6949,0.0,-3.6869,-3.6466,-3.7048,-3.5833,-3.4907,-3.4969,-3.44,-3.3906,-3.3494,-3.3229,-3.3165,-3.3292,-3.3352,-3.3422,-3.3491,-3.378,-3.3868,-3.3788,-3.3308,-3.2892,-3.2668,-3.2102,-3.1713,-3.1431,-3.103,-3.0833,-3.0795,-3.0173,-2.9907,-2.9931,-3.0534,-3.044,-3.0023,-3.1478,-3.1758,-3.1414,-3.2928,-3.3082,-3.2405,-3.2217,-3.1707,-3.1044,0.0,0.0,0.0,0.0,0.0,0.0,0.0,-3.0756,-3.0813,-3.0899,-3.0891,-3.0857,-3.0703,-3.0696,-3.0667,-3.06,0.0,0.0,0.0,0.0,0.0,0.0,0.0,0.0,0.0,0.0,0.0,-2.9589,-2.9608,-2.9698,-2.9888,-2.9888,-2.9888,-2.9924,0.0,0.0,0.0,0.0,0.0,0.0,0.0,0.0,0.0,0.0,0.0,0.0,0.0,0.0,0.0,0.0,0.0,0.0,0.0,0.0,0.0,0.0,-3.4534,-3.4469,-3.4311,-3.4173,-3.4265,-3.4993,-3.5176,-3.511,0.0,0.0,-3.564,-3.6187,-3.6783,-3.7403,-3.8125,-3.8364,-3.8473,-3.8491,-3.7771,-3.7197,-3.7215,-3.6386,-3.5802,-3.5802,-3.5783,-3.5363,-3.4375,-3.3584,-3.3165,-3.3292,-3.3352,-3.3538,-3.378,-3.4049,-3.4074,-3.3807,-3.3473,-3.291,-3.2122,-3.1523,-3.0779,-2.9926,-2.9907,-2.9907,-2.9907,-2.9888,-2.9888,-2.9888,-2.9991,-2.9975,-2.9981,-3.0921,-3.1265,-3.1364,-3.3118,-3.3268,-3.2604,-3.3525,-3.2746,-3.12,0.0,0.0,0.0,0.0,0.0,0.0,0.0,-3.0687,-3.0749,-3.0762,-3.0762,-3.0745,-3.0693,-3.0739,-3.0742,-3.067,0.0,0.0,0.0,0.0,0.0,0.0,0.0,0.0,0.0,0.0,0.0,0.0,0.0,-2.9698,-2.9888,-2.9888,-2.9888,-2.9888,-2.994,-3.0295,0.0,0.0,0.0,0.0,0.0,0.0,0.0,0.0,0.0,0.0,0.0,0.0,0.0,0.0,0.0,0.0,0.0,0.0,0.0,0.0,0.0,0.0,-3.4496,-3.4192,-3.4285,-3.5018,-3.4706,-3.4315,-3.466,0.0,-3.6278,-3.6297,-3.715,-3.7965,-3.8252,-3.8368,-3.8446,-3.8491,-3.7789,-3.7215,-3.7215,-3.5914,-3.4987,-3.4987,-3.4357,-3.3813,-3.3454,-3.3216,-3.3117,-3.3165,-3.3433,-3.3671,-3.3788,-3.4173,-3.4404,-3.434,-3.3817,-3.3412,-3.3204,-3.2959,-3.2428,-3.161,-3.161,-3.1326,-3.0776,-3.0154,-2.9907,-2.9948,-3.0549,-3.0473,-3.0023,-3.1459,-3.2098,-3.2281,-3.3363,-3.4023,-3.432,-3.3996,-3.3554,-3.294,0.0,0.0,0.0,0.0,0.0,0.0,0.0,-3.06,-3.0667,-3.0671,-3.067,-3.0667,-3.0667,-3.073,-3.074,-3.0696,0.0,0.0,0.0,0.0,0.0,0.0,0.0,0.0,0.0,0.0,0.0,0.0,0.0,0.0,-2.9888,-2.9888,-2.9888,-2.9907,-3.0213,-3.0648,0.0,0.0,0.0,0.0,0.0,0.0,-3.9383,0.0,0.0,0.0,0.0,0.0,0.0,0.0,0.0,0.0,0.0,0.0,0.0,0.0,-3.6547,-3.5655,0.0,-3.4424,-3.4285,-3.5021,-3.4764,0.0,0.0,0.0,0.0,0.0,0.0,0.0,-3.8241,-3.8322,-3.8401,-3.8446,-3.7471,-3.682,-3.7161,-3.5696,-3.4715,-3.5023,-3.4163,-3.3553,-3.349,-3.3234,-3.3147,-3.322,-3.353,-3.3807,-3.4023,-3.4316,-3.4539,-3.4666,-3.43,-3.3961,-3.3658,-3.3658,-3.3223,-3.2406,-3.2406,-3.1989,-3.1193,-3.0644,-3.021,-2.9964,-3.0544,-3.0468,0.0,-3.1466,-3.2067,-3.2229,-3.3123,-3.3804,-3.424,-3.3799,-3.3615,-3.3467,0.0,0.0,0.0,0.0,0.0,0.0,0.0,0.0,0.0,0.0,-3.0593,-3.0587,-3.0602,-3.0661,-3.0699,0.0,0.0,0.0,0.0,0.0,0.0,0.0,0.0,0.0,0.0,0.0,0.0,-2.9888,-2.9905,-2.9905,-2.9888,0.0,-2.9926,-3.0021,-3.0765,0.0,0.0,0.0,0.0,0.0,0.0,0.0,0.0,0.0,0.0,0.0,0.0,0.0,0.0,0.0,0.0,0.0,0.0,0.0,0.0,0.0,0.0,0.0,0.0,-3.4854,-3.4361,-3.504,-3.52,-3.5129,0.0,0.0,0.0,0.0,0.0,0.0,0.0,-3.8204,-3.8303,-3.831,-3.6953,-3.6175,-3.6984,-3.5605,-3.4824,-3.5639,-3.483,-3.4249,-3.4321,-3.3602,-3.319,-3.339,-3.3625,-3.3947,-3.4381,-3.4473,-3.4623,-3.4788,-3.4869,-3.451,-3.3696,-3.3734,-3.3354,-3.2501,-3.2501,-3.2065,-3.1288,-3.1288,-3.085,-3.0102,-3.0224,-3.0255,-3.0266,-3.1155,-3.1513,-3.1628,-3.2608,-3.2928,-3.2865,-3.3161,-3.316,-3.2995,0.0,0.0,0.0,0.0,0.0,0.0,0.0,0.0,0.0,0.0,-3.0511,-3.0518,-3.0519,-3.0642,-3.0689,0.0,0.0,0.0,0.0,0.0,0.0,0.0,0.0,0.0,0.0,0.0,0.0,-2.9888,-3.0041,-3.0041,-2.9888,-2.9888,0.0,0.0,-3.103,0.0,0.0,0.0,0.0,0.0,0.0,0.0,0.0,0.0,0.0,0.0,-3.947,-3.8832,0.0,0.0,0.0,0.0,0.0,0.0,0.0,0.0,-3.6468,-3.5637,-3.5519,0.0,-3.5119,-3.5174,-3.52,-3.5147,0.0,0.0,0.0,0.0,0.0,0.0,0.0,0.0,-3.8122,-3.7549,-3.6589,-3.5975,-3.6249,-3.48,-3.3991,-3.4806,-3.4001,-3.3656,-3.4398,-3.3834,-3.3462,-3.3559,-3.3998,-3.4269,-3.4386,-3.4623,-3.4747,-3.4788,-3.4868,-3.4793,-3.4604,-3.4604,-3.4207,-3.3392,-3.3392,-3.2956,-3.2122,-3.2122,-3.1703,-3.1032,-3.1819,-3.1794,-3.1258,-3.2208,-3.2654,-3.2792,-3.3635,-3.3626,-3.318,-3.3863,-3.368,-3.2985,0.0,0.0,0.0,0.0,0.0,0.0,0.0,0.0,0.0,0.0,0.0,0.0,0.0,0.0,0.0,0.0,0.0,0.0,0.0,0.0,0.0,0.0,0.0,0.0,0.0,0.0,0.0,0.0,0.0,-3.0975,0.0,0.0,0.0,0.0,0.0,0.0,0.0,0.0,0.0,0.0,-3.7425,0.0,0.0,0.0,0.0,0.0,-3.9839,-3.9407,0.0,-3.7529,-3.7433,-3.7773,0.0,0.0,0.0,0.0,-3.6464,-3.564,-3.5609,-3.5438,-3.53,-3.5215,-3.52,-3.5224,0.0,0.0,0.0,0.0,0.0,0.0,0.0,0.0,-3.7758,-3.7763,-3.6406,-3.5345,-3.5345,-3.4558,-3.4117,-3.4552,-3.4172,-3.3948,-3.4116,-3.3889,-3.378,-3.3895,-3.4221,-3.4427,-3.4495,-3.4727,-3.4788,-3.4708,-3.4471,-3.4528,-3.4887,-3.4888,-3.468,-3.4245,-3.4245,-3.3635,-3.2537,-3.2509,-3.1927,-3.0953,-3.1484,-3.145,-3.112,-3.2068,-3.2473,-3.2557,-3.305,-3.2981,-3.2629,-3.2752,-3.2701,-3.2536,0.0,0.0,0.0,0.0,0.0,0.0,0.0,0.0,0.0,0.0,0.0,0.0,0.0,0.0,0.0,0.0,0.0,0.0,0.0,0.0,0.0,0.0,0.0,0.0,0.0,0.0,0.0,0.0,0.0,0.0,0.0,0.0,-3.2771,0.0,0.0,0.0,0.0,0.0,0.0,0.0,-3.8556,0.0,0.0,0.0,0.0,0.0,0.0,0.0,0.0,-3.7751,-3.7219,-3.7109,-3.7029,0.0,0.0,0.0,0.0,0.0,-3.5697,-3.5399,-3.5085,-3.5209,-3.5215,-3.5281,0.0,0.0,0.0,0.0,0.0,0.0,0.0,-3.7398,0.0,-3.799,-3.6292,-3.48,-3.4504,-3.4456,-3.4492,-3.4691,-3.4663,-3.4448,-3.4,-3.4002,-3.413,-3.4316,-3.4427,-3.4517,-3.4623,-3.4675,-3.462,-3.4457,-3.3828,-3.3828,-3.4548,-3.4548,-3.4529,-3.4529,-3.4566,-3.3913,-3.2699,-3.2641,-3.191,-3.0683,-3.0784,-3.0791,-3.0794,-3.1676,-3.196,-3.1863,-3.2123,-3.2025,-3.1683,-3.1246,-3.1398,-3.1824,0.0,0.0,0.0,0.0,0.0,0.0,0.0,0.0,0.0,0.0,0.0,0.0,0.0,0.0,0.0,0.0,0.0,0.0,0.0,0.0,0.0,0.0,0.0,0.0,0.0,0.0,0.0,0.0,0.0,0.0,-3.2807,-3.2807,-3.3149,-3.3788,0.0,-3.4874,-3.4942,-3.5293,-3.6334,-3.781,-3.8214,0.0,0.0,0.0,0.0,0.0,0.0,0.0,0.0,-3.8065,-3.7761,-3.7068,-3.6335,0.0,0.0,0.0,0.0,0.0,-3.5698,-3.5085,-3.459,-3.5205,-3.5345,-3.5226,0.0,0.0,0.0,0.0,0.0,0.0,0.0,-3.6509,-3.7107,0.0,-3.6237,-3.5367,-3.411,-3.3749,-3.4014,-3.5143,-3.4448,-3.4192,-3.5055,-3.4599,-3.4307,-3.4473,-3.4687,-3.4788,-3.4687,-3.4129,-3.3752,-3.3674,-3.2959,-3.2708,-3.295,-3.2889,-3.284,-3.2785,-3.2959,-3.292,-3.2707,-3.2749,-3.2306,-3.1555,-3.2416,-3.2387,-3.1845,-3.2768,-3.2725,-3.2129,-3.2892,-3.2307,-3.1116,-3.1706,-3.1524,-3.0983,0.0,0.0,0.0,0.0,0.0,0.0,0.0,0.0,0.0,0.0,0.0,0.0,0.0,0.0,0.0,0.0,0.0,0.0,0.0,0.0,0.0,0.0,0.0,0.0,0.0,0.0,0.0,0.0,0.0,-3.4011,-3.4369,-3.425,-3.4199,-3.4231,0.0,-3.496,-3.4783,-3.5713,-3.664,-3.7502,0.0,0.0,0.0,0.0,0.0,0.0,0.0,0.0,0.0,0.0,-3.751,-3.705,-3.6223,0.0,0.0,0.0,0.0,0.0,-3.5807,-3.5491,-3.5117,-3.4902,-3.4732,-3.4623,0.0,0.0,0.0,0.0,0.0,0.0,0.0,0.0,-3.6066,-3.5435,-3.5555,-3.5467,-3.4774,-3.4557,-3.4705,-3.5335,-3.5045,-3.4835,-3.4965,-3.4767,-3.4647,-3.4708,-3.4811,-3.4793,-3.4694,-3.4415,-3.3828,-3.2881,-3.2572,-3.2419,-3.2445,-3.1684,-3.1752,-3.2622,-3.2683,-3.2611,-3.243,-3.2417,-3.2006,-3.1285,-3.173,-3.1719,-3.1435,-3.1872,-3.1816,-3.1483,-3.1893,-3.1581,-3.0936,-3.128,-3.1133,-3.0791,0.0,0.0,0.0,0.0,0.0,0.0,0.0,0.0,0.0,0.0,0.0,0.0,0.0,0.0,0.0,0.0,0.0,0.0,0.0,0.0,0.0,0.0,0.0,0.0,0.0,0.0,-3.3976,-3.4833,-3.4757,-3.5059,-3.5707,-3.5546,-3.5198,-3.4719,0.0,-3.5039,-3.4796,-3.6018,-3.6717,-3.7054,0.0,0.0,0.0,0.0,0.0,0.0,0.0,0.0,0.0,0.0,0.0,0.0,0.0,0.0,0.0,-3.5908,-3.585,-3.5811,-3.5878,-3.5742,-3.5405,-3.4641,0.0,-3.4371,-3.452,0.0,0.0,0.0,0.0,0.0,0.0,-3.5856,-3.5371,-3.4684,-3.5094,-3.5429,-3.5237,-3.5169,-3.5169,-3.5272,-3.5371,-3.524,-3.4724,-3.481,-3.4907,-3.4907,-3.4851,-3.4624,-3.4187,-3.4206,-3.3631,-3.2302,-3.1638,-3.1273,-3.1225,-3.0645,-3.0964,-3.2165,-3.2173,-3.2071,-3.1831,-3.1806,-3.1469,-3.0903,-3.0851,-3.0852,-3.0898,-3.0898,-3.0898,-3.0898,-3.0898,-3.0898,-3.0898,-3.0832,-3.0801,-3.0807,0.0,0.0,0.0,0.0,0.0,0.0,0.0,0.0,0.0,0.0,0.0,0.0,0.0,0.0,0.0,0.0,0.0,0.0,0.0,0.0,0.0,0.0,0.0,0.0,0.0,-3.4596,-3.4993,-3.5795,-3.5736,-3.5706,-3.5707,-3.5695,-3.5646,-3.5607,0.0,0.0,-3.5618,-3.5725,-3.625,-3.7015,-3.7153,0.0,0.0,0.0,0.0,0.0,0.0,0.0,0.0,0.0,0.0,0.0,0.0,0.0,-3.5908,-3.5899,-3.5851,-3.5811,-3.5878,-3.5314,-3.4679,-3.4594,0.0,0.0,-3.4028,0.0,0.0,0.0,0.0,0.0,0.0,-3.5468,-3.5772,-3.5459,-3.5466,-3.5291,-3.4745,-3.4433,-3.4437,-3.4868,-3.4785,-3.4724,-3.487,-3.4889,-3.4888,-3.4888,-3.4906,-3.4206,-3.2657,-3.2572,-3.2444,-3.2112,-2.9456,-2.8049,-2.8027,-2.9663,-3.0417,-3.0295,-3.0549,-3.0684,-3.0715,-3.0838,-3.0892,-3.0898,-3.0897,-3.0898,-3.0898,-3.0898,-3.0898,-3.0898,-3.0898,-3.0898,-3.0896,-3.0898,-3.0852,-3.0807,0.0,0.0,0.0,0.0,0.0,0.0,0.0,0.0,0.0,0.0,0.0,0.0,0.0,0.0,0.0,0.0,0.0,0.0,0.0,0.0,0.0,0.0,0.0,-3.5638,-3.5329,-3.541,-3.5561,-3.5846,-3.6358,-3.6612,-3.6561,-3.6532,0.0,0.0,0.0,0.0,0.0,-3.5697,-3.5891,-3.62,-3.6261,-3.7305,0.0,0.0,0.0,0.0,0.0,0.0,0.0,0.0,-3.6992,-3.6756,0.0,-3.6363,-3.5903,-3.5901,-3.5851,-3.5815,-3.5872,-3.5249,-3.4607,-3.4594,0.0,0.0,0.0,0.0,0.0,0.0,0.0,0.0,0.0,0.0,-3.5285,-3.5143,-3.5122,-3.5049,-3.4826,-3.471,-3.4693,-3.487,-3.4434,-3.4321,-3.485,-3.4317,-3.3671,-3.2897,-3.3161,-3.2627,-3.0997,-2.995,-2.896,-2.7969,-2.6857,-2.6804,-2.7931,-2.7628,-2.8512,-3.0593,-3.0614,-3.0656,-3.0736,-3.0817,-3.0882,-3.0898,-3.0898,-3.0898,-3.0898,-3.0898,-3.0898,-3.0898,-3.0898,-3.0897,-3.0905,-3.0909,-3.0862,-3.0807,0.0,0.0,0.0,0.0,0.0,0.0,0.0,0.0,0.0,0.0,0.0,0.0,0.0,0.0,0.0,0.0,0.0,0.0,0.0,0.0,0.0,0.0,0.0,-3.566,-3.566,-3.5798,-3.5859,-3.5801,-3.6668,-3.7118,-3.7144,0.0,0.0,0.0,0.0,0.0,-3.614,-3.6133,-3.5979,-3.5737,-3.5782,-3.665,0.0,0.0,0.0,0.0,0.0,0.0,0.0,0.0,-3.7203,0.0,0.0,0.0,0.0,-3.5903,-3.5655,-3.5399,-3.5475,-3.5048,-3.4529,0.0,0.0,0.0,0.0,0.0,0.0,0.0,-3.4708,0.0,-3.5054,0.0,-3.4679,-3.487,-3.4927,-3.4908,-3.4907,-3.468,-3.4529,-3.4529,-3.3997,-3.3767,-3.4089,-3.3498,-3.253,-3.1222,-3.0997,-3.0437,-2.9327,-2.8316,-2.7306,-2.6294,-2.6256,-2.6857,-2.8087,-2.7161,-2.7935,-3.0331,-3.035,-3.0513,-3.0823,-3.0871,-3.0898,-3.0898,-3.0898,-3.0898,-3.0897,-3.0897,-3.0897,-3.0898,-3.0898,-3.0894,-3.0899,-3.0899,-3.0875,-3.0833,0.0,0.0,0.0,0.0,0.0,0.0,0.0,0.0,0.0,0.0,0.0,0.0,0.0,0.0,0.0,0.0,0.0,0.0,0.0,0.0,0.0,0.0,0.0,-3.5612,-3.5605,-3.5727,-3.5807,-3.5794,-3.6661,-3.7144,-3.7225,-3.8024,0.0,0.0,0.0,0.0,0.0,0.0,-3.6587,-3.5801,-3.5807,-3.6319,-3.7103,0.0,0.0,0.0,0.0,0.0,0.0,0.0,-3.7219,0.0,0.0,0.0,0.0,-3.5908,-3.5243,-3.4525,-3.4586,-3.46,-3.438,0.0,0.0,0.0,0.0,0.0,0.0,0.0,0.0,-3.4065,-3.494,-3.4388,-3.4049,-3.4775,-3.4945,-3.4983,-3.4908,-3.4207,-3.3695,-3.3714,-3.3466,-3.3048,-3.2444,-3.2365,-3.173,-3.0194,-2.8597,-2.7714,-2.7695,-2.7953,-2.8105,-2.8105,-2.8086,-2.8094,-2.8113,-2.874,-2.9085,-2.9104,-2.9435,-3.0038,-3.0882,-3.0891,-3.0898,-3.0898,-3.0898,-3.0896,-3.0899,-3.0899,-3.0905,-3.0894,-3.0894,-3.0909,-3.0899,-3.0899,-3.0899,-3.0899,0.0,0.0,0.0,0.0,0.0,0.0,0.0,0.0,0.0,0.0,0.0,0.0,0.0,0.0,0.0,0.0,0.0,0.0,0.0,0.0,0.0,0.0,0.0,0.0,0.0,0.0,-3.5699,-3.5791,-3.6663,-3.7418,0.0,0.0,0.0,-3.8378,0.0,0.0,0.0,0.0,-3.6044,-3.5791,-3.5846,-3.6387,-3.7168,0.0,0.0,0.0,0.0,0.0,0.0,0.0,0.0,0.0,0.0,0.0,0.0,-3.5894,-3.5664,-3.541,-3.5434,-3.4579,0.0,0.0,0.0,0.0,0.0,0.0,0.0,0.0,-3.4306,-3.4698,-3.5018,-3.4811,-3.4661,-3.4851,-3.4927,-3.4908,-3.4907,-3.4207,-3.3922,-3.4471,-3.3016,-3.1669,-3.0918,-3.0142,-2.9168,-2.8007,-2.8224,-2.8245,-2.7864,-2.8502,-2.8644,-2.8129,-2.751,-2.7796,-2.9077,-2.7454,-2.7551,-2.939,-2.8915,-2.9142,-3.0003,-3.0623,-3.0898,-3.0898,-3.0898,-3.0896,-3.0899,-3.0899,-3.0901,-3.0903,-3.0903,-3.0901,-3.0899,-3.0899,-3.088,-3.0841,0.0,0.0,0.0,0.0,0.0,0.0,0.0,0.0,0.0,0.0,0.0,0.0,0.0,0.0,0.0,0.0,0.0,0.0,0.0,0.0,0.0,0.0,0.0,0.0,0.0,-3.533,-3.5457,0.0,0.0,0.0,0.0,0.0,0.0,-3.8887,0.0,-3.7793,0.0,-3.6981,-3.664,-3.6325,-3.6046,-3.6255,-3.6756,0.0,0.0,0.0,0.0,0.0,0.0,0.0,0.0,0.0,0.0,0.0,0.0,-3.5541,-3.5313,-3.5138,-3.4474,0.0,0.0,0.0,0.0,0.0,0.0,0.0,0.0,0.0,-3.3604,-3.384,-3.4549,-3.4327,-3.416,-3.4467,-3.4542,-3.4426,-3.412,-3.3375,-3.3083,-3.365,-3.1666,-3.0081,-2.9646,-2.8574,-2.7612,-2.6894,-2.7794,-2.7962,-2.7,-2.8133,-2.8604,-2.8158,-2.7626,-2.8051,-2.9488,-2.7255,-2.6918,-2.8517,-2.8379,-2.8572,-2.9111,-3.0347,-3.0897,-3.0898,-3.0898,-3.0894,-3.0899,-3.0899,-3.088,-3.086,-3.086,-3.086,-3.086,-3.086,-3.0841,-3.0801,0.0,0.0,0.0,0.0,0.0,0.0,0.0,0.0,0.0,0.0,0.0,0.0,0.0,0.0,0.0,0.0,0.0,0.0,0.0,0.0,0.0,0.0,0.0,0.0,0.0,0.0,0.0,0.0,0.0,0.0,0.0,0.0,-3.869,-3.9463,0.0,-3.9519,-3.9409,-3.8701,-3.7981,-3.7247,-3.6504,-3.6211,-3.6298,-3.7016,0.0,0.0,0.0,0.0,0.0,0.0,0.0,0.0,0.0,0.0,-3.6662,-3.5088,-3.4564,-3.4167,-3.2652,0.0,0.0,0.0,0.0,0.0,-3.0953,-3.1273,-3.1913,-3.2651,0.0,-3.2242,-3.3734,-3.3408,-3.314,-3.3811,-3.3961,-3.3734,-3.2916,-3.2116,-3.1635,-3.1763,-2.9874,-2.8518,-2.8411,-2.7543,-2.6845,-2.6525,-2.7306,-2.7194,-2.5809,-2.729,-2.8232,-2.8312,-2.8155,-2.8496,-2.9367,-2.7662,-2.6852,-2.6997,-2.7888,-2.8307,-2.8352,-3.0116,-3.0905,-3.0894,-3.0894,-3.0909,-3.0899,-3.0899,-3.086,-3.0801,-3.0801,-3.0801,-3.0801,-3.0801,-3.0801,-3.0804,0.0,0.0,0.0,0.0,0.0,0.0,0.0,0.0,0.0,0.0,0.0,0.0,0.0,0.0,0.0,0.0,0.0,0.0,0.0,0.0,0.0,0.0,0.0,0.0,0.0,0.0,0.0,0.0,0.0,0.0,0.0,0.0,0.0,-3.7607,0.0,-3.8252,-3.7691,-3.8199,-3.8305,-3.8118,-3.7948,-3.7884,-3.7843,-3.7398,-3.7094,0.0,0.0,0.0,0.0,0.0,0.0,0.0,-3.7303,-3.6534,-3.6021,-3.5684,-3.5079,-3.4428,0.0,-3.3186,0.0,0.0,0.0,-3.0938,-3.0761,-3.0878,-3.1216,-3.19,-3.2325,-3.2877,-3.3891,-3.3942,-3.3871,-3.403,-3.4068,-3.378,-3.2929,-3.2116,-3.1385,-3.0784,-2.9732,-2.8289,-2.6369,-2.6593,-2.653,-2.5796,-2.6529,-2.7174,-2.7517,-2.7957,-2.851,-2.9201,-2.7897,-2.7595,-2.8461,-2.6809,-2.6283,-2.693,-2.7869,-2.8307,-2.8366,-3.0113,-3.0899,-3.0903,-3.0903,-3.0901,-3.0899,-3.0899,-3.086,-3.0801,-3.0801,-3.0801,-3.0801,-3.0792,-3.0795,-3.0795,0.0,0.0,0.0,0.0,0.0,0.0,0.0,0.0,0.0,0.0,0.0,0.0,0.0,0.0,0.0,0.0,0.0,0.0,0.0,0.0,0.0,0.0,0.0,0.0,0.0,0.0,0.0,0.0,0.0,0.0,0.0,0.0,0.0,-3.6884,0.0,-3.8151,-3.8279,-3.8762,-3.898,-3.8947,-3.8556,-3.8393,-3.8345,-3.7941,-3.7761,-3.7822,-3.8241,0.0,0.0,0.0,0.0,0.0,0.0,0.0,-3.6183,-3.5441,-3.5169,-3.4855,0.0,0.0,0.0,0.0,0.0,0.0,-3.0748,-3.0753,-3.0864,-3.1249,-3.1914,-3.2658,-3.3465,-3.3932,-3.421,-3.421,-3.3863,-3.3191,-3.1969,-3.1429,-3.0811,-2.9844,-2.8849,-2.7525,-2.5676,-2.5901,-2.5998,-2.5522,-2.6307,-2.6825,-2.6901,-2.7337,-2.778,-2.8233,-2.7011,-2.6738,-2.7576,-2.6338,-2.5913,-2.6342,-2.767,-2.8717,-2.9525,-3.0448,-3.086,-3.086,-3.086,-3.086,-3.086,-3.086,-3.0841,-3.0801,-3.0801,-3.0804,-3.079,-3.0795,-3.0798,-3.08,0.0,0.0,0.0,0.0,0.0,0.0,0.0,0.0,0.0,0.0,0.0,0.0,0.0,0.0,0.0,0.0,0.0,0.0,0.0,0.0,0.0,0.0,0.0,0.0,0.0,0.0,0.0,0.0,0.0,0.0,0.0,0.0,0.0,-3.6459,0.0,-3.8204,-3.9181,-3.9399,-3.956,-3.9656,-3.9013,-3.8762,-3.8756,-3.8627,-3.8609,-3.8683,-3.9277,-3.9548,-3.9585,-3.9432,0.0,0.0,0.0,0.0,-3.6424,-3.5103,-3.5127,-3.5072,0.0,0.0,0.0,0.0,0.0,0.0,-3.0364,-3.0539,-3.0689,-3.0594,-3.1226,-3.202,-3.2772,-3.3335,-3.3693,-3.3683,-3.2987,-3.1978,-3.0598,-3.0406,-2.9978,-2.8837,-2.7799,-2.6749,-2.5615,-2.5499,-2.5495,-2.5492,-2.6191,-2.6376,-2.5858,-2.6368,-2.6743,-2.6904,-2.6119,-2.6022,-2.6695,-2.6022,-2.5699,-2.5718,-2.7479,-2.9174,-3.0806,-3.0806,-3.0804,-3.0801,-3.0801,-3.0804,-3.0806,-3.0806,-3.081,-3.0792,-3.079,-3.0795,-3.0799,-3.0799,-3.08,-3.082,0.0,0.0,0.0,0.0,0.0,0.0,0.0,0.0,0.0,0.0,0.0,0.0,0.0,0.0,0.0,0.0,0.0,0.0,-3.2603,0.0,0.0,-3.339,-3.3302,-3.3437,0.0,0.0,0.0,0.0,0.0,0.0,0.0,0.0,0.0,-3.5356,0.0,0.0,-3.7895,-3.8678,-3.9444,-4.0133,-4.0188,-4.0211,-4.0149,-3.9565,-3.9395,-3.9371,-3.878,-3.9044,-3.9558,-3.8749,-3.847,0.0,0.0,0.0,-3.5753,-3.5657,-3.5135,-3.4352,0.0,0.0,0.0,0.0,0.0,-2.9396,0.0,0.0,-3.0508,-2.9814,-3.0314,-3.1138,-3.1984,-3.1627,-3.1173,-3.1169,-3.0467,-2.9738,-2.9291,-2.924,-2.8774,-2.7582,-2.7297,-2.6757,-2.5615,-2.5503,-2.5511,-2.5492,-2.5653,-2.6046,-2.6693,-2.6121,-2.6111,-2.6885,-2.6119,-2.5757,-2.5851,-2.5757,-2.5699,-2.5718,-2.7479,-2.9184,-3.08,-3.08,-3.0797,-3.0801,-3.0801,-3.0792,-3.08,-3.08,-3.08,-3.0792,-3.0798,-3.0799,-3.0799,-3.0799,-3.0798,-3.0914,0.0,0.0,0.0,0.0,0.0,0.0,0.0,0.0,0.0,0.0,0.0,0.0,0.0,0.0,0.0,-3.2438,-3.2985,-3.3143,-3.2537,-3.2515,-3.2741,-3.3118,-3.3166,-3.3361,-3.3634,0.0,0.0,0.0,0.0,0.0,0.0,-3.4464,-3.4735,0.0,0.0,0.0,0.0,0.0,0.0,-3.8818,-3.8903,-3.8936,-3.8953,-3.9089,-3.9259,-3.932,-3.8981,-3.9173,-3.9456,-3.8543,-3.7894,-3.7402,-3.7046,0.0,0.0,0.0,-3.5117,-3.4013,-3.228,0.0,0.0,0.0,-2.8677,-2.8579,-2.8276,-2.8763,-2.9205,-2.8846,-2.9055,-2.9699,-3.1028,-3.1324,-3.1215,-3.0763,-2.9978,-2.9317,-2.904,-2.874,-2.7977,-2.6437,-2.6248,-2.6059,-2.5543,-2.5505,-2.5515,-2.5554,-2.5576,-2.5788,-2.6203,-2.5862,-2.5827,-2.6217,-2.5873,-2.5701,-2.5699,-2.5701,-2.6164,-2.713,-2.8376,-2.9609,-3.0795,-3.0795,-3.0797,-3.08,-3.08,-3.0799,-3.0795,-3.0798,-3.0797,-3.0792,-3.0799,-3.0799,-3.0797,-3.0797,-3.0793,-3.0925,0.0,0.0,0.0,0.0,0.0,0.0,0.0,0.0,0.0,0.0,0.0,0.0,0.0,0.0,0.0,0.0,-3.2784,-3.2857,-3.2283,-3.2144,-3.2298,-3.2745,-3.2934,-3.3105,-3.3361,0.0,0.0,0.0,0.0,0.0,-3.3815,-3.4023,-3.4298,0.0,-3.5373,0.0,0.0,0.0,0.0,0.0,0.0,-3.7619,-3.7677,-3.8343,-3.8676,-3.8808,-3.8812,-3.8922,-3.8923,-3.802,-3.7252,-3.668,-3.6537,-3.6009,0.0,0.0,0.0,-3.3306,0.0,0.0,0.0,0.0,-2.8094,-2.7997,0.0,0.0,-2.811,-2.7912,-2.8048,-2.851,-2.9551,-3.0218,-3.0419,-2.983,-2.9002,-2.8354,-2.8149,-2.7784,-2.7051,-2.5685,-2.5511,-2.5511,-2.5532,-2.5531,-2.5648,-2.5909,-2.5938,-2.5966,-2.6022,-2.6009,-2.5915,-2.5717,-2.5685,-2.5685,-2.5694,-2.5896,-2.6848,-2.8533,-2.9195,-2.9943,-3.0768,-3.0768,-3.0765,-3.0778,-3.0794,-3.0794,-3.0765,-3.0777,-3.076,-3.078,-3.0771,-3.0772,-3.0792,-3.0793,-3.0808,-3.0958,0.0,0.0,0.0,0.0,0.0,0.0,0.0,0.0,0.0,0.0,0.0,0.0,-3.4569,-3.4344,-3.3835,-3.2942,-3.2559,-3.2128,-3.1589,-3.1726,-3.1929,-3.2144,-3.2214,0.0,-3.2898,0.0,0.0,0.0,0.0,0.0,-3.3895,-3.3842,-3.3815,-3.3868,-3.4161,-3.4909,-3.5942,0.0,0.0,0.0,0.0,-3.7412,-3.7432,-3.7658,-3.7783,-3.7783,-3.7783,-3.7781,-3.7649,-3.6705,-3.6401,-3.6301,-3.5592,-3.5383,-3.5254,0.0,0.0,0.0,0.0,0.0,0.0,0.0,0.0,0.0,0.0,-2.6965,-2.7879,-2.7121,-2.7629,-2.7963,-2.7235,-2.7123,-2.7152,-2.7099,-2.6368,-2.5788,-2.5779,-2.5745,-2.5692,-2.5606,-2.5542,-2.5522,-2.5583,-2.5582,-2.5935,-2.6761,-2.6827,-2.6862,-2.6936,-2.6861,-2.6496,-2.5712,-2.5644,-2.5643,-2.5705,-2.6457,-2.7712,-2.9433,-2.9488,-2.9913,-3.0706,-3.0706,-3.072,-3.0711,-3.0774,-3.0755,-3.0709,-3.0709,-3.0716,-3.0711,-3.0703,-3.0745,-3.0804,-3.0796,-3.0801,-3.1036,0.0,0.0,0.0,0.0,0.0,0.0,0.0,0.0,0.0,0.0,0.0,0.0,0.0,-3.4535,-3.4088,-3.2473,-3.1913,-3.1562,-3.1325,-3.1671,-3.1893,-3.191,-3.2126,-3.2336,-3.2574,0.0,0.0,0.0,0.0,-3.3502,-3.3327,-3.3502,-3.3559,-3.3494,-3.3797,-3.4164,-3.4562,-3.4612,0.0,0.0,0.0,0.0,-3.5439,-3.6243,-3.6614,-3.6729,-3.6673,-3.6765,-3.6716,-3.5829,-3.5888,-3.6192,-3.5422,-3.5634,-3.5811,-3.4005,-3.2617,-3.1468,0.0,0.0,0.0,-2.8279,-2.7685,-2.7116,-2.6569,-2.6471,-2.6417,-2.6126,-2.6357,-2.6497,-2.6123,-2.6529,-2.6724,-2.622,-2.6298,-2.6236,-2.5683,-2.6266,-2.6477,-2.5691,-2.557,-2.5572,-2.5602,-2.5605,-2.5721,-2.6035,-2.6071,-2.6071,-2.6093,-2.6074,-2.6191,-2.6465,-2.6444,-2.6718,-2.7305,-2.8143,-2.8859,-2.9447,-2.999,-3.0422,-3.071,-3.071,-3.0685,-3.0634,-3.0672,-3.0672,-3.063,-3.063,-3.0642,-3.0642,-3.0689,-3.0706,-3.0743,-3.0774,-3.0801,-3.1055,0.0,0.0,0.0,0.0,0.0,0.0,0.0,0.0,0.0,0.0,0.0,0.0,0.0,0.0,-3.4233,-3.2135,-3.1791,-3.1561,-3.1168,-3.1671,-3.197,-3.191,-3.2126,-3.2336,-3.2473,0.0,0.0,0.0,0.0,0.0,0.0,-3.3256,-3.3268,-3.322,-3.3397,-3.3597,0.0,0.0,0.0,-3.3928,0.0,-3.4003,-3.4258,-3.4851,-3.5268,-3.5541,-3.5583,-3.5665,-3.5665,-3.4831,-3.4888,-3.523,-3.4751,-3.4923,-3.4957,-3.3114,-3.195,-3.1022,-2.9916,0.0,0.0,0.0,0.0,-2.7531,-2.6987,-2.6432,-2.5946,-2.5668,-2.5652,-2.5676,-2.5603,-2.6095,-2.6325,-2.5781,-2.6147,-2.63,-2.572,-2.6305,-2.6509,-2.5722,-2.5605,-2.5605,-2.562,-2.5607,-2.5835,-2.6429,-2.6473,-2.6588,-2.6861,-2.6874,-2.7003,-2.729,-2.7325,-2.7741,-2.8637,-2.9196,-2.9588,-2.9849,-3.0412,-3.069,-3.069,-3.069,-3.0668,-3.0602,-3.0593,-3.0576,-3.0558,-3.0558,-3.0567,-3.0574,-3.062,-3.0645,-3.0667,-3.072,-3.0728,-3.0981,0.0,0.0,0.0,0.0,0.0,0.0,0.0,0.0,0.0,-3.7297,0.0,0.0,0.0,0.0,0.0,-3.2068,-3.2337,-3.2147,-3.1099,-3.1702,-3.2127,-3.2107,-3.2284,-3.2473,-3.2606,0.0,0.0,0.0,0.0,0.0,0.0,0.0,-3.2979,-3.2997,-3.2916,-3.3238,-3.3762,0.0,-3.3921,-3.4099,0.0,-3.3449,-3.4091,-3.3574,-3.3717,-3.4208,-3.4495,-3.4602,-3.447,-3.37,-3.3456,-3.3498,-3.3601,-3.3258,-3.2645,-3.1903,-3.1087,-3.0398,0.0,0.0,0.0,0.0,0.0,0.0,-2.7252,-2.6887,-2.6651,-2.5805,-2.5665,-2.5673,-2.5609,-2.5644,-2.5693,-2.5702,-2.5722,-2.5739,-2.5709,-2.5664,-2.5662,-2.5698,-2.5636,-2.5627,-2.5694,-2.5667,-2.634,-2.8037,-2.8178,-2.8532,-2.9324,-2.9382,-2.9012,-2.8165,-2.8223,-2.8681,-2.9535,-2.9468,-2.9868,-3.0701,-3.0704,-3.069,-3.069,-3.069,-3.0668,-3.0582,-3.0539,-3.0492,-3.0499,-3.0499,-3.0491,-3.0492,-3.0501,-3.0535,-3.0593,-3.0593,-3.0593,-3.0853,0.0,0.0,0.0,0.0,0.0,0.0,0.0,0.0,0.0,0.0,0.0,0.0,0.0,-3.5444,-3.4406,-3.3828,-3.3093,-3.2536,-3.2202,-3.2173,-3.2156,-3.209,-3.2284,-3.2457,-3.2523,0.0,0.0,0.0,0.0,0.0,0.0,0.0,0.0,0.0,-3.2916,-3.2993,-3.3147,-3.3208,0.0,-3.3189,-3.2712,-3.2698,-3.2981,-3.3069,-3.3321,-3.3708,-3.4355,-3.4602,-3.4564,-3.4339,-3.4695,-3.5112,-3.4621,-3.3615,-3.2451,-3.1755,-3.1015,-3.0398,-3.0398,0.0,0.0,0.0,0.0,0.0,-2.8773,-2.7715,-2.6762,-2.6569,-2.6087,-2.5679,-2.5603,-2.5655,-2.5703,-2.5701,-2.6228,-2.6419,-2.5788,-2.6239,-2.6382,-2.5765,-2.5684,-2.5658,-2.5636,-2.6179,-2.6734,-2.722,-2.7807,-2.8215,-2.8454,-2.9065,-2.9285,-2.9055,-2.9679,-3.0117,-3.038,-3.0355,-3.0453,-3.0698,-3.0704,-3.069,-3.069,-3.069,-3.0634,-3.0539,-3.0501,-3.0472,-3.0433,-3.0433,-3.0425,-3.0428,-3.0492,-3.0519,-3.0527,-3.0571,-3.0593,-3.0853,0.0,0.0,0.0,0.0,0.0,0.0,0.0,0.0,-3.7667,0.0,0.0,0.0,0.0,-3.5436,-3.4783,-3.433,-3.3947,-3.3522,-3.3008,-3.2827,-3.2711,-3.2685,-3.2477,-3.2457,-3.2608,0.0,0.0,0.0,0.0,0.0,0.0,0.0,0.0,0.0,0.0,0.0,0.0,0.0,0.0,0.0,-3.2219,-3.2161,-3.2474,-3.2214,-3.2593,-3.3306,-3.3883,-3.432,-3.4489,-3.3794,-3.3888,-3.4191,-3.3468,-3.2863,-3.2193,-3.125,-3.0624,-3.0299,-3.0386,-3.0398,-3.0402,-3.0449,0.0,0.0,-2.9373,-2.8282,-2.7257,-2.6937,-2.6248,-2.569,-2.5655,-2.5668,-2.5702,-2.5703,-2.6426,-2.6695,-2.5818,-2.6142,-2.6264,-2.5759,-2.5691,-2.582,-2.6104,-2.6607,-2.719,-2.7886,-2.8379,-2.8793,-2.9128,-2.9652,-2.977,-2.9413,-2.9886,-3.0169,-3.02,-3.0175,-3.0347,-3.0704,-3.0697,-3.069,-3.069,-3.0676,-3.061,-3.0501,-3.0501,-3.046,-3.0398,-3.0398,-3.0398,-3.039,-3.0439,-3.0451,-3.0462,-3.0501,-3.0528,-3.0703,0.0,0.0,0.0,0.0,0.0,0.0,0.0,0.0,-3.7703,0.0,-3.6995,0.0,0.0,-3.5622,-3.5217,-3.4303,-3.4829,-3.4773,-3.3775,-3.3652,-3.3593,-3.3511,-3.288,-3.2613,-3.2791,-3.269,0.0,0.0,0.0,0.0,0.0,0.0,0.0,0.0,0.0,0.0,0.0,0.0,0.0,-3.302,-3.1881,-3.1792,-3.2203,-3.1312,-3.1672,-3.2771,-3.3128,-3.3719,-3.4113,-3.2705,-3.2236,-3.2125,-3.1412,-3.1657,-3.192,-3.0532,-3.0109,-3.0136,-3.0311,-3.0379,-3.0398,-3.0398,-3.0449,0.0,-2.9525,-2.8753,-2.7997,-2.7239,-2.6495,-2.5977,-2.5974,-2.5978,-2.597,-2.597,-2.6637,-2.6816,-2.5843,-2.5779,-2.5801,-2.5712,-2.5697,-2.6015,-2.6813,-2.6982,-2.769,-2.9272,-2.9486,-2.986,-3.0571,-3.0665,-3.03,-2.9428,-2.9402,-2.9395,-2.936,-2.9304,-2.97,-3.0555,-3.0561,-3.0593,-3.0683,-3.0626,-3.0557,-3.0511,-3.05,-3.0466,-3.0398,-3.0398,-3.0398,-3.0398,-3.0398,-3.0398,-3.0398,-3.0398,-3.0398,-3.0525,-3.7662,0.0,0.0,0.0,0.0,0.0,0.0,0.0,0.0,0.0,0.0,0.0,0.0,-3.5622,-3.5599,-3.5623,-3.5369,-3.5167,-3.5117,-3.4722,-3.4172,-3.3528,-3.3336,-3.3107,-3.2791,-3.2773,-3.2902,0.0,0.0,0.0,0.0,0.0,0.0,0.0,0.0,0.0,0.0,0.0,0.0,-3.208,-3.1775,-3.1477,-3.1211,-3.1225,-3.1127,-3.1098,-3.2023,-3.2443,-3.2649,-3.3025,-3.3156,-3.2985,-3.21,-3.1993,-3.1864,-3.0205,-2.9896,-3.0109,-3.0136,-3.0286,-3.0398,-3.0398,-3.0402,0.0,-3.0279,-2.9601,-2.8949,-2.8846,-2.8178,-2.7634,-2.7632,-2.7678,-2.7716,-2.7717,-2.7902,-2.75,-2.5927,-2.6301,-2.6491,-2.5788,-2.5697,-2.6026,-2.6812,-2.7496,-2.8281,-2.9324,-3.0056,-3.0508,-3.0673,-3.07,-3.03,-2.9428,-2.9389,-2.9097,-2.846,-2.844,-2.8831,-2.9648,-2.9641,-2.9989,-3.0621,-3.0613,-3.0568,-3.05,-3.0509,-3.0466,-3.0398,-3.0398,-3.0398,-3.0398,-3.0398,-3.0398,-3.0398,-3.0398,-3.0398,-3.0525,-3.8041,0.0,0.0,0.0,0.0,0.0,0.0,0.0,0.0,0.0,0.0,0.0,0.0,-3.5622,-3.5711,-3.5975,-3.5847,-3.5832,-3.6093,-3.5574,-3.4898,-3.4144,-3.3811,-3.3404,-3.2855,-3.287,-3.2948,0.0,0.0,0.0,0.0,0.0,0.0,0.0,0.0,0.0,0.0,0.0,-3.2888,-3.2391,-3.1719,-3.0992,-3.0296,-3.0289,-3.0372,-3.0599,-3.1255,-3.1504,-3.1635,-3.248,-3.2499,-3.1991,-3.1087,-3.0826,-3.0621,-2.94,-2.9212,-2.9508,-2.998,-3.0254,-3.0398,-3.0398,-3.0398,0.0,0.0,-2.9805,-2.9216,-2.9244,-2.8613,-2.8061,-2.8087,-2.8129,-2.8257,-2.8594,-2.8798,-2.875,-2.8319,-2.7539,-2.6676,-2.5806,-2.6052,-2.6637,-2.7469,-2.8279,-2.9117,-2.9985,-3.0445,-3.071,-3.0695,-3.0695,-3.0295,-2.9434,-2.902,-2.8604,-2.8207,-2.776,-2.7962,-2.8819,-2.9162,-2.9559,-2.9973,-3.0375,-3.052,-3.0499,-3.0466,-3.0425,-3.0414,-3.0414,-3.0425,-3.0455,-3.0414,-3.0425,-3.0455,-3.0414,-3.0414,-3.0471,-3.8695,0.0,0.0,0.0,0.0,0.0,0.0,0.0,0.0,0.0,0.0,0.0,0.0,-3.5355,-3.5402,-3.5659,-3.5811,-3.6104,-3.6499,-3.6064,-3.5478,-3.4723,-3.4376,-3.3791,-3.292,-3.3027,-3.3172,-3.331,0.0,0.0,0.0,0.0,0.0,0.0,0.0,0.0,0.0,0.0,0.0,-3.2559,-3.1537,-3.0704,-3.0062,-2.9789,-2.9987,-3.0439,-3.0617,-3.0678,-3.0828,-3.1785,-3.1579,-3.0827,-3.0432,-2.9944,-2.9438,-2.9044,-2.8789,-2.8843,-2.9794,-3.0196,-3.0355,-3.0398,-3.0398,-3.0398,0.0,0.0,0.0,-2.9438,-2.8916,-2.8489,-2.856,-2.8579,-2.8777,-2.9323,-2.96,-3.0002,-3.069,-2.8842,-2.7148,-2.6445,-2.6827,-2.7488,-2.8379,-2.9335,-3.0121,-3.0671,-3.0865,-3.0884,-3.071,-3.069,-3.0289,-2.9428,-2.8624,-2.8129,-2.7954,-2.7079,-2.7073,-2.7945,-2.8539,-2.8896,-2.9046,-2.9709,-2.9997,-3.0006,-3.0125,-3.0163,-3.0177,-3.0351,-3.0439,-3.049,-3.0439,-3.0439,-3.0479,-3.0439,-3.0428,-3.0417,-3.8921,-3.8862,0.0,0.0,0.0,0.0,0.0,0.0,0.0,0.0,0.0,0.0,-3.5236,-3.4593,-3.426,-3.4463,-3.4484,-3.4913,-3.5822,-3.5826,-3.5478,-3.4723,-3.5249,-3.4711,-3.2859,-3.3448,-3.363,-3.331,0.0,0.0,0.0,0.0,0.0,0.0,-3.2349,0.0,0.0,0.0,-3.1755,-3.106,-3.0823,-3.1052,-3.1452,-3.118,-3.0705,-3.0115,-2.9903,-2.9833,-3.0058,-3.1579,-3.1579,-3.1128,-3.2456,-3.1329,-2.9623,-3.0256,-2.9495,-2.8644,-2.9658,-3.0022,-3.0182,-3.0355,-3.0398,-3.0398,-3.0398,0.0,-3.0267,-3.0267,0.0,-3.022,-3.0229,0.0,0.0,-3.052,-3.0594,-3.0693,-3.0793,-2.9682,-2.8825,-2.8732,-2.8315,-2.8387,-2.9277,-3.0782,-3.1421,-3.0746,-3.1414,-3.1525,-3.0729,-3.069,-3.0289,-2.9428,-2.8618,-2.7826,-2.7059,-2.6189,-2.6162,-2.6953,-2.7043,-2.7423,-2.8058,-2.8145,-2.8192,-2.824,-2.9011,-2.9349,-2.9399,-3.0171,-3.049,-3.051,-3.049,-3.0479,-3.0499,-3.0499,-3.0499,-3.0499,-3.891,-3.891,0.0,0.0,0.0,0.0,0.0,0.0,0.0,0.0,0.0,0.0,-3.5835,-3.5542,-3.5244,-3.5009,-3.5014,-3.5231,-3.5756,-3.5811,-3.5671,-3.5355,-3.586,-3.5545,-3.4209,-3.4232,-3.4114,-3.3867,-3.3275,0.0,0.0,0.0,0.0,0.0,-3.2198,0.0,-3.1867,0.0,-3.1355,-3.1332,-3.0796,-3.1141,-3.1773,-3.0421,-2.9894,-2.9857,-2.9739,-2.9701,-2.9795,-3.0433,-3.0452,-3.0133,-2.9756,-2.9249,-2.8764,-2.8556,-2.8446,-2.8609,-2.9626,-2.9669,-2.9563,-3.0239,-3.0025,-2.9775,-3.0294,-3.0398,-3.0398,-3.0398,0.0,0.0,0.0,0.0,0.0,0.0,-3.0755,-3.0793,-3.0804,-3.0355,-2.9682,-2.8747,-2.9276,-3.0049,-3.0866,-3.1125,-3.1098,-3.0741,-3.1033,-3.1098,-3.071,-3.069,-3.0302,-2.9421,-2.8579,-2.7725,-2.685,-2.6488,-2.6217,-2.6054,-2.6989,-2.7363,-2.7229,-2.7701,-2.7902,-2.7951,-2.8818,-2.9224,-2.9323,-3.0153,-3.052,-3.0559,-3.055,-3.0569,-3.055,-3.051,-3.05,-3.05,-3.8732,0.0,0.0,0.0,0.0,0.0,0.0,0.0,0.0,0.0,0.0,-3.6156,-3.6156,-3.5792,-3.5404,-3.4965,-3.4777,-3.4818,-3.5162,-3.539,-3.5407,-3.5271,-3.6166,-3.6114,-3.4986,-3.5058,-3.4853,-3.4353,-3.3683,0.0,0.0,0.0,0.0,0.0,0.0,-3.173,-3.1114,-3.0898,-3.0977,-3.1112,-3.051,-3.0646,-3.1093,-2.9824,-2.9498,-2.9701,-2.9701,-2.9701,-2.972,-2.9889,-2.9664,-2.9195,-2.8316,-2.7867,-2.7623,-2.7382,-2.7546,-2.802,-2.9209,-2.9216,-2.9129,-3.0075,-2.9886,-2.9621,-3.0256,-3.0398,-3.0398,-3.0398,-3.0398,0.0,0.0,0.0,-3.0591,-3.0685,0.0,-3.0774,-3.0799,-3.0764,-3.0292,-2.9118,-3.058,-3.1772,-3.1975,-3.1637,-3.1312,-3.1059,-3.1059,-3.0943,-3.071,-3.069,-3.0411,-2.9776,-2.8909,-2.8145,-2.7517,-2.7249,-2.6691,-2.5839,-2.7015,-2.7133,-2.6333,-2.694,-2.7209,-2.7287,-2.8395,-2.8907,-2.9023,-3.0086,-3.0559,-3.0598,-3.0598,-3.0598,-3.0598,-3.055,-3.053,-3.052,-3.8372,-3.864,0.0,0.0,0.0,0.0,0.0,0.0,-3.697,-3.6987,-3.6282,-3.5826,-3.5826,-3.4475,-3.3581,-3.3564,-3.2897,-3.2809,-3.3512,-3.4284,-3.4462,-3.3881,-3.6058,-3.6346,-3.4375,-3.5831,-3.5918,-3.4501,-3.4353,0.0,0.0,0.0,0.0,0.0,-3.2199,-3.1888,-3.1905,-3.1209,-3.0395,-2.9582,-2.9683,-2.9432,-2.9113,-3.0095,-3.0143,-2.9701,-2.9701,-2.9701,-2.9814,-3.0526,-2.972,-2.8708,-3.0205,-2.8558,-2.6371,-2.7896,-2.732,-2.6521,-2.8184,-2.8779,-2.9082,-2.9898,-3.0235,-3.0359,-3.0379,-3.0398,-3.0398,-3.0398,-3.0398,-3.041,-3.041,-3.0471,-3.0558,-3.0679,-3.0697,0.0,0.0,-3.0799,-3.0774,-3.0721,-3.2661,-3.3465,-3.2123,-3.2732,-3.2866,-3.2031,-3.1972,-3.1584,-3.0749,-3.069,-3.0683,-3.0661,-2.9807,-2.9346,-2.9311,-2.8427,-2.7522,-2.6657,-2.6717,-2.6246,-2.5351,-2.5438,-2.5484,-2.558,-2.7285,-2.8038,-2.8161,-2.9882,-3.0598,-3.0598,-3.0598,-3.0598,-3.0598,-3.0598,-3.0598,-3.0598,-3.8244,0.0,0.0,0.0,0.0,0.0,-3.7048,-3.6987,-3.6794,-3.6285,-3.5987,-3.5618,-3.5127,-3.4618,-3.4091,-3.3528,-3.3283,-3.3231,-3.3494,-3.4249,-3.4638,-3.4518,-3.6452,-3.7006,-3.5921,-3.6558,-3.6576,-3.5954,-3.4842,0.0,0.0,0.0,0.0,0.0,0.0,-3.1637,0.0,-3.0302,-2.9826,-2.9674,-3.0027,-2.9989,-2.9719,-2.9895,-2.987,-2.9701,-2.9701,-2.9701,-2.9739,-2.9983,-2.9326,-2.839,-2.8371,-2.7638,-2.6785,-2.677,-2.6862,-2.712,-2.7821,-2.7625,-2.7611,-2.9125,-2.911,-2.9044,-3.016,-3.0398,-3.0398,-3.0398,-3.0398,-3.0398,-3.0398,-3.0449,-3.0492,-3.0492,-3.0614,-3.0704,0.0,-3.0774,-3.0791,-3.081,-3.2096,-3.2713,-3.2052,-3.2791,-3.2941,-3.2069,-3.2,-3.1617,-3.0756,-3.0703,-3.0447,-2.987,-2.9505,-2.9063,-2.8473,-2.8113,-2.7507,-2.6693,-2.666,-2.6188,-2.536,-2.5397,-2.5395,-2.5509,-2.7228,-2.8008,-2.815,-2.9882,-3.0598,-3.0598,-3.0598,-3.0598,-3.0598,-3.0598,-3.0598,-3.0598,-3.8054,0.0,0.0,0.0,0.0,-3.7299,-3.7048,-3.6987,-3.6707,-3.5917,-3.5811,-3.553,-3.4776,-3.4424,-3.4056,-3.3528,-3.3266,-3.3231,-3.344,-3.4039,-3.4447,-3.4553,-3.6007,-3.6556,-3.5951,-3.6573,-3.6702,-3.6281,-3.5511,-3.4942,0.0,0.0,0.0,0.0,0.0,-3.1685,-3.0599,-3.025,-2.9746,-2.9321,-2.9761,-2.9853,-2.9752,-2.9678,-2.9814,-2.9943,-2.9777,-2.9701,-2.9701,-2.9699,-2.893,-2.7882,-2.73,-2.6814,-2.6351,-2.5777,-2.614,-2.6802,-2.7167,-2.6905,-2.6841,-2.8307,-2.8277,-2.8258,-2.9663,-2.9948,-2.9944,-2.9944,-3.0186,-3.0206,-2.9586,-3.0021,-3.0364,-3.0037,-3.0361,-3.0678,0.0,-3.0774,-3.0687,-3.0367,-3.1929,-3.2857,-3.2504,-3.3223,-3.3504,-3.2964,-3.2352,-3.1738,-3.1197,-3.0866,-3.0423,-2.9846,-2.9771,-2.9337,-2.8476,-2.8396,-2.7798,-2.6704,-2.6622,-2.6188,-2.5397,-2.5395,-2.5404,-2.5498,-2.7245,-2.7997,-2.815,-2.9882,-3.0598,-3.0598,-3.0598,-3.0598,-3.0598,-3.0598,-3.0598,-3.0598,-3.7807,-3.7933,-3.7949,-3.7809,-3.7577,-3.7317,-3.7066,-3.6952,-3.6636,-3.5864,-3.5723,-3.5425,-3.467,-3.388,-3.3441,-3.3459,-3.2809,-3.2669,-3.3351,-3.3653,-3.3826,-3.3875,-3.4894,-3.5213,-3.4594,-3.6049,-3.6384,-3.5529,-3.6251,0.0,0.0,0.0,0.0,0.0,-3.3305,0.0,-3.0624,-3.1003,-3.0176,-2.8623,-2.9026,-2.9181,-2.9203,-2.9491,-2.9975,-3.0426,-2.9888,-2.9701,-2.9701,-2.9699,-2.8589,-2.7198,-2.7196,-2.6238,-2.5111,-2.5096,-2.5293,-2.565,-2.6275,-2.6535,-2.6801,-2.7497,-2.7747,-2.8077,-2.8945,-2.9085,-2.9048,-2.9037,-2.9694,-2.9771,-2.8157,-2.921,-3.0094,-2.9389,-3.0007,-3.0649,-3.0789,-3.0799,-3.0486,-2.9659,-3.2184,-3.3799,-3.3294,-3.4013,-3.4542,-3.4608,-3.3067,-3.2113,-3.2065,-3.1242,-3.0749,-3.0671,-3.0585,-3.015,-2.9302,-2.9159,-2.829,-2.6708,-2.6593,-2.614,-2.5407,-2.5404,-2.5421,-2.5564,-2.7263,-2.8014,-2.8208,-2.9901,-3.0598,-3.0598,-3.0598,-3.0598,-3.0598,-3.0598,-3.0598,-3.0598,-3.8038,-3.7915,-3.7685,-3.7649,-3.745,-3.7259,-3.7009,-3.6478,-3.5846,-3.5074,-3.4477,-3.3828,-3.3073,-3.2809,-3.2738,-3.2806,-3.2663,-3.2645,-3.2942,-3.3541,-3.3661,-3.3173,-3.4523,-3.4981,-3.4402,-3.5918,-3.657,-3.6323,-3.6485,-3.6433,-3.6113,0.0,0.0,0.0,0.0,-3.2468,-3.1769,-3.1864,-3.117,-3.0001,-3.0246,-3.0225,-2.9972,-2.9773,-2.9995,-3.0361,-2.9869,-2.9701,-2.972,-2.9755,-2.8627,-2.7219,-2.7266,-2.627,-2.5096,-2.5096,-2.5303,-2.5536,-2.5701,-2.5774,-2.5994,-2.6826,-2.7022,-2.7237,-2.8115,-2.829,-2.8261,-2.823,-2.8392,-2.8593,-2.8749,-2.9133,-2.9579,-3.0017,-3.0385,-3.0634,-3.0704,-3.0764,-3.0726,-3.0486,-3.1688,-3.25,-3.2418,-3.3779,-3.4632,-3.4591,-3.4228,-3.3701,-3.3002,-3.2134,-3.1655,-3.1644,-3.038,-2.9574,-2.9303,-2.8009,-2.7131,-2.6687,-2.6023,-2.5627,-2.5468,-2.5476,-2.582,-2.6494,-2.755,-2.8371,-2.9046,-3.0143,-3.0598,-3.0598,-3.0598,-3.0636,-3.0675,-3.0617,-3.0598,-3.0598,-3.8077,-3.798,-3.7792,-3.7721,-3.7595,-3.7429,-3.7279,-3.6679,-3.6001,-3.5379,-3.4495,-3.3668,-3.2897,-3.265,-3.2507,-3.2539,-3.2672,-3.2897,-3.3253,-3.3425,-3.3458,-3.3384,-3.3967,-3.4103,-3.3768,-3.499,-3.5749,-3.6073,-3.6379,-3.6666,-3.6881,0.0,0.0,0.0,0.0,-3.313,-3.2172,-3.1938,-3.1556,-3.116,-3.1287,-3.1206,0.0,-3.0372,-3.0557,-3.1049,-3.0393,-2.9964,-2.9701,-2.9825,-2.8693,-2.7299,-2.7407,-2.641,-2.5224,-2.5194,-2.5365,-2.5538,-2.5538,-2.5538,-2.5648,-2.6152,-2.6234,-2.6409,-2.7287,-2.7445,-2.741,-2.7374,-2.7682,-2.7836,-2.7495,-2.836,-2.9443,-3.0335,-3.0549,-3.0634,-3.0736,-3.0784,-3.0799,-3.0799,-3.1207,-3.178,-3.2594,-3.3867,-3.4802,-3.5176,-3.4863,-3.4433,-3.3901,-3.3039,-3.24,-3.2016,-3.1412,-3.0545,-2.9368,-2.8376,-2.7501,-2.6734,-2.5862,-2.5468,-2.5511,-2.5886,-2.6359,-2.6916,-2.8105,-2.8891,-2.9406,-3.0259,-3.0598,-3.0598,-3.0598,-3.0617,-3.0656,-3.0617,-3.0617,-3.0636,-3.8077,-3.8111,-3.7982,-3.79,-3.7775,-3.765,-3.7506,-3.6973,-3.6426,-3.6022,-3.4955,-3.4018,-3.3406,-3.2877,-3.2606,-3.2574,-3.2787,-3.3169,-3.3799,-3.3323,-3.3283,-3.3847,-3.3351,-3.3086,-3.3055,-3.3831,-3.4605,-3.5359,-3.6166,-3.6899,0.0,0.0,0.0,0.0,0.0,0.0,0.0,-3.1957,-3.1885,-3.2187,-3.2187,-3.2112,-3.1923,-3.1175,-3.1383,-3.2004,-3.1238,-3.0489,-2.9889,-2.9992,-2.8925,-2.7555,-2.7575,-2.6638,-2.5513,-2.536,-2.5441,-2.5601,-2.5601,-2.5601,-2.5601,-2.5601,-2.5564,-2.5703,-2.6474,-2.6599,-2.6558,-2.655,-2.7157,-2.7226,-2.5746,-2.7422,-2.9332,-3.0275,-3.033,-3.0319,-3.0443,-3.0453,-3.0492,-3.0613,-3.0622,0.0,-3.3223,-3.3965,-3.4783,-3.5921,-3.5233,-3.4784,-3.4785,-3.3848,-3.2907,-3.2037,-3.2413,-3.1546,-2.9254,-2.9012,-2.826,-2.6968,-2.5975,-2.5635,-2.589,-2.6524,-2.697,-2.7319,-2.8779,-2.945,-2.9624,-3.0326,-3.0616,-3.0615,-3.0607,-3.0617,-3.0636,-3.0636,-3.0665,-3.0703,-3.8285,-3.8129,-3.7897,-3.7899,-3.7755,-3.7467,-3.6948,-3.5972,-3.5296,-3.5279,-3.3898,-3.2944,-3.2887,-3.2727,-3.2672,-3.2884,-3.2965,-3.3113,-3.3399,-3.3206,-3.3096,-3.3176,-3.3082,-3.2979,-3.2948,-3.3766,-3.4554,-3.5221,-3.6667,-3.747,0.0,0.0,0.0,0.0,0.0,0.0,-3.3877,-3.3967,-3.3649,-3.3072,-3.3133,-3.2678,-3.1979,-3.1894,-3.197,-3.2079,-3.1934,-3.1353,-3.0716,-3.0771,-2.9727,-2.8285,-2.7646,-2.6962,-2.6256,-2.5515,-2.5445,-2.5601,-2.5601,-2.5601,-2.5601,-2.5601,-2.5595,-2.5628,-2.5783,-2.5796,-2.5777,-2.5708,-2.5836,-2.6041,-2.6397,-2.743,-2.8481,-2.9298,-2.8899,-2.8495,-2.8638,-2.8653,-2.8922,-2.9647,-2.9728,-3.069,-3.3163,-3.3078,-3.3746,-3.5833,-3.5855,-3.5759,-3.5759,-3.4246,-3.2984,-3.2102,-3.0135,-2.8842,-2.834,-2.6969,-2.6802,-2.784,-2.6319,-2.6345,-2.7715,-2.7133,-2.7673,-2.9071,-2.9304,-2.981,-3.0472,-3.0618,-3.0673,-3.067,-3.0679,-3.0714,-3.0752,-3.0752,-3.0765,-3.0768,-3.831,-3.8165,-3.8031,-3.7967,-3.7826,-3.752,-3.682,-3.5826,-3.5188,-3.5153,-3.395,-3.314,-3.3225,-3.2953,-3.277,-3.2834,-3.3042,-3.3201,-3.3292,-3.3262,-3.3183,-3.317,-3.306,-3.2979,-3.2948,-3.3323,-3.4273,-3.5828,-3.6357,-3.725,-3.8509,-3.8579,0.0,0.0,0.0,-3.484,0.0,-3.434,-3.4248,-3.3979,-3.402,-3.3754,-3.3299,-3.2889,-3.3002,-3.3339,-3.287,-3.2519,-3.2222,-3.1929,-3.0741,-2.9269,-2.8549,-2.7575,-2.652,-2.5663,-2.5503,-2.5601,-2.5601,-2.5601,-2.5601,-2.5601,-2.5601,-2.5601,-2.5601,-2.5601,-2.5595,-2.557,-2.5544,-2.5802,-2.6591,-2.7409,-2.8104,-2.8567,-2.8648,-2.8566,-2.8236,-2.8463,-2.8706,-2.881,-2.9613,-3.0667,-3.1934,-3.2606,-3.3803,-3.5858,-3.5995,-3.5799,-3.5347,-3.4093,-3.2807,-3.1523,-3.0253,-2.914,-2.8219,-2.7393,-2.7186,-2.7518,-2.6223,-2.606,-2.6912,-2.7373,-2.8058,-2.8937,-2.9808,-3.0398,-3.0747,-3.0761,-3.0727,-3.0711,-3.073,-3.0776,-3.0791,-3.0791,-3.0794,-3.0782,-3.8493,-3.8303,-3.8187,-3.8074,-3.7875,-3.7422,-3.6566,-3.5677,-3.5109,-3.5005,-3.4107,-3.344,-3.3474,-3.3143,-3.2866,-3.2784,-3.3073,-3.3262,-3.331,-3.331,-3.331,-3.331,-3.3152,-3.3042,-3.2979,-3.3042,-3.4028,-3.5985,-3.6041,-3.6926,-3.8652,-3.9121,-3.8738,0.0,0.0,-3.5032,-3.4293,-3.4293,-3.4404,-3.4602,-3.4602,-3.4602,-3.4526,-3.3827,-3.3998,-3.4508,-3.3808,-3.3556,-3.3488,-3.3264,-3.2063,-3.0527,-2.9727,-2.8496,-2.712,-2.6072,-2.5673,-2.5601,-2.5601,-2.5601,-2.5601,-2.5601,-2.5601,-2.5601,-2.5601,-2.5601,-2.5601,-2.5601,-2.5601,-2.5861,-2.6648,-2.7136,-2.7503,-2.7789,-2.8197,-2.8293,-2.7752,-2.8064,-2.8188,-2.7721,-2.909,-3.0179,-3.042,-3.1897,-3.3529,-3.5135,-3.537,-3.5095,-3.4271,-3.3529,-3.2358,-3.066,-3.0443,-2.9682,-2.8318,-2.7929,-2.7597,-2.726,-2.6144,-2.5839,-2.6291,-2.7433,-2.8188,-2.8651,-3.0039,-3.0703,-3.082,-3.0823,-3.08,-3.0742,-3.0798,-3.0827,-3.0824,-3.0828,-3.093,-3.1079,-3.9044,-3.8662,-3.8282,-3.8259,-3.7657,-3.6815,-3.5696,-3.4784,-3.427,-3.4365,-3.357,-3.3005,-3.3131,-3.3015,-3.2916,-3.2979,-3.3073,-3.3165,-3.3292,-3.331,-3.331,-3.331,-3.3262,-3.3201,-3.3011,-3.3327,-3.3916,-3.469,-3.6352,-3.6905,-3.6523,-3.895,-3.9043,-3.7132,-3.6269,-3.5387,-3.4561,-3.4561,-3.458,-3.4602,-3.4602,-3.4602,-3.4583,-3.4508,-3.4526,-3.4583,-3.4508,-3.4107,-3.3732,-3.4721,-3.3928,-3.2301,-3.0839,-2.9773,-2.8749,-2.7086,-2.6126,-2.5601,-2.5601,-2.5601,-2.5601,-2.5601,-2.5601,-2.5601,-2.5601,-2.5601,-2.5601,-2.5601,-2.5601,-2.5861,-2.6648,-2.6262,-2.6061,-2.681,-2.6327,-2.5865,-2.5932,-2.5928,-2.5925,-2.5925,-2.6981,-2.8115,-2.9156,-3.0349,-3.1546,-3.2731,-3.3336,-3.3375,-3.2731,-3.2397,-3.1426,-2.9682,-2.8912,-2.8467,-2.8301,-2.6738,-2.6699,-2.816,-2.6483,-2.6521,-2.8037,-2.7398,-2.7981,-2.9496,-2.9647,-3.0176,-3.0898,-3.0897,-3.0897,-3.0878,-3.0898,-3.0898,-3.0889,-3.0897,-3.1339,-3.1987,-3.7916,-3.8053,-3.8051,-3.7408,-3.7206,-3.6691,-3.5308,-3.456,-3.4031,-3.3625,-3.3208,-3.2979,-3.2979,-3.2979,-3.2948,-3.2948,-3.3011,-3.3042,-3.3122,-3.3232,-3.331,-3.331,-3.3214,-3.3135,-3.3073,-3.3798,-3.477,-3.5946,-3.7085,-3.7988,-3.8617,-3.8958,-3.8134,-3.6374,-3.6051,-3.5409,-3.4602,-3.4602,-3.4623,-3.4666,-3.4623,-3.4645,-3.4727,-3.4666,-3.4706,-3.4708,-3.4666,-3.4504,-3.4434,-3.5066,-3.4238,-3.2759,-3.1759,-3.0859,-2.981,-2.8107,-2.7013,-2.6378,-2.6378,-2.6009,-2.5601,-2.5601,-2.5601,-2.5601,-2.5601,-2.5601,-2.5601,-2.5601,-2.5601,-2.5692,-2.6023,-2.621,-2.6275,-2.6104,-2.6187,-2.6136,-2.5749,-2.5634,-2.5615,-2.5698,-2.6986,-2.766,-2.7117,-2.9328,-3.1843,-3.4354,-3.4758,-3.42,-3.2583,-3.1744,-3.0528,-2.8767,-2.7438,-2.6737,-2.6737,-2.6055,-2.6054,-2.6734,-2.603,-2.6071,-2.6757,-2.6921,-2.7956,-2.9625,-3.0156,-3.0586,-3.0898,-3.0898,-3.0898,-3.0898,-3.0898,-3.0898,-3.0956,-3.1449,-3.1824,-3.2231,-3.7254,-3.753,-3.764,-3.6881,-3.6731,-3.6315,-3.5045,-3.4298,-3.3683,-3.3127,-3.3042,-3.2979,-3.2948,-3.2948,-3.2948,-3.2916,-3.2948,-3.2979,-3.2979,-3.3152,-3.3262,-3.331,-3.3214,-3.3242,-3.3458,-3.4316,-3.5399,-3.6703,-3.759,-3.8324,-3.8912,-3.807,-3.7039,-3.5888,-3.5904,-3.5431,-3.4602,-3.4623,-3.4666,-3.4687,-3.4666,-3.4727,-3.4788,-3.4747,-3.4768,-3.4788,-3.4708,-3.443,-3.4187,-3.4711,-3.4051,-3.2968,-3.2876,-3.203,-3.0806,-2.9355,-2.797,-2.6903,-2.6903,-2.6262,-2.5601,-2.5601,-2.5601,-2.5601,-2.5601,-2.5601,-2.5601,-2.5601,-2.5601,-2.5601,-2.5601,-2.6068,-2.6256,-2.569,-2.6087,-2.6266,-2.5749,-2.5629,-2.5988,-2.7059,-2.7326,-2.7371,-2.7191,-2.8442,-3.0273,-3.2692,-3.3824,-3.3548,-3.1586,-3.0716,-2.952,-2.7874,-2.6673,-2.6054,-2.6071,-2.5838,-2.5701,-2.57,-2.5693,-2.5694,-2.5741,-2.6866,-2.8057,-2.9276,-3.041,-3.0898,-3.0898,-3.0898,-3.0898,-3.0898,-3.0898,-3.0898,-3.0996,-3.1801,-3.2268,-3.2682,-3.7489,-3.733,-3.7103,-3.7103,-3.6287,-3.5436,-3.4871,-3.3846,-3.3073,-3.3011,-3.2979,-3.2979,-3.2979,-3.2948,-3.2916,-3.2916,-3.2948,-3.2979,-3.2979,-3.3055,-3.3165,-3.3292,-3.331,-3.3622,-3.4285,-3.4879,-3.5524,-3.6229,-3.7597,-3.7497,-3.5945,-3.5991,-3.5972,-3.5888,-3.5888,-3.5415,-3.4583,-3.4666,-3.4687,-3.4727,-3.4768,-3.4788,-3.4788,-3.4788,-3.4788,-3.4788,-3.4708,-3.3714,-3.2571,-3.3578,-3.3525,-3.3189,-3.4237,-3.3379,-3.1799,-3.0923,-2.8876,-2.6903,-2.6903,-2.6262,-2.5601,-2.5601,-2.5601,-2.5601,-2.5601,-2.5601,-2.5601,-2.5601,-2.5601,-2.5601,-2.5601,-2.5613,-2.5618,-2.5599,-2.5615,-2.561,-2.561,-2.5591,-2.6856,-3.0236,-2.7672,-2.6955,-3.0303,-2.7627,-2.5673,-2.5729,-2.8918,-3.0331,-2.9102,-2.9026,-2.8364,-2.6959,-2.6891,-2.6921,-2.6989,-2.6122,-2.5693,-2.57,-2.5693,-2.5707,-2.5765,-2.7493,-2.8291,-2.8418,-3.0154,-3.0898,-3.0898,-3.0898,-3.0898,-3.0898,-3.0898,-3.0898,-3.0996,-3.1801,-3.2631,-3.3509,-3.6058,-3.6366,-3.6501,-3.5912,-3.5732,-3.5399,-3.4636,-3.3744,-3.3178,-3.3183,-3.3091,-3.2979,-3.2979,-3.2979,-3.2948,-3.2916,-3.2916,-3.2916,-3.2916,-3.3024,-3.3117,-3.3165,-3.3262,-3.3725,-3.4618,-3.5532,-3.6177,-3.6544,-3.7717,-3.7502,-3.5972,-3.5993,-3.5713,-3.5205,-3.5124,-3.4953,-3.4728,-3.4708,-3.4747,-3.4829,-3.4809,-3.4829,-3.4869,-3.4868,-3.4868,-3.4869,-3.479,-3.445,-3.4018,-3.3929,-3.4164,-3.4499,-3.4571,-3.3809,-3.2713,-3.1831,-2.9751,-2.7718,-2.7718,-2.6689,-2.5601,-2.5601,-2.5601,-2.5601,-2.5601,-2.5601,-2.5601,-2.5601,-2.5601,-2.5601,-2.5601,-2.5593,-2.5604,-2.56,-2.5591,-2.5624,-2.5667,-2.5624,-2.6028,-2.7157,-2.834,-2.9508,-3.0584,-2.7609,-2.6918,-3.008,-3.2731,-3.2355,-2.8073,-2.8232,-2.7979,-2.6928,-2.631,-2.6026,-2.6052,-2.5814,-2.5681,-2.562,-2.5683,-2.57,-2.5746,-2.688,-2.7739,-2.8359,-2.9506,-3.0351,-3.0898,-3.0898,-3.0898,-3.0898,-3.0898,-3.1248,-3.1823,-3.2665,-3.3539,-3.441,-3.5321,-3.5649,-3.584,-3.5305,-3.5306,-3.5162,-3.4498,-3.3873,-3.3455,-3.3286,-3.3183,-3.3091,-3.3028,-3.3011,-3.3011,-3.2948,-3.2948,-3.2948,-3.2948,-3.3011,-3.3104,-3.3165,-3.355,-3.4208,-3.5221,-3.6323,-3.7119,-3.7604,-3.7791,-3.7224,-3.5953,-3.5694,-3.5339,-3.4868,-3.4788,-3.4788,-3.4788,-3.4788,-3.4809,-3.4887,-3.4849,-3.485,-3.4908,-3.4888,-3.4908,-3.4889,-3.4849,-3.4412,-3.3809,-3.3535,-3.3609,-3.3795,-3.3658,-3.3472,-3.3187,-3.2649,-3.086,-2.8929,-2.8282,-2.6877,-2.5595,-2.5601,-2.5601,-2.5601,-2.5601,-2.5601,-2.5601,-2.5601,-2.5607,-2.5607,-2.5607,-2.5604,-2.56,-2.5595,-2.56,-2.5628,-2.5699,-2.5632,-2.5857,-2.6558,-2.7921,-2.9153,-2.999,-2.7386,-2.6836,-2.9683,-3.1582,-3.1006,-2.7348,-2.8015,-2.8009,-2.6928,-2.6378,-2.6251,-2.6572,-2.6286,-2.6127,-2.6097,-2.5816,-2.5703,-2.5736,-2.6609,-2.7481,-2.8359,-2.9226,-3.0093,-3.0898,-3.0898,-3.0898,-3.0937,-3.1229,-3.1669,-3.2241,-3.3443,-3.4222,-3.482,-3.5239,-3.5209,-3.5209,-3.5209,-3.504,-3.4789,-3.4492,-3.4184,-3.3823,-3.3321,-3.3286,-3.3232,-3.306,-3.3073,-3.3073,-3.3028,-3.2979,-3.2979,-3.2979,-3.3011,-3.3091,-3.3292,-3.4099,-3.4999,-3.6006,-3.7135,-3.8146,-3.8961,-3.7671,-3.6607,-3.5816,-3.5206,-3.4868,-3.4809,-3.4868,-3.4868,-3.4809,-3.4868,-3.4887,-3.4907,-3.4908,-3.4908,-3.4908,-3.4908,-3.4908,-3.4908,-3.4888,-3.3809,-3.2429,-3.2641,-3.222,-3.1628,-3.1917,-3.2596,-3.3297,-3.3232,-3.202,-3.0328,-2.8651,-2.6916,-2.5589,-2.5595,-2.5601,-2.5601,-2.5601,-2.5601,-2.5601,-2.5601,-2.5593,-2.5599,-2.5604,-2.5605,-2.5604,-2.5604,-2.5604,-2.5628,-2.5699,-2.5652,-2.6208,-2.7839,-2.6641,-2.65,-2.8568,-2.6909,-2.5722,-2.5785,-2.6792,-2.7293,-2.7004,-2.8281,-2.8411,-2.7019,-2.6922,-2.7321,-2.8179,-2.7327,-2.6903,-2.6893,-2.6071,-2.5703,-2.5723,-2.6537,-2.7427,-2.8342,-2.916,-3.0045,-3.0894,-3.0898,-3.0898,-3.0976,-3.1784,-3.2143,-3.2397,-3.4078,-3.4742,-3.4917,-3.5353,-3.5262,-3.5209,-3.5209,-3.5078,-3.4935,-3.4793,-3.4435,-3.4099,-3.3902,-3.3643,-3.3422,-3.3304,-3.3274,-3.3183,-3.3011,-3.2979,-3.2979,-3.2979,-3.3042,-3.3135,-3.3292,-3.4324,-3.5339,-3.6381,-3.7448,-3.7904,-3.7638,-3.6076,-3.5197,-3.5051,-3.4962,-3.4887,-3.4868,-3.4887,-3.4888,-3.487,-3.4888,-3.4888,-3.4908,-3.4907,-3.4888,-3.4908,-3.4907,-3.4888,-3.4908,-3.4888,-3.4264,-3.3367,-3.2882,-3.2634,-3.2508,-3.2108,-3.259,-3.3167,-3.2499,-3.1534,-3.0464,-2.9396,-2.7382,-2.5609,-2.5589,-2.5595,-2.5601,-2.5601,-2.5601,-2.5601,-2.5593,-2.5599,-2.5604,-2.56,-2.5595,-2.5604,-2.5604,-2.5632,-2.5675,-2.5699,-2.5695,-2.5831,-2.624,-2.5944,-2.5905,-2.6431,-2.6002,-2.6227,-2.7493,-2.8212,-2.8376,-2.7841,-2.8748,-2.8845,-2.7854,-2.7213,-2.7297,-2.8126,-2.7315,-2.6894,-2.688,-2.6032,-2.5648,-2.5703,-2.5917,-2.685,-2.8303,-2.8527,-2.9489,-3.0903,-3.0847,-3.0852,-3.0974,-3.1789,-3.2506,-3.3219,-3.4293,-3.5112,-3.5718,-3.5425,-3.5345,-3.5267,-3.5209,-3.5152,-3.5047,-3.4964,-3.4693,-3.4435,-3.4173,-3.3895,-3.3661,-3.3481,-3.3352,-3.3232,-3.3073,-3.3042,-3.3042,-3.3042,-3.3268,-3.3415,-3.352,-3.4945,-3.6036,-3.6675,-3.7984,-3.8214,-3.7254,-3.5953,-3.5105,-3.4768,-3.4809,-3.4848,-3.4809,-3.4868,-3.4907,-3.4888,-3.4907,-3.4908,-3.487,-3.4472,-3.4548,-3.487,-3.4453,-3.4548,-3.4851,-3.4546,-3.3916,-3.3163,-3.2464,-3.2042,-3.1719,-3.1476,-3.2007,-3.2544,-3.1707,-3.1487,-3.1228,-2.9823,-2.8139,-2.6598,-2.5789,-2.5595,-2.5601,-2.5601,-2.5601,-2.5601,-2.5593,-2.5599,-2.5604,-2.5595,-2.561,-2.56,-2.5604,-2.6096,-2.6295,-2.5777,-2.6026,-2.6104,-2.5738,-2.5699,-2.5699,-2.5652,-2.6007,-2.6626,-2.7542,-2.8612,-2.8913,-2.8184,-2.8936,-2.8832,-2.7582,-2.7485,-2.7854,-2.869,-2.7874,-2.7057,-2.6311,-2.5823,-2.5612,-2.5661,-2.5683,-2.6423,-2.7737,-2.8137,-2.9054,-3.0289,-3.066,-3.0821,-3.0985,-3.2211,-3.2988,-3.3554,-3.482,-3.5581,-3.5991,-3.5295,-3.535,-3.5362,-3.5248,-3.5324,-3.535,-3.5246,-3.5268,-3.5093,-3.4573,-3.4451,-3.4223,-3.3661,-3.36,-3.3472,-3.3238,-3.322,-3.319,-3.3147,-3.3502,-3.3726,-3.3842,-3.5636,-3.6733,-3.6894,-3.8334,-3.8437,-3.7109,-3.626,-3.5447,-3.4727,-3.4788,-3.4768,-3.4727,-3.4829,-3.4831,-3.4698,-3.4718,-3.4624,-3.4453,-3.3696,-3.3847,-3.4453,-3.3809,-3.3999,-3.449,-3.4039,-3.3283,-3.2393,-3.1877,-3.1148,-3.0481,-3.0656,-3.121,-3.1688,-3.0998,-3.149,-3.1874,-3.0144,-2.8882,-2.7659,-2.6015,-2.5601,-2.5601,-2.5601,-2.5601,-2.5601,-2.5601,-2.5599,-2.5595,-2.5609,-2.5605,-2.5639,-2.578,-2.6554,-2.6885,-2.6182,-2.6606,-2.6704,-2.5972,-2.5933,-2.5909,-2.5803,-2.6591,-2.7098,-2.7104,-2.8544,-2.9085,-2.8246,-2.8857,-2.8514,-2.6947,-2.7557,-2.8256,-2.8994,-2.8314,-2.7233,-2.5795,-2.5658,-2.56,-2.559,-2.5662,-2.6189,-2.7054,-2.7903,-2.8759,-2.9581,-3.0437,-3.0872,-3.115,-3.2762,-3.3487,-3.3788,-3.5408,-3.5991,-3.5991,-3.4646,-3.5044,-3.5381,-3.5362,-3.5878,-3.6281,-3.6264,-3.6729,-3.6805,-3.6006,-3.622,-3.5845,-3.4271,-3.4578,-3.4567,-3.377,-3.3805,-3.3734,-3.3462,-3.3549,-3.3753,-3.4049,-3.5906,-3.6948,-3.6986,-3.7412,-3.7181,-3.6304,-3.5413,-3.492,-3.4788,-3.4848,-3.4848,-3.4788,-3.4869,-3.4491,-3.3809,-3.3791,-3.3393,-3.2694,-3.2487,-3.2524,-3.277,-3.3317,-3.3279,-3.3016,-3.362,-3.2953,-3.1831,-3.1733,-3.1235,-3.0656,-3.0685,-3.0831,-3.095,-3.0838,-3.0935,-3.0989,-3.0611,-2.9018,-2.7134,-2.5912,-2.5601,-2.5601,-2.5601,-2.5601,-2.5601,-2.5593,-2.5595,-2.5601,-2.5604,-2.5644,-2.5909,-2.6597,-2.6281,-2.6403,-2.7634,-2.7522,-2.718,-2.6771,-2.6961,-2.702,-2.6727,-2.7487,-2.7994,-2.7999,-2.8725,-2.889,-2.8235,-2.8326,-2.7931,-2.6928,-2.6968,-2.7058,-2.7194,-2.7349,-2.7181,-2.6689,-2.595,-2.56,-2.559,-2.5662,-2.6189,-2.7054,-2.7861,-2.8739,-2.9647,-3.0456,-3.124,-3.1992,-3.3005,-3.3844,-3.4627,-3.5623,-3.5991,-3.5991,-3.3813,-3.4408,-3.4878,-3.4815,-3.5806,-3.6615,-3.6612,-3.7209,-3.7488,-3.7032,-3.6647,-3.6073,-3.5105,-3.4742,-3.4375,-3.3947,-3.3968,-3.3968,-3.3917,-3.4005,-3.4124,-3.4293,-3.6179,-3.7423,-3.792,-3.7508,-3.6909,-3.6157,-3.5285,-3.4849,-3.4848,-3.4887,-3.4907,-3.4927,-3.4908,-3.4453,-3.3711,-3.3639,-3.3147,-3.2368,-3.186,-3.2043,-3.2542,-3.2414,-3.2515,-3.2709,-3.2689,-3.2256,-3.1628,-3.1284,-3.0956,-3.0711,-3.0697,-3.0739,-3.0799,-3.0799,-3.0468,-3.0068,-2.9897,-2.883,-2.7432,-2.5976,-2.5601,-2.5601,-2.5601,-2.5601,-2.5593,-2.561,-2.5595,-2.5604,-2.5598,-2.5621,-2.5773,-2.615,-2.6675,-2.7225,-2.7697,-2.8602,-2.8836,-2.7725,-2.774,-2.7779,-2.7619,-2.8266,-2.8729,-2.8895,-2.9586,-2.9698,-2.8938,-2.8907,-2.8507,-2.764,-2.7252,-2.678,-2.6152,-2.6922,-2.6926,-2.6194,-2.58,-2.5613,-2.5641,-2.5699,-2.5918,-2.6371,-2.7691,-2.8745,-2.9645,-3.096,-3.2017,-3.2885,-3.3763,-3.4351,-3.4803,-3.5681,-3.5991,-3.5991,-3.3234,-3.392,-3.4512,-3.4584,-3.5782,-3.6722,-3.6666,-3.7322,-3.7778,-3.7637,-3.6882,-3.6287,-3.6136,-3.5142,-3.4492,-3.45,-3.432,-3.4265,-3.442,-3.4476,-3.4517,-3.4602,-3.6394,-3.7635,-3.8092,-3.7595,-3.6857,-3.5893,-3.523,-3.4908,-3.4887,-3.4887,-3.4946,-3.5016,-3.4983,-3.4431,-3.3541,-3.3424,-3.2835,-3.1892,-3.1213,-3.1424,-3.213,-3.1604,-3.1755,-3.218,-3.1842,-3.159,-3.1381,-3.087,-3.069,-3.0704,-3.0722,-3.0764,-3.0799,-3.0799,-3.0034,-2.9124,-2.8787,-2.831,-2.7535,-2.5976,-2.5601,-2.5601,-2.5601,-2.5601,-2.5593,-2.56,-2.5595,-2.5591,-2.5601,-2.5617,-2.5702,-2.5955,-2.6909,-2.7751,-2.8111,-2.9342,-2.9849,-2.8914,-2.8797,-2.8792,-2.8802,-2.9216,-2.9664,-3.0068,-3.0541,-3.0502,-2.983,-2.9599,-2.9107,-2.8226,-2.7554,-2.6693,-2.5618,-2.647,-2.6476,-2.5605,-2.5877,-2.5915,-2.5702,-2.613,-2.6191,-2.6099,-2.7832,-2.904,-2.9916,-3.1468,-3.2739,-3.3763,-3.4443,-3.4817,-3.5076,-3.5759,-3.5991,-3.5991,-3.322,-3.3985,-3.4719,-3.5384,-3.623,-3.6735,-3.6537,-3.7302,-3.7847,-3.771,-3.7528,-3.7375,-3.7375,-3.6515,-3.5941,-3.5962,-3.5263,-3.4829,-3.4849,-3.4788,-3.4788,-3.4868,-3.6498,-3.7068,-3.6386,-3.7049,-3.6613,-3.5003,-3.4927,-3.4908,-3.4887,-3.4887,-3.4983,-3.5088,-3.5088,-3.4219,-3.2785,-3.2771,-3.1809,-3.0266,-3.0209,-3.0242,-3.039,-3.1111,-3.1053,-3.0675,-3.1426,-3.1303,-3.077,-3.0722,-3.0691,-3.0703,-3.0769,-3.0799,-3.0799,-3.0799,-2.962,-2.8179,-2.759,-2.7229,-2.6765,-2.584,-2.5601,-2.5601,-2.5601,-2.5601,-2.5607,-2.5604,-2.5604,-2.5605,-2.5589,-2.5652,-2.6029,-2.7011,-2.6442,-2.6952,-3.0034,-2.926,-2.8933,-3.0438,-3.0609,-3.0604,-3.0604,-3.0658,-3.1028,-3.1856,-3.1222,-3.0769,-3.0706,-2.993,-2.9099,-2.8232,-2.737,-2.6509,-2.56,-2.5684,-2.5676,-2.5619,-2.6726,-2.6727,-2.5754,-2.7362,-2.7665,-2.7002,-2.8689,-2.9896,-3.078,-3.1711,-3.3096,-3.4608,-3.4666,-3.5193,-3.5916,-3.5971,-3.5991,-3.5991,-3.2523,-3.3652,-3.4653,-3.4933,-3.6056,-3.688,-3.6768,-3.7442,-3.7968,-3.7945,-3.7406,-3.7011,-3.7006,-3.6119,-3.5526,-3.5475,-3.5116,-3.4908,-3.4908,-3.4415,-3.4358,-3.4868,-3.6025,-3.6253,-3.5401,-3.6215,-3.6141,-3.5089,-3.5089,-3.5141,-3.5219,-3.5219,-3.5277,-3.538,-3.4755,-3.3887,-3.2851,-3.2185,-3.1257,-3.0222,-3.0222,-3.029,-3.0455,-3.0783,-3.077,-3.0616,-3.0907,-3.0892,-3.0697,-3.0698,-3.0691,-3.0709,-3.0774,-3.0799,-3.0799,-3.0799,-2.9835,-2.8637,-2.8023,-2.699,-2.6015,-2.5679,-2.5601,-2.5601,-2.5601,-2.5601,-2.5593,-2.5595,-2.5604,-2.5613,-2.5652,-2.5675,-2.5823,-2.624,-2.6567,-2.6957,-2.7517,-2.8885,-3.0063,-3.0726,-3.081,-3.1019,-3.1549,-3.176,-3.1923,-3.2098,-3.1282,-3.0804,-3.0799,-3.0484,-2.9913,-2.9035,-2.8683,-2.8099,-2.7225,-2.6182,-2.6013,-2.6718,-2.6456,-2.6851,-2.7811,-2.776,-2.7776,-2.7895,-2.9628,-3.0838,-3.1719,-3.3122,-3.4429,-3.5506,-3.5506,-3.572,-3.5991,-3.5991,-3.5991,-3.5991,-3.2504,-3.3629,-3.4675,-3.4905,-3.5898,-3.6623,-3.6501,-3.6964,-3.7309,-3.7313,-3.674,-3.6419,-3.667,-3.5836,-3.5345,-3.5545,-3.5255,-3.5051,-3.5051,-3.4289,-3.3916,-3.4112,-3.5192,-3.5382,-3.4548,-3.5666,-3.5911,-3.5209,-3.5239,-3.5311,-3.5405,-3.5391,-3.5438,-3.5568,-3.4558,-3.3742,-3.2995,-3.1992,-3.1102,-3.0389,-3.0389,-3.0481,-3.0598,-3.0597,-3.0632,-3.0673,-3.0645,-3.0664,-3.0704,-3.0697,-3.0709,-3.0739,-3.0794,-3.0799,-3.0799,-3.0799,-3.0054,-2.909,-2.8398,-2.7132,-2.5943,-2.5659,-2.5601,-2.5601,-2.5601,-2.5601,-2.5593,-2.56,-2.5595,-2.5619,-2.5694,-2.571,-2.5699,-2.5699,-2.6578,-2.7254,-2.7293,-2.909,-3.0482,-3.0738,-3.0786,-3.1241,-3.2376,-3.2178,-3.2123,-3.248,-3.144,-3.0793,-3.0799,-3.08,-3.0527,-2.9938,-2.9918,-2.962,-2.9022,-2.7167,-2.6715,-2.768,-2.7051,-2.75,-2.8847,-2.8613,-2.8711,-2.9201,-3.0645,-3.1895,-3.3007,-3.4217,-3.5213,-3.5991,-3.5991,-3.5991,-3.5991,-3.5991,-3.5991,-3.5991,-3.34,-3.4038,-3.484,-3.5574,-3.582,-3.5827,-3.563,-3.5704,-3.5745,-3.56,-3.5523,-3.5792,-3.6588,-3.59,-3.5721,-3.6507,-3.5853,-3.5405,-3.5386,-3.457,-3.358,-3.2424,-3.3979,-3.451,-3.3714,-3.5451,-3.5993,-3.519,-3.534,-3.5405,-3.5405,-3.5345,-3.5406,-3.5568,-3.4604,-3.3807,-3.3139,-3.225,-3.139,-3.0598,-3.0598,-3.0598,-3.0607,-3.0604,-3.0602,-3.061,-3.0676,-3.0698,-3.0703,-3.0703,-3.0739,-3.0799,-3.0799,-3.0799,-3.0799,-3.0799,-3.019,-2.9323,-2.8457,-2.7576,-2.6695,-2.5821,-2.5601,-2.5601,-2.5601,-2.5601,-2.5607,-2.5604,-2.559,-2.5625,-2.5695,-2.5699,-2.5699,-2.5699,-2.6378,-2.7812,-3.0429,-3.0056,-2.9816,-3.0606,-3.0778,-3.1465,-3.3144,-3.1797,-3.1542,-3.326,-3.1776,-3.08,-3.08,-3.0798,-3.0792,-3.0796,-3.0807,-3.0802,-3.0802,-2.8567,-2.7729,-2.833,-2.8867,-2.8828,-2.8375,-3.0123,-3.0919,-3.0958,-3.1777,-3.3105,-3.4705,-3.4705,-3.5213,-3.5991,-3.5991,-3.5991,-3.5991,-3.5991,-3.5991,-3.5991,-3.3406,-3.4534,-3.5576,-3.5805,-3.5869,-3.5657,-3.494,-3.487,-3.4656,-3.3996,-3.3942,-3.4061,-3.4287,-3.3999,-3.4129,-3.4988,-3.4718,-3.4257,-3.368,-3.341,-3.2564,-3.0988,-3.2532,-3.335,-3.3144,-3.4232,-3.5012,-3.5488,-3.5531,-3.5596,-3.5669,-3.5659,-3.5679,-3.5678,-3.4178,-3.3383,-3.31,-3.1622,-3.0839,-3.0598,-3.0598,-3.0597,-3.0604,-3.0602,-3.0622,-3.0672,-3.0685,-3.0728,-3.0769,-3.0769,-3.0774,-3.0799,-3.0799,-3.0799,-3.0799,-3.0799,-3.0624,-3.0229,-2.9343,-2.8481,-2.7464,-2.5962,-2.5593,-2.5618,-2.5665,-2.5679,-2.5659,-2.5665,-2.5678,-2.5675,-2.5701,-2.571,-2.5696,-2.5696,-2.6894,-2.8483,-3.0391,-3.0482,-3.0413,-3.0606,-3.1399,-3.2293,-3.3207,-3.2843,-3.2765,-3.3294,-3.1763,-3.0794,-3.0794,-3.0804,-3.0804,-3.0794,-3.0806,-3.0793,-3.0802,-3.0131,-2.9873,-3.0068,-3.0221,-3.0216,-3.0096,-3.1415,-3.192,-3.1822,-3.3285,-3.4225,-3.4755,-3.536,-3.5773,-3.5991,-3.5991,-3.5991,-3.5991,-3.5991,-3.5965,-3.5935,-3.3434,-3.4724,-3.5897,-3.5906,-3.5907,-3.5713,-3.5149,-3.5085,-3.4652,-3.3445,-3.3593,-3.3565,-3.2908,-3.3038,-3.339,-3.3913,-3.4138,-3.4055,-3.3564,-3.3525,-3.2772,-3.1052,-3.1939,-3.2447,-3.2396,-3.355,-3.4488,-3.5087,-3.5476,-3.5708,-3.5799,-3.5799,-3.5616,-3.5219,-3.3816,-3.3014,-3.2598,-3.1197,-3.0607,-3.0606,-3.0606,-3.0613,-3.0634,-3.063,-3.0665,-3.0703,-3.0734,-3.0769,-3.0799,-3.0799,-3.0799,-3.0799,-3.0799,-3.0799,-3.0799,-3.0799,-3.0799,-3.0604,-2.9737,-2.9114,-2.8291,-2.6571,-2.5871,-2.5615,-2.5688,-2.5693,-2.5703,-2.5704,-2.5703,-2.571,-2.5707,-2.5703,-2.5707,-2.5707,-2.7082,-2.8578,-2.9797,-3.0389,-3.0672,-3.0604,-3.1578,-3.2513,-3.3229,-3.3292,-3.3151,-3.2803,-3.1559,-3.0793,-3.0793,-3.0802,-3.079,-3.0798,-3.0806,-3.0802,-3.0806,-3.0799,-3.0794,-3.0808,-3.0806,-3.0798,-3.0849,-3.1864,-3.2449,-3.2684,-3.4085,-3.4908,-3.5263,-3.577,-3.6007,-3.5991,-3.5991,-3.5991,-3.5991,-3.5965,-3.5935,-3.5903,-3.3551,-3.4766,-3.5907,-3.589,-3.584,-3.5757,-3.5696,-3.5659,-3.5077,-3.3496,-3.386,-3.3711,-3.2255,-3.2678,-3.3129,-3.3289,-3.4117,-3.4556,-3.44,-3.4459,-3.374,-3.2069,-3.2004,-3.1891,-3.1646,-3.3323,-3.4245,-3.4322,-3.5327,-3.5795,-3.5799,-3.5713,-3.5258,-3.4464,-3.3516,-3.2637,-3.1835,-3.0964,-3.0606,-3.0602,-3.061,-3.0661,-3.0704,-3.0691,-3.0703,-3.0728,-3.0774,-3.0799,-3.0799,-3.0799,-3.0799,-3.0799,-3.0799,-3.0799,-3.0799,-3.0799,-3.0799,-3.0624,-2.9835,-2.9552,-2.9128,-2.7521,-2.6426,-2.5712,-2.5707,-2.5696,-2.5704,-2.5698,-2.5701,-2.5691,-2.5703,-2.5693,-2.5704,-2.5685,-2.705,-2.8298,-2.8829,-2.9934,-3.0665,-3.0604,-3.1545,-3.248,-3.3225,-3.3368,-3.3044,-3.2175,-3.1421,-3.095,-3.0799,-3.086,-3.0872,-3.0794,-3.0794,-3.0794,-3.0794,-3.0803,-3.0798,-3.0802,-3.079,-3.0801,-3.0833,-3.1775,-3.2656,-3.3453,-3.439,-3.5269,-3.5991,-3.5991,-3.5991,-3.5991,-3.5991,-3.5991,-3.5988,-3.5912,-3.5903,-3.5895,-3.4218,-3.5174,-3.59,-3.5906,-3.5349,-3.4668,-3.404,-3.3379,-3.281,-3.2439,-3.1931,-3.1754,-3.2064,-3.1649,-3.1874,-3.3186,-3.4659,-3.4964,-3.3643,-3.4148,-3.374,-3.2069,-3.2004,-3.1969,-3.1909,-3.2962,-3.3841,-3.4536,-3.5371,-3.5799,-3.5799,-3.5103,-3.4686,-3.4426,-3.2869,-3.2076,-3.1835,-3.0972,-3.0593,-3.061,-3.0668,-3.0685,-3.0691,-3.0697,-3.0734,-3.0774,-3.0799,-3.0799,-3.0799,-3.0799,-3.0799,-3.0799,-3.0799,-3.0799,-3.0799,-3.0799,-3.0799,-3.076,-3.0565,-3.0026,-2.926,-2.8277,-2.7361,-2.6513,-2.5854,-2.5702,-2.5701,-2.5697,-2.5697,-2.5703,-2.5707,-2.5691,-2.5685,-2.5627,-2.7031,-2.8143,-2.8278,-2.9638,-3.0632,-3.0604,-3.2399,-3.353,-3.3253,-3.3843,-3.3887,-3.3009,-3.2783,-3.2117,-3.0787,-3.1368,-3.1442,-3.0828,-3.075,-3.072,-3.072,-3.0775,-3.0801,-3.0794,-3.0793,-3.0802,-3.0852,-3.2413,-3.321,-3.3484,-3.5038,-3.5822,-3.6001,-3.6001,-3.6007,-3.5991,-3.5991,-3.5965,-3.5912,-3.5908,-3.5904,-3.5898,-3.4431,-3.5287,-3.5858,-3.5841,-3.5158,-3.4454,-3.4036,-3.3257,-3.2715,-3.2714,-3.2305,-3.2011,-3.2089,-3.2041,-3.2358,-3.3227,-3.4092,-3.4417,-3.3955,-3.4695,-3.4583,-3.3298,-3.3239,-3.3044,-3.2635,-3.3473,-3.3913,-3.3934,-3.4797,-3.5002,-3.4559,-3.4085,-3.3677,-3.3278,-3.2313,-3.1685,-3.1305,-3.0847,-3.0649,-3.0644,-3.0691,-3.0716,-3.0739,-3.0739,-3.0769,-3.0799,-3.0799,-3.0799,-3.0799,-3.0799,-3.0799,-3.0799,-3.0799,-3.0799,-3.0799,-3.0799,-3.0798,-3.081,-3.0808,-3.0466,-2.9932,-2.9124,-2.8582,-2.7794,-2.6092,-2.5703,-2.5703,-2.5703,-2.5694,-2.5703,-2.5703,-2.5669,-2.5638,-2.555,-2.6641,-2.7473,-2.7437,-2.893,-3.0175,-3.0543,-3.2438,-3.391,-3.4389,-3.4475,-3.4309,-3.3843,-3.346,-3.2686,-3.1391,-3.1722,-3.1611,-3.082,-3.0762,-3.0683,-3.0559,-3.0593,-3.0614,-3.0603,-3.0745,-3.0784,-3.0794,-3.2157,-3.2787,-3.2885,-3.4615,-3.538,-3.5402,-3.5832,-3.6007,-3.5991,-3.5965,-3.5935,-3.5903,-3.5899,-3.5879,-3.585,-3.4637,-3.5341,-3.5799,-3.5799,-3.5016,-3.4384,-3.4374,-3.3576,-3.3062,-3.3353,-3.3201,-3.289,-3.2362,-3.2773,-3.3021,-3.2873,-3.3261,-3.3766,-3.4332,-3.5327,-3.5506,-3.463,-3.4591,-3.4261,-3.3539,-3.4222,-3.4222,-3.3441,-3.4217,-3.419,-3.3425,-3.3114,-3.2637,-3.1999,-3.179,-3.1324,-3.0697,-3.0704,-3.0698,-3.0703,-3.0709,-3.0745,-3.0799,-3.0799,-3.0799,-3.0818,-3.0974,-3.1115,-3.1213,-3.1076,-3.1018,-3.0998,-3.0843,-3.0804,-3.0804,-3.0804,-3.081,-3.081,-3.081,-3.0825,-3.063,-2.9808,-2.9598,-2.8976,-2.6678,-2.6034,-2.5879,-2.5739,-2.571,-2.5699,-2.5696,-2.5633,-2.5589,-2.5499,-2.6219,-2.6776,-2.6718,-2.814,-2.9547,-3.051,-3.2338,-3.4112,-3.5648,-3.5144,-3.465,-3.4506,-3.3999,-3.3247,-3.2225,-3.2105,-3.1748,-3.1049,-3.0845,-3.078,-3.0877,-3.055,-3.0395,-3.0397,-3.0646,-3.0734,-3.073,-3.1513,-3.1992,-3.2265,-3.3807,-3.4549,-3.4686,-3.5405,-3.5734,-3.5773,-3.5697,-3.5763,-3.5909,-3.5892,-3.5753,-3.5605,-3.5469,-3.5741,-3.5799,-3.5799,-3.4508,-3.3472,-3.3472,-3.2143,-3.1675,-3.3127,-3.2697,-3.2487,-3.3073,-3.26,-3.1934,-3.1128,-3.3129,-3.4156,-3.3512,-3.4995,-3.5506,-3.463,-3.4591,-3.4532,-3.4437,-3.4532,-3.4534,-3.4417,-3.4489,-3.4484,-3.4377,-3.2807,-3.2045,-3.1961,-3.1197,-3.0801,-3.0691,-3.0703,-3.0695,-3.0703,-3.0769,-3.0799,-3.0799,-3.0799,-3.0799,-3.0896,-3.1641,-3.2401,-3.2932,-3.2177,-3.1928,-3.1792,-3.1036,-3.0802,-3.0802,-3.0804,-3.0804,-3.0806,-3.0873,-3.0897,-3.0682,-2.9822,-2.9569,-2.9244,-2.819,-2.7371,-2.6617,-2.5857,-2.5696,-2.5673,-2.5622,-2.5601,-2.5587,-2.5515,-2.6238,-2.6808,-2.68,-2.7651,-2.8876,-3.0486,-3.2854,-3.4725,-3.5706,-3.565,-3.5252,-3.4561,-3.4951,-3.4511,-3.2958,-3.2808,-3.2524,-3.2036,-3.1002,-3.1216,-3.2812,-3.121,-3.0394,-3.0386,-3.0539,-3.0645,-3.0711,-3.0885,-3.1543,-3.2578,-3.3261,-3.3866,-3.4354,-3.442,-3.4608,-3.4878,-3.4793,-3.524,-3.5892,-3.5823,-3.5341,-3.4777,-3.5624,-3.5799,-3.5643,-3.5158,-3.41,-3.3148,-3.2642,-3.1562,-3.1403,-3.3087,-3.302,-3.3127,-3.3949,-3.2872,-3.2135,-3.2198,-3.326,-3.3965,-3.4082,-3.5253,-3.5566,-3.4687,-3.4668,-3.4667,-3.4666,-3.4666,-3.4883,-3.5325,-3.432,-3.3593,-3.3114,-3.1785,-3.1217,-3.1254,-3.0864,-3.0712,-3.0758,-3.0763,-3.075,-3.076,-3.0789,-3.0808,-3.0799,-3.0799,-3.1096,-3.1641,-3.2499,-3.245,-3.203,-3.2625,-3.2493,-3.2034,-3.1655,-3.1538,-3.1449,-3.0994,-3.0864,-3.0868,-3.0898,-3.0898,-3.08,-3.0375,-3.0247,-3.0003,-2.9162,-2.8665,-2.8006,-2.6649,-2.5989,-2.5634,-2.5609,-2.5602,-2.5589,-2.5503,-2.5846,-2.6132,-2.6083,-2.7251,-2.9103,-3.1821,-3.3488,-3.4768,-3.5697,-3.5698,-3.5482,-3.5095,-3.4917,-3.4253,-3.2972,-3.2814,-3.2281,-3.1175,-3.0483,-3.0623,-3.1634,-3.0745,-3.033,-3.04,-3.0467,-3.0549,-3.0645,-3.0745,-3.1098,-3.1602,-3.1845,-3.2101,-3.238,-3.2993,-3.3532,-3.4016,-3.4442,-3.4815,-3.5053,-3.4583,-3.4167,-3.3876]}]]